     2.11           OBSERVATION DATA    G (GPS)             RINEX VERSION / TYPE
teqc 2010Oct21 OPUS Account 20111028 15:38:18UTC            PGM / RUN BY / DATE
J 1527                                                      MARKER NAME
3069                                                        MARKER NUMBER
CSMIDDLETON NGS                                             OBSERVER / AGENCY
4624K01631 TRIMBLE NETR5 4.41                               REC # / TYPE / VERS
12481390 TRM41249.00 NONE                                   ANT # / TYPE
  -729470.3821 -5588327.2176  2976455.0794                  APPROX POSITION XYZ
        2.0000        0.0000        0.0000                  ANTENNA: DELTA H/E/N
     1     1                                                WAVELENGTH FACT L1/2
     5    L1    L2    C1    P1    P2                        # / TYPES OF OBSERV
    15                                                      LEAP SECONDS
  2011     8    23    15    48   30.0000000     GPS         TIME OF FIRST OBS
                                                            END OF HEADER
 11  8 23 15 48 30.0000000  0 10G23G03G07G19G10G20G06G16G08G13
 106326150.45718  82851610.96356  20233199.320                    20233206.594
 110140294.76517  85823651.05955  20959004.008                    20959013.637
 117669440.87117  91690525.09017  22391759.211                    22391769.016
 111322109.96618  86744555.48256  21183899.203                    21183906.441
 125591690.69816  97863688.79053  23899311.320                    23899321.699
 129632872.63216                  24668325.203
 118891639.58717  92642996.22154  22624356.031                    22624366.801
 120619595.99817  93989431.18954  22953171.258                    22953180.555
 127961549.06516  99710377.09453  24350281.820                    24350293.500
 105475566.01318  82188603.67156  20071291.336                    20071299.078
 11  8 23 15 49  0.0000000  0 10G23G03G07G19G10G20G06G16G08G13
 106367089.051 8  82883511.16346  20240989.828                    20240997.031
 110174101.307 7  85849993.81345  20965437.281                    20965447.145
 117613326.466 7  91646799.637 7  22381081.070                    22381091.039
 111281972.845 8  86713279.85146  21176260.742                    21176268.891
 125598645.323 6  97869108.01743  23900634.891                    23900647.023
 129715483.517 6                  24684046.250
 118950416.756 7  92688796.60744  22635541.367                    22635551.605
 120708706.734 7  94058868.10644  22970128.328                    22970137.992
 127896324.303 7  99659552.70243  24337870.352                    24337881.504
 105459704.368 8  82176243.95846  20068272.469                    20068280.656
 11  8 23 15 49 30.0000000  0 10G23G03G07G19G10G20G06G16G08G13
 106408582.927 8  82915844.02546  20248885.789                    20248892.832
 110208511.406 7  85876806.86845  20971984.953                    20971994.793
 117557227.692 7  91603086.354 7  22370405.797                    22370415.563
 111242378.643 8  86682427.25746  21168726.156                    21168733.707
 125606066.309 6  97874890.62343  23902047.406                    23902059.645
 129797939.574 6                  24699737.406
 119009656.277 7  92734957.26444  22646813.844                    22646824.410
 120797861.931 7  94128339.63844  22987093.898                    22987103.578
 127831030.679 6  99608674.61444  24325445.758                    24325456.633
 105444398.257 8  82164317.12146  20065360.188                    20065368.500
 11  8 23 15 50  0.0000000  0 10G23G03G07G19G10G20G06G16G08G13
 106450631.634 8  82948609.22346  20256887.125                    20256894.633
 110243524.261 7  85904089.60545  20978647.953                    20978657.789
 117501145.480 7  91559385.978 7  22359733.664                    22359743.262
 111203329.861 8  86651999.64146  21161295.516                    21161303.504
 125613952.845 6  97881035.96643  23903548.063                    23903559.809
 129880239.310 6                  24715398.617
 119069356.935 7  92781477.22044  22658174.828                    22658185.184
 120887060.412 7  94197844.88344  23004068.617                    23004078.090
 127765668.922 6  99557743.48543  24313006.523                    24313019.309
 105429649.362 8  82152824.48146  20062553.000                    20062561.555
 11  8 23 15 50 30.0000000  0 10G23G03G07G19G10G20G06G16G08G13
 106493235.326 8  82981806.88546  20264994.695                    20265001.715
 110279139.251 7  85931841.53945  20985425.602                    20985435.270
 117445080.638 7  91515699.123 7  22349064.844                    22349074.594
 111164828.870 8  86621998.89146  21153968.813                    21153977.012
 125622303.692 6  97887543.15843  23905137.031                    23905149.402
 129962380.616 6                  24731028.945
 119129517.297 7  92828355.40744  22669622.953                    22669633.168
 120976300.536 7  94267382.60644  23021049.977                    23021059.496
 127700239.082 6  99506759.28743  24300555.547                    24300568.070
 105415459.319 8  82141767.30346  20059852.641                    20059861.547
 11  8 23 15 51  0.0000000  0 10G23G03G07G19G10G20G06G16G08G13
 106536392.953 8  83015436.17246  20273207.281                    20273214.418
 110315355.456 8  85960061.97145  20992317.016                    20992326.383
 117389034.426 7  91472026.764 7  22338399.625                    22338409.078
 111126878.118 8  86592426.88246  21146746.945                    21146755.258
 125631118.343 7  97894411.71043  23906814.273                    23906826.355
 130044361.557 6                  24746629.828
 119190135.739 7  92875590.54245  22681158.703                    22681168.207
 121065580.621 7  94336951.45844  23038039.078                    23038048.953
 127634741.555 6  99455722.32043  24288091.523                    24288104.246
 105401830.527 8  82131147.47246  20057259.266                    20057268.191
 11  8 23 15 51 30.0000000  0 10G23G03G07G19G10G20G06G16G08G13
 106580103.277 8  83049496.14546  20281525.195                    20281532.016
 110352171.039 8  85988749.42645  20999323.336                    20999332.957
 117333006.786 7  91428368.889 7  22327737.750                    22327747.551
 111089478.815 8  86563284.58646  21139630.703                    21139638.367
 125640394.824 6  97901640.17243  23908579.195                    23908591.152
 130126179.681 6                  24762199.375
 119251209.929 7  92923180.79945  22692780.742                    22692790.160
 121154898.361 7  94406549.64944  23055036.352                    23055045.164
 127569175.299 6  99404631.81643  24275614.867                    24275625.863
 105388763.634 8  82120965.47846  20054772.648                    20054781.371
 11  8 23 15 52  0.0000000  0 10G23G03G07G19G10G20G06G16G08G13
 106624365.924 8  83083986.49446  20289948.086                    20289954.879
 110389585.288 8  86017903.38745  21006442.828                    21006452.543
 117276998.547 7  91384726.138 7  22317079.961                    22317089.684
 111052633.497 8  86534573.96246  21132618.844                    21132626.801
 125650132.618 6  97909228.11143  23910432.156                    23910443.844
 130207832.789 6                  24777737.961
 119312738.535 7  92971125.13844  22704488.688                    22704499.168
 121244252.293 7  94476176.04244  23072039.805                    23072048.590
 127503541.007 7  99353488.22843  24263125.453                    24263134.332
 105376260.526 8  82111222.79846  20052393.633                    20052402.293
 11  8 23 15 52 30.0000000  0 10G23G03G07G19G10G20G06G16G08G13
 106669179.805 8  83118906.37746  20298475.578                    20298482.984
 110427596.512 8  86047522.49845  21013675.852                    21013685.852
 117221010.193 7  91341098.871 7  22306425.641                    22306435.313
 111016343.841 8  86506296.33446  21125713.156                    21125721.281
 125660330.180 6  97917174.26843  23912372.758                    23912383.836
 130289318.533 6                  24793244.039
 119374719.050 7  93019421.62144  22716283.609                    22716294.063
 121333640.297 7  94545828.97644  23089049.367                    23089058.820
 127437838.259 7  99302291.33344  24250623.266                    24250633.121
 105364321.423 8  82101919.60546  20050121.953                    20050130.176
 11  8 23 15 53  0.0000000  0  9G23G03G07G19G10G06G16G08G13
 106714543.941 8  83154255.02546  20307108.438                    20307115.363
 110466202.980 8  86077605.43845  21021022.359                    21021032.117
 117165042.094 7  91297487.397 7  22295775.102                    22295784.883
 110980611.141 8  86478452.69546  21118913.555                    21118921.676
 125670985.704 6  97925477.27343  23914400.211                    23914412.020
 119437149.630 7  93068068.80444  22728163.320                    22728173.750
 121423060.357 7  94615506.90044  23106065.844                    23106075.035
 127372066.902 7  99251041.07043  24238106.422                    24238119.152
 105352947.790 8  82093057.03146  20047957.563                    20047965.949
 11  8 23 15 53 30.0000000  0  9G23G03G07G19G10G06G16G08G13
 106760457.168 8  83190031.52046  20315845.367                    20315852.574
 110505403.607 8  86108151.34845  21028482.133                    21028491.875
 117109094.540 7  91253891.924 7  22285128.797                    22285138.082
 110945437.712 8  86451044.84046  21112220.086                    21112228.145
 125682097.941 6  97934136.14843  23916515.313                    23916526.391
 119500028.346 7  93117065.16944  22740128.617                    22740139.336
 121512510.387 7  94685208.17644  23123087.367                    23123096.512
 127306226.619 6  99199737.02443  24225577.219                    24225589.871
 105342141.121 8  82084636.24546  20045900.773                    20045909.375
 11  8 23 15 54  0.0000000  0  9G23G03G07G19G10G06G16G08G13
 106806918.678 8  83226235.26446  20324686.875                    20324694.016
 110545196.912 8  86139159.10145  21036054.531                    21036064.219
 117053168.457 7  91210313.181 7  22274486.516                    22274495.750
 110910825.243 8  86424074.10046  21105633.328                    21105641.063
 125693665.201 6  97943149.61743  23918716.242                    23918727.621
 119563353.071 7  93166409.09944  22752179.352                    22752189.145
 121601988.914 7  94754931.68144  23140114.836                    23140123.805
 127240317.465 6  99148379.35343  24213035.281                    24213047.867
 105331902.375 8  82076657.99446  20043952.703                    20043960.898
 11  8 23 15 54 30.0000000  0  9G23G03G07G19G10G06G16G08G13
 106853927.597 8  83262865.55946  20333632.289                    20333639.516
 110585581.682 8  86170627.73145  21043739.453                    21043749.102
 116997264.375 7  91166751.579 7  22263848.125                    22263857.375
 110876775.585 8  86397541.91746  21099154.289                    21099162.535
 125705686.323 6  97952516.73443  23921004.039                    23921015.348
 119627121.926 7  93216099.07644  22764313.648                    22764324.273
 121691493.981 7  94824675.81644  23157147.258                    23157156.523
 127174339.424 6  99096967.98443  24200479.383                    24200492.184
 105322232.840 8  82069123.28546  20042112.117                    20042120.383
 11  8 23 15 55  0.0000000  0  9G23G03G07G19G10G06G16G08G13
 106901482.317 8  83299921.14546  20342681.758                    20342688.977
 110626556.329 8  86202556.00845  21051536.898                    21051546.473
 116941382.583 7  91123207.352 7  22253213.867                    22253223.109
 110843289.997 8  86371449.27946  21092782.391                    21092789.996
 125718159.840 6  97962236.36343  23923377.859                    23923388.844
 119691332.677 7  93266133.38044  22776532.781                    22776543.484
 121781023.603 7  94894439.09944  23174184.273                    23174193.223
 127108292.055 6  99045502.58643  24187911.094                    24187922.473
 105313133.097 8  82062032.58446  20040380.859                    20040389.137
 11  8 23 15 55 30.0000000  0  9G23G03G07G19G10G06G16G08G13
 106949582.609 8  83337401.85646  20351834.953                    20351842.297
 110668119.698 8  86234943.02645  21059445.766                    21059455.430
 116885524.288 7  91079681.428 7  22242584.352                    22242594.105
 110810370.824 8  86345798.00046  21086517.781                    21086525.305
 125731084.915 6  97972307.86443  23925837.867                    23925848.625
 119755983.815 7  93316510.82944  22788835.625                    22788846.258
 121870576.431 7  94964220.49544  23191225.141                    23191234.609
 127042175.812 6  98993983.50743  24175330.055                    24175339.543
 105304605.370 8  82055387.59946  20038758.047                    20038766.246
 11  8 23 15 56  0.0000000  0  9G23G03G07G19G10G06G16G08G13
 106998226.996 8  83375306.53546  20361091.930                    20361098.719
 110710270.001 8  86267787.40745  21067466.813                    21067476.711
 116829689.889 8  91036174.138 7  22231959.781                    22231969.121
 110778019.565 8  86320589.25146  21080361.359                    21080369.672
 125744459.318 6  97982729.48043  23928382.461                    23928393.852
 119821073.032 7  93367229.66344  22801221.969                    22801232.492
 121960150.087 7  95034018.08844  23208270.750                    23208279.918
 126975990.413 6  98942410.57343  24162734.219                    24162744.809
 105296650.033 7  82049188.63746  20037244.273                    20037252.625
 11  8 23 15 56 30.0000000  0 10G23G03G07G19G10G11G06G16G08G13
 107047414.607 8  83413634.51246  20370451.391                    20370458.715
 110753005.759 8  86301087.98845  21075599.008                    21075608.832
 116773879.900 7  90992685.864 7  22221339.516                    22221348.559
 110746237.967 8  86295824.39446  21074313.883                    21074321.730
 125758281.800 7  97993500.25943  23931013.109                    23931023.953
 130210605.07716 101462896.27653  24778263.344                    24778276.309
 119886598.292 7  93418288.26445  22813691.109                    22813701.289
 122049743.011 7  95103830.72644  23225319.672                    23225329.355
 126909735.767 6  98890783.66243  24150126.961                    24150137.879
 105289268.306 7  82043436.64646  20035839.367                    20035847.883
 11  8 23 15 57  0.0000000  0 10G23G03G07G19G10G11G06G16G08G13
 107097144.733 8  83452385.23846  20379914.992                    20379922.063
 110796325.733 8  86334843.79445  21083842.945                    21083852.324
 116718095.618 8  90949217.644 7  22210723.719                    22210733.512
 110715028.082 8  86271505.02646  21068374.617                    21068382.457
 125772551.291 6  98004619.37243  23933728.094                    23933739.551
 130137983.469 6 101406308.04243  24764445.047                    24764457.078
 119952558.112 7  93469685.48244  22826242.828                    22826253.828
 122139354.027 7  95173657.42944  23242371.938                    23242381.500
 126843412.459 6  98839103.26843  24137506.281                    24137517.297
 105282461.965 8  82038133.00946  20034544.586                    20034552.734
 11  8 23 15 57 30.0000000  0 10G23G03G07G19G10G11G06G16G08G13
 107147415.697 8  83491557.38446  20389481.391                    20389488.375
 110840228.366 8  86369053.61745  21092197.383                    21092207.051
 116662337.232 8  90905769.593 7  22200113.367                    22200123.242
 110684391.127 8  86247632.09746  21062544.859                    21062552.480
 125787266.239 6  98016085.55343  23936527.664                    23936539.293
 130065201.607 6 101349594.86343  24750595.109                    24750607.980
 120018949.814 7  93521419.21944  22838876.711                    22838887.754
 122228981.052 7  95243496.62244  23259428.023                    23259436.996
 126777019.999 6  98787368.99543  24124871.539                    24124883.289
 105276231.200 8  82033277.86946  20033358.547                    20033366.898
 11  8 23 15 58  0.0000000  0 11G23G03G07G19G10G11G28G06G16G08G13
 107198226.374 8  83531150.09046  20399150.352                    20399157.461
 110884711.630 8  86403715.88945  21100662.328                    21100671.480
 116606604.900 7  90862341.843 7  22189507.898                    22189517.566
 110654328.598 8  86224206.76746  21056823.813                    21056831.520
 125802424.555 6  98027897.22743  23939411.781                    23939424.305
 129992261.518 6 101292758.44343  24736714.664                    24736727.672
 129644129.39915 101021389.19252  24670443.375                    24670455.723
 120085771.145 7  93573487.74844  22851592.359                    22851603.016
 122318621.654 7  95313346.39844  23276486.383                    23276495.234
 126710558.123 6  98735580.58743  24112225.563                    24112236.781
 105270576.811 8  82028871.84846  20032282.297                    20032291.082
 11  8 23 15 58 30.0000000  0 11G23G03G07G19G10G11G28G06G16G08G13
 107249575.549 8  83571162.40546  20408921.719                    20408928.555
 110929773.872 8  86438829.32345  21109237.422                    21109247.324
 116550899.783 7  90818935.287 7  22178907.242                    22178917.480
 110624842.172 8  86201230.35146  21051212.648                    21051220.512
 125818024.793 6  98040053.22743  23942380.500                    23942393.219
 129919165.595 6 101235800.62243  24722804.844                    24722818.785
 129571281.675 6 100964624.79742  24656581.586                    24656592.871
 120153020.268 7  93625889.60344  22864389.352                    22864399.605
 122408274.558 7  95383205.76544  23293546.406                    23293555.727
 126644026.784 6  98683738.07243  24099564.500                    24099576.563
 105265500.299 8  82024916.12646  20031316.102                    20031324.863
 11  8 23 15 59  0.0000000  0 11G23G03G07G19G10G11G28G06G16G08G13
 107301461.585 8  83611593.04746  20418795.406                    20418802.559
 110975413.341 8  86474392.54845  21117921.789                    21117931.254
 116495222.154 7  90775550.148 7  22168312.453                    22168322.406
 110595933.011 8  86178703.73346  21045711.156                    21045719.004
 125834064.880 6  98052551.97543  23945433.055                    23945445.871
 129845916.032 6 101178723.05142  24708866.258                    24708879.418
 129498649.180 6 100908028.15342  24642760.117                    24642771.820
 120220694.837 7  93678623.00544  22877267.266                    22877277.969
 122497937.848 6  95453073.20644  23310608.461                    23310618.074
 126577425.958 6  98631841.39343  24086891.094                    24086902.492
 105261002.042 8  82021410.99246  20030460.789                    20030469.145
 11  8 23 15 59 30.0000000  0 11G23G03G07G19G10G11G28G06G16G08G13
 107353883.889 8  83652441.56346  20428770.781                    20428778.355
 111021628.833 8  86510404.62045  21126716.844                    21126726.355
 116439573.104 7  90732187.279 7  22157722.648                    22157732.305
 110567603.308 7  86156628.65946  21040320.773                    21040328.449
 125850543.931 6  98065392.80543  23948569.508                    23948581.832
 129772515.151 6 101121527.59542  24694897.984                    24694910.816
 129426232.362 6 100851599.50742  24628979.742                    24628991.180
 120288793.083 7  93731686.54044  22890225.969                    22890236.348
 122587609.916 6  95522947.49544  23327672.906                    23327682.023
 126510755.965 6  98579890.80443  24074203.766                    24074215.449
 105257083.715 7  82018357.74546  20029714.930                    20029723.711
 11  8 23 16  0  0.0000000  0 11G23G03G07G19G10G11G28G06G16G08G13
 107406840.842 8  83693706.70246  20438848.344                    20438855.621
 111068418.510 8  86546864.11645  21135620.148                    21135630.441
 116383953.114 7  90688847.053 7  22147138.570                    22147147.953
 110539854.012 7  86135005.84546  21035040.078                    21035047.613
 125867460.137 7  98078574.25943  23951789.453                    23951800.625
 129698964.914 6 101064215.72642  24680902.063                    24680913.586
 129354031.607 6 100795339.27442  24615240.102                    24615252.004
 120357312.668 7  93785078.41144  22903265.148                    22903275.402
 122677288.783 6  95592827.07044  23344738.641                    23344747.836
 126444016.288 6  98527885.95344  24061504.031                    24061515.633
 105253745.510 8  82015756.54246  20029079.828                    20029088.160
 11  8 23 16  0 30.0000000  0 11G23G03G07G19G10G11G28G06G16G08G13
 107460331.352 8  83735387.58546  20449027.633                    20449034.738
 111115780.650 8  86583769.67045  21144632.969                    21144642.570
 116328363.397 7  90645530.425 7  22136560.164                    22136569.105
 110512686.679 7  86113836.51946  21029870.633                    21029877.836
 125884811.702 7  98092094.94843  23955090.484                    23955102.574
 129625267.798 6 101006789.40242  24666877.688                    24666890.270
 129282047.493 6 100739247.81543  24601541.492                    24601553.648
 120426251.377 7  93838796.85344  22916384.227                    22916394.043
 122766973.056 6  95662710.86143  23361804.297                    23361814.094
 126377207.413 6  98475827.17044  24048789.469                    24048802.105
 105250988.500 8  82013608.22346  20028554.891                    20028564.055
 11  8 23 16  1  0.0000000  0 11G23G03G07G19G10G11G28G06G16G08G13
 107514354.219 8  83777483.29246  20459307.438                    20459314.820
 111163713.427 8  86621119.87545  21153754.555                    21153764.395
 116272803.855 7  90602237.300 7  22125987.539                    22125996.512
 110486102.814 8  86093121.83646  21024811.555                    21024819.367
 125902596.954 7  98105953.61043  23958475.047                    23958486.527
 129551426.110 6 100949250.49842  24652826.914                    24652839.133
 129210280.320 6 100683325.37643  24587884.898                    24587896.848
 120495607.075 7  93892840.23244  22929581.867                    22929592.098
 122856660.703 6  95732597.29943  23378871.477                    23378880.840
 126310329.598 6  98423714.66643  24036063.969                    24036075.809
 105248813.743 7  82011913.60846  20028141.320                    20028149.578
 11  8 23 16  1 30.0000000  0 11G23G03G07G19G10G11G28G06G16G08G13
 107568908.211 8  83819992.86946  20469689.031                    20469696.434
 111212215.485 8  86658913.67645  21162983.867                    21162993.395
 116217275.636 7  90558968.589 7  22115420.961                    22115429.738
 110460104.093 8  86072863.11846  21019864.547                    21019871.863
 125920814.363 6  98120148.97443  23961941.336                    23961952.824
 129477442.218 6 100891600.73342  24638747.688                    24638760.711
 129138730.664 6 100627572.45043  24574269.367                    24574281.891
 120565377.713 7  93947206.92444  22942858.617                    22942869.563
 122946350.405 6  95802485.33743  23395939.039                    23395948.391
 126243382.728 6  98371548.39143  24023324.109                    24023336.082
 105247222.187 8  82010673.43046  20027838.547                    20027846.813
 11  8 23 16  2  0.0000000  0 11G23G03G07G19G10G11G28G06G16G08G13
 107623991.675 8  83862915.01446  20480170.922                    20480178.395
 111261284.574 8  86697149.32845  21172321.586                    21172331.355
 116161779.541 7  90515724.890 7  22104860.125                    22104869.609
 110434691.604 8  86053061.18846  21015028.094                    21015035.551
 125939462.221 6  98134679.75443  23965489.563                    23965501.785
 129403317.905 6 100833841.58342  24624642.258                    24624655.328
 129067398.692 6 100571989.17743  24560695.484                    24560707.637
 120635561.242 7  94001895.36844  22956214.203                    22956224.633
 123036040.357 7  95872373.53944  23413006.633                    23413015.797
 126176366.560 6  98319328.12243  24010570.391                    24010582.488
 105246214.261 8  82009888.03046  20027646.656                    20027655.160
 11  8 23 16  2 30.0000000  0 11G23G03G07G19G10G11G28G06G16G08G13
 107679603.179 8  83906248.62846  20490753.805                    20490760.727
 111310919.253 8  86735825.69845  21181766.727                    21181776.430
 116106316.091 7  90472506.656 7  22094305.500                    22094315.086
 110409866.714 8  86033717.13846  21010304.344                    21010311.832
 125958538.948 6  98149544.74343  23969120.148                    23969131.285
 129329055.962 6 100775975.15043  24610510.609                    24610523.426
 128996284.906 6 100516575.89843  24547163.250                    24547174.512
 120706155.069 7  94056903.50044  22969647.922                    22969658.555
 123125728.834 6  95942260.60544  23430073.898                    23430082.930
 126109281.085 6  98267053.83143  23997804.234                    23997815.938
 105245791.000 8  82009558.20646  20027566.039                    20027574.824
 11  8 23 16  3  0.0000000  0 11G23G03G07G19G10G11G28G06G16G08G13
 107735741.417 8  83949992.67346  20501435.930                    20501443.617
 111361117.115 8  86774940.89545  21191319.484                    21191328.824
 116050885.937 7  90429314.358 7  22083757.633                    22083767.281
 110385630.758 8  86014831.99246  21005692.242                    21005699.867
 125978042.516 6  98164742.30743  23972831.531                    23972843.316
 129254658.328 6 100718003.03843  24596353.273                    24596365.359
 128925389.546 6 100461332.79843  24533672.430                    24533683.578
 120777157.085 7  94112229.70444  22983158.992                    22983169.805
 123215413.985 6  96012145.08143  23447140.719                    23447149.285
 126042126.072 6  98214725.37043  23985025.641                    23985036.777
 105245952.305 8  82009683.88946  20027596.688                    20027605.184
 11  8 23 16  3 30.0000000  0 11G23G03G07G19G10G11G28G06G16G08G13
 107792405.148 8  83994146.19346  20512218.820                    20512226.063
 111411876.880 8  86814493.93845  21200978.555                    21200988.023
 115995490.149 7  90386148.851 7  22073216.086                    22073225.801
 110361985.151 8  85996406.85246  21001192.617                    21001200.391
 125997971.597 6  98180271.45043  23976624.422                    23976635.684
 129180127.632 6 100659927.23643  24582171.000                    24582182.891
 128854713.246 7 100406260.42243  24520223.055                    24520234.199
 120848565.369 7  94167872.49144  22996747.398                    22996758.238
 123305094.562 6  96082025.98944  23464205.867                    23464215.324
 125974901.994 6  98162343.07343  23972233.078                    23972244.258
 105246699.975 7  82010266.47946  20027738.891                    20027747.324
 11  8 23 16  4  0.0000000  0 11G23G03G07G19G10G11G28G06G16G08G13
 107849592.748 8  84038707.91546  20523101.570                    20523108.508
 111463196.596 8  86854483.30145  21210744.445                    21210753.586
 115940129.444 7  90343010.667 7  22062681.273                    22062690.867
 110338931.132 8  85978442.69546  20996805.422                    20996813.379
 126018324.260 6  98196130.65243  23980496.969                    23980508.383
 129105465.926 6 100601749.36543  24567962.961                    24567975.902
 128784256.317 6 100351359.00243  24506815.359                    24506826.613
 120920377.417 7  94223829.89644  23010412.617                    23010423.344
 123394768.781 6  96151901.94143  23481270.242                    23481280.242
 125907609.117 6  98109907.18043  23959427.633                    23959438.598
 105248034.309 7  82011306.20846  20027992.680                    20028001.684
 11  8 23 16  4 30.0000000  0 11G23G03G07G19G10G11G28G06G16G08G13
 107907302.788 8  84083676.74246  20534083.242                    20534091.004
 111515073.995 7  86894907.21745  21220616.555                    21220625.840
 115884804.469 7  90299900.328 7  22052152.820                    22052162.484
 110316470.046 8  85960940.56146  20992530.883                    20992538.867
 126039098.408 6  98212318.29143  23984450.656                    23984462.105
 129030675.557 6 100543471.23043  24553730.922                    24553743.488
 128714018.917 6 100296628.63543  24493449.203                    24493460.383
 120992590.885 7  94280100.09744  23024154.516                    23024165.020
 123484435.055 6  96221771.69543  23498333.219                    23498343.016
 125840247.247 7  98057417.48843  23946608.656                    23946620.125
 105249955.619 7  82012803.32446  20028358.547                    20028367.113
 11  8 23 16  5  0.0000000  0 11G23G03G07G19G10G11G28G06G16G08G13
 107965534.071 8  84129051.73946  20545164.602                    20545171.699
 111567508.072 8  86935764.91645  21230594.172                    21230603.809
 115829516.310 7  90256818.678 7  22041632.047                    22041641.621
 110294603.151 8  85943901.44546  20988370.281                    20988377.430
 126060292.560 6  98228833.19343  23988483.477                    23988495.613
 128955759.153 6 100485094.91443  24539474.438                    24539487.070
 128644001.881 6 100242069.99243  24480126.305                    24480137.492
 121065204.137 7  94336681.82044  23037972.508                    23037983.215
 123574091.686 6  96291633.93043  23515394.242                    23515404.246
 125772816.698 7  98004874.31244  23933777.898                    23933788.266
 105252465.543 8  82014759.09446  20028836.148                    20028844.438
 11  8 23 16  5 30.0000000  0 11G23G03G07G19G10G11G28G06G16G08G13
 108024285.361 8  84174831.93546  20556344.430                    20556351.996
 111620496.294 8  86977054.39845  21240677.438                    21240687.258
 115774265.861 7  90213766.408 7  22031118.609                    22031127.066
 110273331.664 8  85927326.28646  20984322.438                    20984329.828
 126081904.699 7  98245673.80644  23992596.492                    23992608.527
 128880719.095 6 100426622.21243  24525194.031                    24525207.082
 128574205.236 6 100187683.04942  24466843.586                    24466854.879
 121138214.549 7  94393573.00844  23051866.188                    23051876.648
 123663737.074 6  96361487.37743  23532452.734                    23532463.129
 125705317.782 7  97952277.84943  23920933.016                    23920944.711
 105255564.167 8  82017173.58846  20029425.867                    20029434.215
 11  8 23 16  6  0.0000000  0 11G23G03G07G19G10G11G28G06G16G08G13
 108083554.552 8  84221015.68846  20567623.164                    20567630.176
 111674036.951 7  87018774.34745  21250865.914                    21250875.676
 115719053.555 7  90170743.861 7  22020611.852                    22020620.926
 110252656.407 8  85911215.72646  20980388.094                    20980395.137
 126103933.026 6  98262838.72644  23996787.336                    23996800.297
 128805557.576 6 100368054.86244  24510891.492                    24510904.676
 128504629.202 6 100133468.02742  24453603.898                    24453615.785
 121211619.873 7  94450771.93144  23065835.289                    23065844.566
 123753369.788 7  96431330.98244  23549509.523                    23549520.086
 125637749.895 7  97899627.62243  23908075.156                    23908086.516
 105259251.876 8  82020047.12346  20030127.570                    20030135.988
 11  8 23 16  6 30.0000000  0 11G23G03G07G19G10G11G28G06G16G08G13
 108143339.844 8  84267601.59446  20579000.031                    20579007.250
 111728127.721 7  87060922.97445  21261158.992                    21261168.973
 115663880.307 7  90127751.758 7  22010112.883                    22010121.852
 110232578.971 8  85895571.00146  20976567.320                    20976574.656
 126126376.114 6  98280326.84143  24001058.156                    24001070.840
 128730276.904 6 100309394.66643  24496566.789                    24496579.750
 128435274.225 6 100079425.26742  24440405.703                    24440417.449
 121285417.665 7  94508276.67044  23079877.859                    23079888.141
 123842988.172 7  96501163.44343  23566564.211                    23566573.668
 125570113.358 7  97846923.89643  23895204.852                    23895215.289
 105263529.462 8  82023380.28746  20030941.789                    20030949.938
 11  8 23 16  7  0.0000000  0 11G23G03G07G19G10G11G28G06G16G08G13
 108203640.108 8  84314588.78046  20590474.594                    20590481.973
 111782766.949 8  87103498.95945  21271556.430                    21271565.996
 115608746.959 8  90084790.738 7  21999621.383                    21999630.691
 110213100.364 8  85880392.88846  20972860.789                    20972868.074
 126149231.837 6  98298136.48443  24005407.641                    24005419.703
 128654879.324 6 100250643.37643  24482218.766                    24482232.176
 128366140.539 6 100025554.91742  24427249.992                    24427261.676
 121359605.955 7  94566085.69644  23093996.055                    23094006.531
 123932590.521 6  96570983.39343  23583615.086                    23583624.313
 125502408.622 7  97794167.01144  23882320.953                    23882331.582
 105268397.436 8  82027173.49246  20031868.109                    20031876.680
 11  8 23 16  7 30.0000000  0 11G23G03G07G19G10G11G28G06G16G08G13
 108264453.990 8  84361976.18046  20602047.008                    20602054.711
 111837952.561 7  87146500.70945  21282058.258                    21282067.977
 115553654.550 7  90041861.615 7  21989137.797                    21989147.305
 110194221.666 8  85865682.22846  20969268.164                    20969276.090
 126172498.357 6  98316266.23243  24009835.305                    24009847.258
 128579367.536 6 100191803.08843  24467849.477                    24467862.531
 128297228.576 6  99971857.35542  24414136.109                    24414148.016
 121434182.168 7  94624196.99644  23108186.656                    23108197.594
 124022175.624 6  96640789.93343  23600662.570                    23600671.203
 125434635.635 7  97741356.96043  23869423.906                    23869434.707
 105273856.475 8  82031427.27846  20032907.039                    20032915.211
 11  8 23 16  8  0.0000000  0 11G23G03G07G19G10G11G28G06G16G08G13
 108325780.049 8  84409762.67446  20613717.125                    20613724.543
 111893682.768 7  87189926.81445  21292662.813                    21292673.086
 115498604.087 7  89998965.190 7  21978661.938                    21978671.750
 110175943.820 8  85851439.75746  20965790.031                    20965797.832
 126196173.797 6  98334714.60543  24014340.773                    24014352.352
 128503743.764 6 100132875.57343  24453458.070                    24453471.949
 128228538.648 6  99918332.83842  24401065.453                    24401076.789
 121509144.309 7  94682609.02944  23122451.516                    23122462.086
 124111741.818 6  96710581.71043  23617705.695                    23617715.516
 125366794.862 7  97688494.10243  23856514.063                    23856525.172
 105279907.043 8  82036141.99746  20034058.508                    20034066.855
 11  8 23 16  8 30.0000000  0 11G23G03G07G19G10G11G28G06G16G08G13
 108387616.407 8  84457946.81446  20625484.367                    20625491.398
 111949955.674 7  87233775.80045  21303371.391                    21303381.363
 115443596.231 7  89956101.949 7  21968194.023                    21968203.961
 110158268.061 8  85837666.43646  20962426.453                    20962433.676
 126220255.950 6  98353479.88343  24018923.367                    24018934.887
 128428010.522 6 100073862.73242  24439045.719                    24439060.129
 128160071.045 6  99864981.52743  24388036.570                    24388048.238
 121584490.218 7  94741320.10844  23136790.031                    23136800.109
 124201287.597 6  96780357.60743  23634745.570                    23634755.699
 125298886.249 7  97635578.37343  23843590.406                    23843602.941
 105286549.724 8  82041318.09646  20035322.164                    20035330.867
 11  8 23 16  9  0.0000000  0 11G23G03G07G19G10G11G28G06G16G08G13
 108449961.323 8  84506527.23246  20637348.164                    20637355.477
 112006768.546 7  87278045.54845  21314182.508                    21314192.742
 115388631.660 7  89913272.435 7  21957734.820                    21957743.875
 110141195.276 8  85824362.97546  20959177.773                    20959185.000
 126244742.914 6  98372560.64943  24023583.008                    24023594.539
 128352170.408 6 100014766.60442  24424614.109                    24424628.047
 128091825.871 6  99811803.56743  24375049.281                    24375060.398
 121660217.045 7  94800327.99544  23151199.898                    23151211.082
 124290811.309 6  96850116.23843  23651781.914                    23651792.215
 125230910.274 6  97582610.11043  23830654.797                    23830667.098
 105293784.686 8  82046955.71646  20036699.281                    20036707.586
 11  8 23 16  9 30.0000000  0 11G23G03G07G19G10G11G28G06G16G08G13
 108512813.312 8  84555502.76746  20649308.914                    20649315.852
 112064119.464 7  87322734.54845  21325096.359                    21325106.289
 115333711.621 7  89870477.612 7  21947283.594                    21947293.223
 110124726.794 8  85811530.39046  20956043.914                    20956051.410
 126269633.406 6  98391955.83943  24028319.422                    24028332.051
 128276225.718 6  99955588.98542  24410162.641                    24410176.184
 128023803.498 6  99758799.20043  24362105.195                    24362116.727
 121736322.765 7  94859631.10544  23165682.391                    23165693.184
 124380311.633 6  96919856.68543  23668813.320                    23668823.238
 125162866.877 6  97529589.33943  23817706.555                    23817718.664
 105301612.723 8  82053055.46646  20038188.430                    20038197.367
 11  8 23 16 10  0.0000000  0 11G23G03G07G19G10G11G28G06G16G08G13
 108576170.481 8  84604871.95146  20661364.898                    20661372.371
 112122006.517 7  87367841.31845  21336112.063                    21336121.508
 115278836.797 7  89827718.042 7  21936840.727                    21936850.438
 110108863.146 8  85799169.11946  20953024.836                    20953032.531
 126294925.076 6  98411663.65143  24033131.711                    24033144.285
 128200178.853 6  99896331.76242  24395691.039                    24395705.023
 127956004.080 6  99705968.53343  24349203.742                    24349214.500
 121812805.028 7  94919227.63044  23180236.695                    23180246.809
 124469787.321 6  96989577.92943  23685839.891                    23685849.723
 125094756.244 6  97476516.15543  23804745.695                    23804757.648
 105310034.060 8  82059617.53646  20039791.383                    20039799.723
 11  8 23 16 10 30.0000000  0 11G23G03G07G19G10G11G28G06G16G08G13
 108640031.072 8  84654633.42046  20673516.844                    20673524.551
 112180427.845 7  87413364.41245  21347229.180                    21347238.328
 115224008.109 7  89784994.409 7  21926407.914                    21926416.848
 110093605.298 8  85787279.89346  20950121.469                    20950129.262
 126320615.783 6  98431682.35443  24038022.000                    24038033.367
 128124032.292 6  99836996.77942  24381200.914                    24381213.867
 127888427.936 6  99653311.83143  24336343.406                    24336355.023
 121889661.651 7  94979115.87044  23194861.969                    23194872.270
 124559236.331 6  97059278.38943  23702861.617                    23702871.559
 125026578.205 6  97423390.48543  23791771.664                    23791783.605
 105319048.926 8  82066642.09146  20041506.781                    20041515.328
 11  8 23 16 11  0.0000000  0 11G23G03G07G19G10G11G28G06G16G08G13
 108704393.542 8  84704785.95546  20685765.242                    20685772.422
 112239381.166 7  87459302.06045  21358447.828                    21358457.102
 115169226.458 8  89742307.434 7  21915983.344                    21915992.504
 110078954.480 8  85775863.68246  20947333.336                    20947340.938
 126346703.650 6  98452010.58243  24042985.875                    24042996.934
 128047788.434 6  99777586.03242  24366692.906                    24366705.273
 127821075.164 6  99600829.20943  24323527.680                    24323538.453
 121966889.871 7  95039293.65944  23209557.797                    23209568.504
 124648657.486 6  97128957.16843  23719878.320                    23719887.684
 124958333.539 6  97370212.89843  23778785.313                    23778796.918
 105328657.604 8  82074129.36646  20043335.008                    20043343.859
 11  8 23 16 11 30.0000000  0 11G23G03G07G19G10G11G28G06G16G08G13
 108769256.450 8  84755328.45246  20698108.031                    20698115.582
 112298864.142 7  87505652.42845  21369766.398                    21369776.117
 115114493.019 8  89699658.024 7  21905567.992                    21905577.355
 110064911.456 8  85764921.08146  20944661.398                    20944668.969
 126373186.614 6  98472646.66644  24048025.367                    24048036.434
 127971449.724 6  99718101.40043  24352165.531                    24352178.270
 127753946.181 6  99548520.94143  24310753.375                    24310764.273
 122044487.598 7  95099759.36644  23224324.289                    23224334.785
 124738049.278 6  97198613.04943  23736888.336                    23736898.129
 124890022.040 7  97316983.22344  23765787.273                    23765797.551
 105338860.449 8  82082079.62446  20045276.742                    20045285.359
 11  8 23 16 12  0.0000000  0 11G23G03G07G19G10G11G28G06G16G08G13
 108834617.743 8  84806259.28646  20710546.055                    20710553.566
 112358874.818 7  87552413.98945  21381186.273                    21381196.074
 115059808.622 8  89657046.845 7  21895161.500                    21895170.992
 110051476.804 8  85754452.54646  20942104.438                    20942112.055
 126400062.913 6  98493589.25443  24053140.148                    24053150.891
 127895018.752 6  99658544.87143  24337621.227                    24337633.891
 127687040.995 6  99496387.10543  24298021.031                    24298032.672
 122122452.343 7  95160511.07144  23239160.602                    23239171.090
 124827410.329 6  97268244.98543  23753893.016                    23753903.406
 124821644.150 7  97263701.82844  23752775.203                    23752785.453
 105349658.031 8  82090493.31046  20047331.500                    20047340.027
 11  8 23 16 12 30.0000000  0 11G23G03G07G19G10G11G28G06G16G08G13
 108900475.523 8  84857576.99446  20723078.602                    20723085.824
 112419410.715 7  87599584.79945  21392705.734                    21392715.484
 115005173.952 8  89614474.409 7  21884765.078                    21884774.527
 110038651.538 8  85744458.85146  20939664.125                    20939671.648
 126427330.334 6  98514836.60944  24058328.992                    24058340.223
 127818497.813 7  99598918.30443  24323060.125                    24323071.746
 127620359.831 6  99444427.81243  24285332.391                    24285343.602
 122200781.880 7  95221547.02044  23254066.609                    23254076.926
 124916739.089 6  97337851.76943  23770891.773                    23770901.762
 124753199.996 7  97210368.79244  23739750.609                    23739761.438
 105361050.306 8  82099370.39246  20049499.398                    20049507.852
 11  8 23 16 13  0.0000000  0 11G23G03G07G19G10G11G28G06G16G08G13
 108966828.101 8  84909280.26546  20735704.914                    20735712.203
 112480469.934 7  87647163.39745  21404325.320                    21404334.863
 114950590.107 7  89571941.583 7  21874378.281                    21874387.504
 110026436.384 8  85734940.56946  20937339.352                    20937346.801
 126454986.970 6  98536387.23044  24063591.359                    24063603.078
 127741889.729 7  99539223.77043  24308482.148                    24308493.633
 127553902.626 7  99392643.02043  24272686.242                    24272696.344
 122279473.862 7  95282865.37944  23269041.555                    23269051.379
 125006034.246 6  97407432.38043  23787884.578                    23787894.617
 124684690.154 7  97156984.57844  23726713.344                    23726724.227
 105373037.793 8  82108711.29446  20051780.477                    20051789.316
 11  8 23 16 13 30.0000000  0 11G23G03G07G19G10G11G28G06G16G08G13
 109033673.513 8  84961367.56746  20748425.336                    20748432.316
 112542049.849 7  87695147.72445  21416043.141                    21416052.867
 114896058.214 7  89529449.225 7  21864000.922                    21864010.090
 110014831.850 8  85725898.10146  20935131.227                    20935138.605
 126483030.420 6  98558239.27343  24068927.469                    24068940.234
 127665196.646 7  99479463.01743  24293887.148                    24293899.688
 127487669.923 6  99341033.17143  24260082.078                    24260093.098
 122358526.058 7  95344464.44444  23284084.328                    23284094.969
 125095294.364 6  97476985.64043  23804870.570                    23804880.660
 124616114.535 7  97103549.11044  23713664.336                    23713674.840
 105385620.477 8  82118515.96946  20054175.047                    20054183.801
 11  8 23 16 14  0.0000000  0 11G23G03G07G19G10G11G28G06G16G08G13
 109101010.488 8  85013837.89646  20761238.813                    20761246.293
 112604148.399 7  87743536.18545  21427860.664                    21427870.066
 114841579.618 7  89486998.396 7  21853634.117                    21853642.980
 110003839.483 8  85717332.65146  20933039.531                    20933046.875
 126511458.829 6  98580391.27143  24074337.508                    24074350.254
 127588421.498 6  99419638.31543  24279277.094                    24279289.758
 127421662.311 6  99289598.72843  24247521.109                    24247532.965
 122437935.415 7  95406341.81544  23299195.227                    23299206.301
 125184517.975 6  97546510.46443  23821848.805                    23821859.594
 124547473.670 7  97050062.79044  23700601.969                    23700613.348
 105398798.725 8  82128784.72646  20056682.555                    20056691.047
 11  8 23 16 14 30.0000000  0 11G23G03G07G19G10G11G28G06G16G08G13
 109168836.729 8  85066689.47646  20774145.977                    20774153.488
 112666763.887 7  87792327.45645  21439775.578                    21439785.316
 114787154.814 7  89444589.477 7  21843277.219                    21843286.305
 109993459.577 8  85709244.43646  20931064.602                    20931072.047
 126540270.075 6  98602841.60643  24079820.320                    24079832.543
 127511566.408 6  99359751.33143  24264652.172                    24264664.727
 127355879.371 6  99238339.30243  24235003.094                    24235014.461
 122517700.196 7  95468496.14044  23314373.539                    23314384.922
 125273703.836 6  97616005.89143  23838820.836                    23838830.258
 124478767.531 7  96996525.60644  23687526.930                    23687538.344
 105412572.614 8  82139517.61646  20059303.773                    20059312.086
 11  8 23 16 15  0.0000000  0 11G23G03G07G19G10G11G28G06G16G08G13
 109237150.136 8  85119920.66146  20787145.750                    20787153.176
 112729893.553 7  87841519.38445  21451788.977                    21451798.629
 114732784.372 7  89402222.923 7  21832930.945                    21832940.215
 109983692.271 8  85701633.57446  20929205.805                    20929212.965
 126569462.086 6  98625588.62444  24085375.414                    24085386.914
 127434633.950 6  99299804.03343  24250011.852                    24250025.133
 127290320.970 6  99187254.90343  24222527.852                    24222538.766
 122597817.813 7  95530925.40844  23329620.313                    23329630.578
 125362850.359 6  97685470.64643  23855784.633                    23855794.738
 124409996.336 7  96942937.72644  23674440.539                    23674451.676
 105426941.994 8  82150714.54146  20062038.117                    20062046.707
 11  8 23 16 15 30.0000000  0 11G23G03G07G19G10G11G28G06G16G08G13
 109305949.000 8  85173530.12546  20800237.586                    20800245.090
 112793535.182 7  87891110.24345  21463900.039                    21463909.434
 114678470.065 7  89359900.111 7  21822595.242                    21822604.281
 109974538.541 8  85694500.82146  20927463.438                    20927471.395
 126599033.018 6  98648630.90243  24091002.227                    24091014.195
 127357626.743 6  99239798.50743  24235357.508                    24235370.859
 127224987.426 6  99136345.71743  24210094.430                    24210105.570
 122678285.670 7  95593627.56844  23344932.227                    23344943.344
 125451956.461 6  97754903.92543  23872741.875                    23872751.293
 124341160.806 7  96889299.71544  23661341.164                    23661352.793
 105441907.291 8  82162375.80746  20064885.789                    20064894.066
 11  8 23 16 16  0.0000000  0 11G23G03G07G19G10G11G28G06G16G08G13
 109375231.525 8  85227516.46846  20813421.484                    20813429.141
 112857686.296 7  87941098.09845  21476107.477                    21476116.934
 114624212.530 7  89317621.539 7  21812270.469                    21812279.688
 109965999.244 8  85687846.83946  20925838.516                    20925846.023
 126628980.549 6  98671966.65943  24096700.227                    24096713.219
 127280547.331 6  99179736.68443  24220690.984                    24220703.672
 127159879.320 6  99085612.15443  24197705.750                    24197716.758
 122759101.572 6  95656600.92244  23360312.000                    23360322.094
 125541020.494 6  97824304.42443  23889689.180                    23889699.234
 124272260.836 7  96835611.50344  23648230.313                    23648241.242
 105457468.412 8  82174501.35446  20067847.344                    20067855.832
 11  8 23 16 16 30.0000000  0 11G23G03G07G19G10G11G28G06G16G08G13
 109444995.898 8  85281878.28346  20826697.195                    20826704.520
 112922345.134 7  87991481.58345  21488411.438                    21488420.867
 114570012.993 8  89275388.167 7  21801956.289                    21801965.551
 109958074.836 8  85681671.99946  20924330.633                    20924338.152
 126659302.425 6  98695594.11443  24102470.391                    24102482.418
 127203398.430 6  99119620.76343  24206010.023                    24206022.309
 127094996.260 6  99035054.00543  24185358.070                    24185370.254
 122840262.881 6  95719843.46544  23375756.055                    23375766.543
 125630041.458 6  97893671.31843  23906629.977                    23906639.598
 124203297.125 6  96781873.58643  23635106.063                    23635118.281
 105473625.644 8  82187091.40146  20070921.773                    20070930.543
 11  8 23 16 17  0.0000000  0 11G23G03G07G19G10G11G28G06G16G08G13
 109515240.366 8  85336614.19546  20840064.500                    20840071.734
 112987509.087 7  88042258.65245  21500811.977                    21500821.406
 114515872.568 8  89233200.849 7  21791653.773                    21791663.090
 109950765.810 8  85675976.66746  20922939.563                    20922947.316
 126689996.525 6  98719511.57543  24108311.664                    24108323.598
 127126182.633 6  99059452.66343  24191316.539                    24191328.789
 127030338.603 6  98984671.45243  24173054.672                    24173065.340
 122921767.389 6  95783353.44944  23391265.281                    23391275.949
 125719017.924 6  97963003.56143  23923560.891                    23923571.305
 124134269.845 6  96728086.16843  23621971.383                    23621981.902
 105490379.126 8  82200146.04846  20074109.992                    20074118.504
 11  8 23 16 17 30.0000000  0 11G23G03G07G19G10G11G28G06G16G08G13
 109585962.620 8  85391722.41446  20853522.469                    20853529.824
 113053175.599 7  88093427.33345  21513307.859                    21513317.738
 114461792.270 8  89191060.394 7  21781362.773                    21781371.773
 109944072.934 8  85670761.45246  20921666.172                    20921673.586
 126721060.558 6  98743717.31243  24114223.828                    24114235.148
 127048902.425 6  98999234.38243  24176610.766                    24176623.035
 126965906.325 6  98934464.53143  24160793.781                    24160804.453
 123003612.393 7  95847128.74944  23406840.578                    23406851.004
 125807948.780 6  98032300.25843  23940484.023                    23940494.117
 124065179.374 6  96674249.48243  23608823.406                    23608833.992
 105507728.752 8  82213665.23246  20077411.336                    20077419.961
 11  8 23 16 18  0.0000000  0 11G23G03G07G19G10G11G28G06G16G08G13
 109657160.607 8  85447201.33446  20867070.961                    20867078.766
 113119342.014 7  88144985.54745  21525898.875                    21525908.215
 114407772.881 8  89148967.396 7  21771083.422                    21771092.414
 109937996.363 8  85666026.47046  20920509.766                    20920517.516
 126752492.335 6  98768209.60243  24120205.289                    24120216.586
 126971560.031 7  98938967.60643  24161892.914                    24161904.309
 126901699.315 6  98884433.16343  24148575.023                    24148585.930
 123085795.734 6  95911167.68344  23422478.930                    23422489.832
 125896832.324 6  98101560.11043  23957398.273                    23957407.910
 123996025.720 6  96620363.60743  23595663.945                    23595674.336
 105525674.016 8  82227648.54846  20080825.969                    20080834.895
 11  8 23 16 18 30.0000000  0 11G23G03G07G19G10G11G28G06G16G08G13
 109728832.335 8  85503049.40446  20880709.680                    20880717.422
 113186006.626 7  88196931.97245  21538584.742                    21538594.652
 114353815.486 8  89106922.700 7  21760815.406                    21760824.469
 109932536.461 8  85661772.01146  20919470.992                    20919478.355
 126784289.779 6  98792986.81043  24126255.906                    24126267.086
 126894158.437 7  98878654.71743  24147163.633                    24147174.898
 126837717.920 6  98834577.56142  24136400.039                    24136410.605
 123168314.859 7  95975468.29044  23438182.141                    23438193.203
 125985667.107 6  98170781.97243  23974303.453                    23974312.563
 123926809.409 6  96566428.87343  23582491.852                    23582502.254
 105544215.375 8  82242096.34546  20084354.414                    20084363.543
 11  8 23 16 19  0.0000000  0 11G23G03G07G19G10G11G28G06G16G08G13
 109800975.981 8  85559265.19246  20894438.438                    20894446.203
 113253167.069 7  88249264.74945  21551364.703                    21551374.457
 114299921.446 8  89064927.379 7  21750559.617                    21750568.543
 109927693.933 8  85657998.63046  20918549.469                    20918556.730
 126816450.979 6  98818047.50343  24132375.836                    24132387.719
 126816700.178 7  98818297.65443  24132423.594                    24132434.625
 126773961.936 6  98784897.66243  24124267.461                    24124278.445
 123251167.098 6  96040028.43044  23453948.328                    23453959.563
 126074452.048 6  98239964.96843  23991198.797                    23991208.191
 123857530.961 7  96512445.73443  23569309.016                    23569319.434
 105563352.532 8  82257008.40546  20087996.227                    20088004.855
 11  8 23 16 19 30.0000000  0 11G23G03G07G19G10G11G28G06G16G08G13
 109873589.222 8  85615846.88446  20908256.117                    20908263.883
 113320820.219 7  88301981.46144  21564238.484                    21564249.020
 114246091.753 8  89022982.180 7  21740316.094                    21740325.371
 109923469.147 8  85654706.61546  20917745.422                    20917752.887
 126848973.169 6  98843389.50744  24138564.867                    24138575.488
 126739187.563 7  98757898.27943  24117673.086                    24117685.195
 126710431.725 6  98735393.67043  24112177.625                    24112188.703
 123334350.118 6  96104846.33944  23469777.609                    23469788.641
 126163185.940 6  98309108.22043  24008084.570                    24008094.410
 123788190.798 7  96458414.48343  23556113.984                    23556124.957
 105583085.333 8  82272384.60446  20091751.227                    20091759.965
 11  8 23 16 20  0.0000000  0 11G23G03G07G19G10G11G28G06G16G08G13
 109946670.601 8  85672793.36146  20922163.180                    20922170.719
 113388964.120 7  88355080.58545  21577206.664                    21577215.816
 114192327.491 7  88981087.988 7  21730085.102                    21730094.313
 109919862.599 8  85651896.33046  20917059.320                    20917066.938
 126881854.451 6  98869011.29443  24144821.219                    24144832.391
 126661623.849 6  98697459.06743  24102912.805                    24102925.273
 126647127.387 6  98686065.69643  24100131.766                    24100142.117
 123417861.575 6  96169920.20344  23485668.563                    23485679.828
 126251867.636 6  98378210.77243  24024959.930                    24024969.711
 123718789.303 7  96404335.46844  23542907.789                    23542918.293
 105603414.110 8  82288225.20346  20095619.680                    20095628.430
 11  8 23 16 20 30.0000000  0 11G23G03G07G19G10G11G28G06G16G08G13
 110020217.434 8  85730102.53046  20936158.469                    20936166.199
 113457596.581 7  88408560.38845  21590266.523                    21590276.410
 114138629.808 7  88939245.665 7  21719867.070                    21719876.168
 109916874.341 8  85649567.82846  20916490.422                    20916498.152
 126915092.212 6  98894910.84343  24151146.641                    24151157.688
 126584011.217 6  98636981.78543  24088143.703                    24088156.465
 126584048.534 6  98636913.39643  24088128.742                    24088138.855
 123501698.938 6  96235247.93644  23501622.664                    23501634.398
 126340495.784 6  98447271.59643  24041825.000                    24041834.848
 123649326.735 7  96350208.83144  23529689.461                    23529700.516
 105624338.108 8  82304529.59946  20099601.844                    20099610.109
 11  8 23 16 21  0.0000000  0 11G23G03G07G19G10G11G28G06G16G08G13
 110094227.837 8  85787772.93246  20950242.242                    20950250.133
 113526714.845 7  88462418.73145  21603419.289                    21603429.113
 114084999.650 7  88897455.960 7  21709661.219                    21709670.191
 109914504.826 8  85647721.45346  20916039.398                    20916047.109
 126948684.493 6  98921086.65943  24157538.031                    24157550.227
 126506352.437 6  98576468.49043  24073365.641                    24073378.980
 126521195.232 6  98587936.88443  24076166.984                    24076177.762
 123585859.556 6  96300827.61344  23517638.844                    23517649.020
 126429069.105 6  98516289.71843  24058680.148                    24058689.508
 123579803.409 7  96296034.87844  23516459.273                    23516470.684
 105645857.068 8  82321297.60746  20103696.492                    20103705.105
 11  8 23 16 21 30.0000000  0 11G23G03G07G19G10G11G28G06G16G08G13
 110168699.413 8  85845802.68946  20964413.867                    20964421.633
 113596316.596 7  88516653.82045  21616664.281                    21616674.035
 114031438.542 8  88855720.057 7  21699468.586                    21699478.258
 109912754.460 7  85646357.53846  20915706.438                    20915713.660
 126982629.231 6  98947537.09043  24163998.516                    24164009.742
 126428650.209 6  98515921.33443  24058580.055                    24058593.043
 126458567.722 6  98539136.33343  24064249.836                    24064260.254
 123670341.203 6  96366657.44043  23533714.195                    23533725.621
 126517586.675 6  98585264.40143  24075524.195                    24075534.305
 123510219.651 7  96241813.84044  23503218.133                    23503228.988
 105667971.305 8  82338529.47246  20107904.672                    20107913.352
 11  8 23 16 22  0.0000000  0 11G23G03G07G19G10G11G28G06G16G08G13
 110243630.596 8  85904190.58246  20978672.570                    20978680.418
 113666399.273 7  88571263.64145  21630000.703                    21630010.148
 113977947.421 8  88814038.701 7  21689290.180                    21689299.023
 109911623.673 8  85645476.40846  20915491.633                    20915498.484
 127016923.928 6  98974260.22443  24170524.172                    24170535.742
 126350906.950 6  98455342.22643  24043785.586                    24043797.758
 126396166.117 6  98490511.74743  24052374.852                    24052385.582
 123755141.421 6  96432735.48344  23549851.445                    23549862.539
 126606047.032 6  98654194.44843  24092357.156                    24092368.363
 123440576.399 7  96187546.44344  23489965.445                    23489976.230
 105690680.710 8  82356225.10046  20112226.430                    20112234.754
 11  8 23 16 22 30.0000000  0 11G23G03G07G19G10G11G28G06G16G08G13
 110319019.089 8  85962934.81446  20993018.633                    20993026.145
 113736960.396 7  88626246.28645  21643427.781                    21643437.891
 113924527.430 8  88772412.762 7  21679124.906                    21679133.602
 109911112.418 8  85645078.02646  20915393.961                    20915401.246
 127051565.969 6  99001254.03143  24177116.461                    24177128.590
 126273125.705 6  98394733.51643  24028984.852                    24028996.426
 126333990.150 6  98442063.03243  24040543.750                    24040554.215
 123840257.577 7  96499059.72644  23566048.719                    23566059.313
 126694449.058 6  98723079.05943  24109179.219                    24109190.953
 123370873.748 7  96133232.75044  23476701.234                    23476711.910
 105713984.666 8  82374384.00546  20116660.883                    20116669.340
 11  8 23 16 23  0.0000000  0 11G23G03G07G19G10G11G28G06G16G08G13
 110394862.727 8  86022033.70246  21007451.094                    21007458.992
 113807997.472 7  88681599.79845  21656945.531                    21656955.695
 113871179.499 8  88730842.971 7  21668972.781                    21668981.738
 109911220.898 8  85645162.55146  20915414.695                    20915422.008
 127086553.276 6  99028516.84243  24183774.211                    24183786.223
 126195308.877 7  98334097.00943  24014176.789                    24014187.773
 126272039.694 6  98393790.06243  24028754.563                    24028764.910
 123925687.028 6  96565628.10744  23582305.461                    23582316.406
 126782791.429 6  98791917.20343  24125991.406                    24126001.273
 123301112.169 7  96078873.15044  23463425.836                    23463436.594
 105737882.686 8  82393005.83246  20121208.500                    20121217.078
 11  8 23 16 23 30.0000000  0 11G23G03G07G19G10G11G28G06G16G08G13
 110471159.368 8  86081485.58346  21021970.484                    21021978.023
 113879507.979 7  88737322.22744  21670553.734                    21670563.602
 113817904.980 8  88689330.387 7  21658834.945                    21658843.883
 109911949.768 8  85645730.49546  20915553.234                    20915560.934
 127121883.622 6  99056046.96743  24190497.445                    24190510.184
 126117459.097 7  98273434.89943  23999362.641                    23999372.914
 126210314.868 6  98345692.85643  24017008.586                    24017019.648
 124011427.450 6  96632438.77744  23598621.211                    23598632.785
 126871072.952 6  98860707.90943  24142790.789                    24142801.000
 123231292.214 7  96024468.03944  23450139.352                    23450150.984
 105762374.603 8  82412090.43446  20125868.938                    20125877.602
 11  8 23 16 24  0.0000000  0 11G23G03G07G19G10G11G28G06G16G08G13
 110547906.422 8  86141288.43946  21036574.844                    21036582.488
 113951489.241 7  88793411.49145  21684251.281                    21684261.262
 113764704.786 8  88647875.734 7  21648710.992                    21648720.152
 109913298.165 8  85646781.19446  20915809.758                    20915817.398
 127157554.576 6  99083842.48143  24197285.328                    24197297.551
 126039579.138 7  98212749.24043  23984542.039                    23984552.953
 126148815.460 6  98297771.33143  24005305.742                    24005316.379
 124097476.131 7  96699489.67444  23614996.406                    23615006.770
 126959292.072 6  98929450.05443  24159578.008                    24159588.418
 123161413.846 6  95970017.42644  23436841.852                    23436853.520
 105787459.631 8  82431637.19346  20130642.414                    20130650.863
 11  8 23 16 24 30.0000000  0 11G23G03G07G19G10G11G28G06G16G08G13
 110625101.859 8  86201440.67146  21051264.609                    21051272.129
 114023938.759 7  88849865.64045  21698038.258                    21698047.672
 113711580.772 8  88606480.435 7  21638601.719                    21638610.844
 109915266.927 7  85648315.30346  20916184.586                    20916191.941
 127193563.683 6  99111901.54043  24204138.180                    24204149.594
 125961671.611 7  98152042.12243  23969716.773                    23969728.977
 126087541.605 6  98250025.54943  23993645.344                    23993655.895
 124183830.786 6  96766778.97344  23631428.523                    23631440.082
 127047448.457 6  98998143.25643  24176354.031                    24176363.637
 123091478.292 7  95915522.25744  23423533.797                    23423545.000
 105813138.021 8  82451646.32046  20135529.047                    20135537.594
 11  8 23 16 25  0.0000000  0 11G23G03G07G19G10G11G28G06G16G08G13
 110702743.846 8  86261940.86946  21066039.594                    21066046.645
 114096854.062 7  88906682.73244  21711913.594                    21711923.531
 113658533.812 7  88565145.166 7  21628506.953                    21628516.102
 109917856.172 7  85650332.91146  20916677.633                    20916684.797
 127229908.891 6  99140222.49143  24211053.156                    24211065.199
 125883739.405 7  98091315.79843  23954886.750                    23954898.941
 126026493.227 6  98202455.43843  23982029.039                    23982039.023
 124270489.022 6  96834304.82643  23647919.141                    23647930.781
 127135540.661 6  99066786.48643  24193117.125                    24193128.098
 123021485.961 7  95860982.83044  23410214.633                    23410225.492
 105839409.647 8  82472117.70546  20140528.398                    20140537.328
 11  8 23 16 25 30.0000000  0 11G23G03G07G19G10G11G28G06G16G08G13
 110780829.870 8  86322787.06646  21080898.641                    21080906.422
 114170232.699 7  88963860.87745  21725876.945                    21725886.789
 113605564.817 8  88523870.653 7  21618427.461                    21618436.586
 109921065.723 8  85652833.88746  20917287.945                    20917295.145
 127266587.600 6  99168803.26343  24218033.313                    24218045.070
 125805784.857 6  98030572.08843  23940051.633                    23940064.055
 125965670.173 6  98155060.90043  23970454.375                    23970464.984
 124357448.029 6  96902065.05143  23664466.469                    23664478.289
 127223567.440 6  99135378.72543  24209869.242                    24209878.219
 122951436.883 7  95806399.18244  23396885.883                    23396894.973
 105866273.281 8  82493050.39646  20145640.258                    20145648.770
 11  8 23 16 26  0.0000000  0 11G23G03G07G19G10G11G28G06G16G08G13
 110859357.732 8  86383977.54346  21095842.016                    21095849.762
 114244072.419 7  89021398.30745  21739928.242                    21739938.023
 113552675.215 8  88482658.005 7  21608363.172                    21608372.215
 109924895.752 8  85655818.34846  20918016.836                    20918024.230
 127303597.463 6  99197642.10143  24225076.141                    24225088.273
 125727811.044 6  97969813.32143  23925214.352                    23925226.523
 125905072.182 6  98107841.78143  23958922.117                    23958932.816
 124444705.387 6  96970057.73543  23681071.711                    23681082.637
 127311527.644 6  99203919.08443  24226607.000                    24226617.219
 122881331.869 7  95751771.94544  23383544.914                    23383554.004
 105893728.925 8  82514444.38546  20150865.102                    20150873.172
 11  8 23 16 26 30.0000000  0 11G23G03G07G19G10G11G28G06G16G08G13
 110938325.240 8  86445510.61946  21110869.344                    21110876.891
 114318369.860 7  89079292.38745  21754066.852                    21754076.875
 113499866.521 8  88441508.403 7  21598314.086                    21598323.090
 109929346.232 7  85659286.27846  20918863.766                    20918871.230
 127340935.999 6  99226737.05443  24232181.930                    24232193.520
 125649820.725 6  97909041.72743  23910373.305                    23910385.195
 125844699.649 6  98060798.31143  23947434.023                    23947444.629
 124532258.816 6  97038281.15044  23697732.297                    23697743.293
 127399420.357 6  99272406.86843  24243331.734                    24243342.492
 122811171.413 7  95697101.53244  23370193.102                    23370202.723
 105921776.133 8  82536299.34246  20156202.266                    20156210.875
 11  8 23 16 27  0.0000000  0 11G23G03G07G19G10G11G28G06G16G08G13
 111017730.184 8  86507384.54545  21125979.477                    21125987.090
 114393122.761 7  89137541.37745  21768291.422                    21768301.531
 113447139.774 8  88400422.650 7  21588280.297                    21588289.656
 109934417.285 8  85663237.76646  20919828.625                    20919836.305
 127378600.932 6  99256086.36843  24239349.227                    24239360.332
 125571816.527 6  97848259.28543  23895528.977                    23895540.945
 125784551.981 6  98013930.07943  23935988.102                    23935998.969
 124620105.628 6  97106733.17544  23714450.008                    23714459.633
 127487244.339 6  99340841.06743  24260044.523                    24260055.008
 122740956.155 7  95642388.40543  23356831.211                    23356841.184
 105950414.253 8  82558614.75246  20161651.805                    20161660.508
 11  8 23 16 27 30.0000000  0 11G23G03G07G19G10G11G28G06G16G08G13
 111097570.157 8  86569597.47045  21141172.477                    21141180.426
 114468328.467 7  89196143.20445  21782603.063                    21782612.590
 113394496.129 8  88359401.652 7  21578262.734                    21578272.012
 109940108.632 8  85667672.60346  20920911.813                    20920919.504
 127416590.140 6  99285688.35243  24246577.789                    24246589.727
 125493801.200 7  97787468.18044  23880683.813                    23880695.957
 125724629.128 6  97967237.00243  23924585.203                    23924596.262
 124708243.120 6  97175411.70043  23731221.477                    23731232.645
 127574998.606 6  99409220.95143  24276743.656                    24276754.141
 122670686.450 7  95587632.85143  23343459.445                    23343469.629
 105979642.561 8  82581390.04846  20167213.766                    20167222.285
 11  8 23 16 28  0.0000000  0 11G23G03G07G19G10G11G28G06G16G08G13
 111177842.968 8  86632147.65446  21156447.961                    21156456.043
 114543984.025 7  89255095.57345  21796999.695                    21797009.688
 113341936.831 8  88318446.393 7  21568260.641                    21568269.867
 109946420.342 8  85672590.84246  20922112.906                    20922120.043
 127454900.987 6  99315540.93043  24253868.992                    24253880.230
 125415777.461 6  97726670.50643  23865835.625                    23865848.676
 125664930.957 6  97920719.03843  23913224.367                    23913236.113
 124796668.920 6  97244314.87243  23748047.977                    23748058.836
 127662681.910 6  99477545.50943  24293429.289                    24293439.930
 122600362.832 7  95532835.30344  23330076.750                    23330088.336
 106009460.645 8  82604624.90446  20172888.047                    20172896.680
 11  8 23 16 28 30.0000000  0 11G23G03G07G19G10G11G28G06G16G08G13
 111258545.762 8  86695032.89746  21171805.461                    21171812.734
 114620087.248 7  89314396.76045  21811481.461                    21811491.293
 113289462.704 8  88277557.488 7  21558275.000                    21558284.418
 109953352.085 8  85677992.21846  20923431.727                    20923439.098
 127493530.871 6  99345642.13343  24261219.758                    24261231.473
 125337747.858 6  97665868.28143  23850987.367                    23851000.000
 125605457.486 6  97874376.12643  23901907.445                    23901917.883
 124885380.294 6  97313440.59743  23764929.680                    23764940.168
 127750293.192 6  99545813.99743  24310101.320                    24310112.016
 122529985.651 7  95477996.00444  23316685.148                    23316696.352
 106039867.819 8  82628318.78846  20178674.383                    20178682.672
 11  8 23 16 29  0.0000000  0 11G23G03G07G19G10G11G28G06G16G08G13
 111339676.694 8  86758251.74946  21187244.211                    21187251.734
 114696635.757 7  89374044.95045  21826048.172                    21826058.000
 113237075.845 8  88236736.587 7  21548306.133                    21548315.438
 109960903.676 8  85683876.58946  20924869.094                    20924875.863
 127532477.172 6  99375989.88943  24268631.344                    24268642.469
 125259715.457 6  97605063.91143  23836137.727                    23836150.301
 125546208.542 6  97828208.17243  23890632.852                    23890643.422
 124974374.962 6  97382787.04443  23781864.133                    23781875.234
 127837831.547 6  99614025.63043  24326760.172                    24326769.359
 122459555.935 7  95423115.77344  23303282.961                    23303293.961
 106070863.751 8  82652471.45346  20184572.469                    20184581.367
 11  8 23 16 29 30.0000000  0 11G23G03G07G19G10G11G28G06G16G08G13
 111421233.580 8  86821802.50945  21202763.547                    21202771.938
 114773626.412 7  89434037.65045  21840698.969                    21840709.039
 113184777.563 8  88195984.708 7  21538354.359                    21538363.152
 109969075.295 8  85690244.10746  20926423.836                    20926431.211
 127571737.867 6  99406582.61743  24276102.047                    24276113.402
 125181682.897 7  97544259.37943  23821289.188                    23821300.977
 125487184.209 6  97782215.24343  23879400.555                    23879411.250
 125063650.268 6  97452352.18743  23798853.367                    23798864.004
 127925295.925 6  99682179.64043  24343403.367                    24343413.922
 122389074.394 7  95368195.16844  23289869.867                    23289881.488
 106102447.844 8  82677082.42946  20190582.406                    20190591.563
 11  8 23 16 30  0.0000000  0 11G23G03G07G19G10G11G28G06G16G08G13
 111503213.676 8  86885683.04845  21218364.219                    21218372.195
 114851056.954 7  89494373.10745  21855433.242                    21855443.852
 113132568.744 8  88155302.546 7  21528419.289                    21528428.188
 109977866.642 8  85697094.52246  20928096.547                    20928103.789
 127611310.219 6  99437418.17943  24283631.719                    24283644.195
 125103653.059 6  97483456.94243  23806440.906                    23806452.531
 125428383.927 6  97736396.91743  23868211.219                    23868221.926
 125153203.832 6  97522134.11643  23815893.961                    23815905.465
 128012685.337 6  99750275.21743  24360032.734                    24360043.023
 122318541.367 7  95313234.42344  23276447.430                    23276458.637
 106134619.180 8  82702150.98746  20196704.563                    20196713.375
 11  8 23 16 30 30.0000000  0 11G23G03G07G19G10G11G28G06G16G08G13
 111585614.842 8  86949891.69646  21234044.727                    21234052.086
 114928924.164 7  89555048.81645  21870251.500                    21870261.422
 113080450.567 8  88114691.009 7  21518501.797                    21518510.203
 109987277.258 8  85704427.47546  20929887.609                    20929894.980
 127651191.806 6  99468494.72043  24291221.266                    24291233.309
 125025628.568 6  97422658.72543  23791592.664                    23791604.898
 125369807.993 7  97690753.39843  23857064.438                    23857075.199
 125243033.027 6  97592130.83843  23832988.313                    23832999.383
 128099998.561 6  99818311.43543  24376648.164                    24376658.641
 122247957.207 6  95258233.84544  23263016.375                    23263026.590
 106167377.144 8  82727676.66046  20202938.398                    20202947.238
 11  8 23 16 31  0.0000000  0 11G23G03G07G19G10G11G28G06G16G08G13
 111668434.455 8  87014426.40545  21249804.680                    21249812.418
 115007225.504 7  89616062.81745  21885151.195                    21885161.598
 113028424.506 7  88074151.254 7  21508601.148                    21508610.281
 109997307.034 8  85712242.89946  20931796.195                    20931803.281
 127691380.225 6  99499810.33843  24298868.461                    24298880.766
 124947612.407 6  97361866.98343  23776747.008                    23776759.391
 125311455.696 6  97645284.13943  23845960.594                    23845971.324
 125333135.239 6  97662340.35043  23850134.438                    23850145.500
 128187234.610 6  99886287.54143  24393248.859                    24393258.859
 122177322.725 7  95203194.04644  23249575.047                    23249584.855
 106200720.843 8  82753658.74946  20209283.828                    20209292.324
 11  8 23 16 31 30.0000000  0 11G23G03G07G19G10G11G28G06G16G08G13
 111751670.184 8  87079285.36046  21265643.914                    21265651.684
 115085958.277 7  89677412.99245  21900133.891                    21900144.195
 112976492.201 8  88033684.554 7  21498718.820                    21498727.730
 110007955.819 8  85720540.66246  20933822.203                    20933829.684
 127731873.152 6  99531363.24543  24306573.906                    24306586.797
 124869607.180 7  97301083.76644  23761903.438                    23761915.109
 125253326.830 6  97599988.99043  23834898.656                    23834909.273
 125423508.054 6  97732760.65743  23867331.547                    23867342.762
 128274392.631 6  99954202.80743  24409835.195                    24409844.254
 122106638.619 7  95148115.59044  23236124.344                    23236134.262
 106234649.711 8  82780096.81046  20215739.711                    20215748.594
 11  8 23 16 32  0.0000000  0 11G23G03G07G19G10G11G28G06G16G08G13
 111835319.979 8  87144466.96646  21281561.984                    21281569.922
 115165120.005 7  89739097.42144  21915197.992                    21915207.824
 112924654.737 8  87993291.756 7  21488854.406                    21488863.695
 110019222.951 8  85729320.25946  20935966.453                    20935973.566
 127772667.778 6  99563151.20143  24314338.227                    24314349.590
 124791615.679 6  97240311.21943  23747061.656                    23747073.527
 125195421.370 6  97554867.91144  23823879.586                    23823889.684
 125514148.742 6  97803389.71543  23884580.570                    23884591.664
 128361471.606 6 100022056.49843  24426405.820                    24426415.113
 122035905.686 7  95092999.09044  23222664.023                    23222674.711
 106269162.898 8  82806990.18146  20222307.508                    20222316.391
 11  8 23 16 32 30.0000000  0 11G23G03G07G19G10G11G28G06G16G08G13
 111919381.016 8  87209969.01945  21297558.453                    21297566.605
 115244708.271 7  89801114.22445  21930343.289                    21930352.797
 112872913.260 8  87952973.751 7  21479008.531                    21479017.336
 110031108.409 8  85738581.66946  20938228.453                    20938235.578
 127813761.609 6  99595172.35743  24322157.656                    24322169.453
 124713640.783 7  97179551.59343  23732223.602                    23732234.828
 125137739.097 6  97509920.75343  23812903.773                    23812914.309
 125605054.843 6  97874225.57143  23901879.102                    23901890.492
 128448470.333 6 100089847.69243  24442960.391                    24442971.086
 121965124.352 7  95037844.84344  23209194.883                    23209204.820
 106304259.573 8  82834338.22246  20228986.328                    20228994.918
 11  8 23 16 33  0.0000000  0 11G23G03G07G19G10G11G28G06G16G08G13
 112003850.794 8  87275789.56545  21313632.445                    21313640.395
 115324719.529 7  89863460.65044  21945568.656                    21945578.477
 112821269.037 8  87912731.530 7  21469181.039                    21469189.535
 110043611.349 8  85748324.23146  20940607.578                    20940614.758
 127855151.983 6  99627424.60843  24330033.797                    24330045.680
 124635685.179 6  97118807.03543  23717388.313                    23717400.059
 125080279.661 6  97465147.25643  23801968.406                    23801979.922
 125696223.478 6  97945266.04343  23919229.055                    23919238.977
 128535387.905 6 100157575.61643  24459499.859                    24459510.379
 121894295.234 7  94982653.39144  23195716.836                    23195726.258
 106339938.338 8  82862139.83146  20235775.859                    20235784.473
 11  8 23 16 33 30.0000000  0 11G23G03G07G19G10G11G28G06G16G08G13
 112088727.109 8  87341926.90445  21329784.148                    21329791.941
 115405151.907 7  89926135.19644  21960874.336                    21960884.590
 112769724.009 7  87872566.603 7  21459371.922                    21459380.980
 110056731.640 8  85758547.85146  20943104.109                    20943111.285
 127896836.989 6  99659906.37843  24337965.547                    24337978.313
 124557751.907 6  97058079.85443  23702558.953                    23702569.125
 125023042.901 6  97420547.24843  23791077.281                    23791086.945
 125787652.733 6  98016509.59043  23936625.180                    23936637.324
 128622223.655 6 100225239.67843  24476024.875                    24476035.289
 121823419.128 7  94927425.31444  23182229.656                    23182239.270
 106376199.512 8  82890395.27546  20242676.391                    20242684.938
 11  8 23 16 34  0.0000000  0 11G23G03G07G19G10G11G28G06G16G08G13
 112174007.351 8  87408378.99245  21346012.133                    21346020.316
 115486002.504 7  89989135.63045  21976259.578                    21976269.320
 112718279.148 8  87832479.727 7  21449582.289                    21449591.398
 110070468.975 8  85769252.26946  20945718.305                    20945725.680
 127938813.573 6  99692615.35443  24345953.758                    24345966.070
 124479843.771 6  96997372.24843  23687732.906                    23687744.480
 124966028.867 6  97376120.79743  23780227.383                    23780237.332
 125879339.669 6  98087953.88143  23954073.992                    23954085.293
 128708976.474 5 100292839.26943  24492533.094                    24492543.355
 121752496.684 7  94872161.14044  23168733.008                    23168743.375
 106413041.935 8  82919103.63646  20249687.055                    20249695.824
 11  8 23 16 34 30.0000000  0 11G23G03G07G19G10G11G28G06G16G08G13
 112259688.571 8  87475143.52145  21362316.469                    21362324.543
 115567268.088 7  90052459.41144  21991724.055                    21991734.395
 112666935.714 8  87792471.882 7  21439812.258                    21439821.246
 110084823.073 8  85780437.28346  20948450.031                    20948457.063
 127981079.408 6  99725549.74443  24353997.789                    24354009.332
 124401963.774 6  96936686.58743  23672913.141                    23672924.027
 124909236.928 6  97331867.40743  23769420.133                    23769431.090
 125971281.774 6  98159597.03343  23971569.711                    23971580.961
 128795645.535 6 100360373.53542  24509025.398                    24509036.309
 121681528.553 7  94816861.38044  23155229.008                    23155238.867
 106450464.338 8  82948263.93046  20256808.336                    20256816.906
 11  8 23 16 35  0.0000000  0 11G23G03G07G19G10G11G28G06G16G08G13
 112345769.044 8  87542219.14045  21378697.711                    21378705.375
 115648946.351 7  90116104.76345  22007267.289                    22007277.367
 112615695.225 8  87752544.256 7  21430061.367                    21430070.594
 110099792.914 8  85792102.09046  20951298.523                    20951305.910
 128023631.819 6  99758707.43943  24362095.188                    24362106.617
 124324114.609 6  96876024.93443  23658099.203                    23658109.531
 124852666.608 6  97287786.70143  23758655.195                    23758666.059
 126063476.345 6  98231436.90543  23989114.211                    23989125.484
 128882229.747 6 100427841.63243  24525501.914                    24525512.781
 121610514.997 7  94761526.18444  23141714.578                    23141725.293
 106488465.567 8  82977875.25046  20264039.758                    20264048.496
 11  8 23 16 35 30.0000000  0 11G23G03G07G19G10G11G28G06G16G08G13
 112432246.290 8  87609603.94345  21395154.109                    21395161.582
 115731034.489 7  90180069.49945  22022888.656                    22022898.008
 112564559.484 8  87712698.252 7  21420330.531                    21420339.414
 110115378.541 8  85804246.72846  20954264.438                    20954271.852
 128066468.474 6  99792086.57343  24370246.750                    24370258.746
 124246298.772 6  96815389.30643  23643290.828                    23643301.672
 124796318.102 6  97243878.83043  23747931.320                    23747943.230
 126155921.115 6  98303471.80843  24006705.852                    24006716.555
 128968728.365 6 100495243.05543  24541963.094                    24541973.078
 121539457.547 7  94706156.80744  23128192.891                    23128203.293
 106527045.178 8  83007937.26246  20271381.094                    20271390.176
 11  8 23 16 36  0.0000000  0 11G23G03G07G19G10G11G28G06G16G08G13
 112519117.458 8  87677295.69945  21411684.992                    21411692.906
 115813529.423 7  90244351.23545  22038586.281                    22038596.469
 112513529.462 8  87672934.625 7  21410619.773                    21410628.520
 110131579.162 8  85816870.59446  20957347.109                    20957354.383
 128109586.479 6  99825684.97744  24378451.930                    24378464.152
 124168519.345 6  96754782.02643  23628489.859                    23628500.551
 124740191.074 7  97200143.55843  23737251.539                    23737262.000
 126248613.491 6  98375699.54743  24024345.422                    24024355.625
 129055140.535 6 100562577.14342  24558405.766                    24558416.395
 121468356.693 7  94650753.60644  23114662.773                    23114673.668
 106566202.069 8  83038449.10146  20278832.547                    20278841.066
 11  8 23 16 36 30.0000000  0 11G23G03G07G19G10G11G28G06G16G08G13
 112606379.796 7  87745292.26846  21428290.148                    21428298.535
 115896428.471 7  90308947.86044  22054361.094                    22054371.703
 112462606.514 8  87633254.427 7  21400929.336                    21400938.008
 110148394.023 8  85829973.08646  20960546.570                    20960553.672
 128152983.517 6  99859500.79943  24386709.617                    24386722.262
 124090779.253 6  96694205.40743  23613696.336                    23613707.645
 124684285.161 6  97156580.53143  23726612.945                    23726623.281
 126341550.757 6  98448118.13843  24042029.805                    24042041.422
 129141464.999 6 100629842.90243  24574833.773                    24574843.789
 121397212.947 7  94595316.96944  23101124.906                    23101135.078
 106605935.149 8  83069409.92146  20286393.438                    20286402.254
 11  8 23 16 37  0.0000000  0 11G23G03G07G19G10G11G28G06G16G08G13
 112694031.212 7  87813592.01745  21444970.094                    21444978.039
 115979728.728 7  90373857.10944  22070213.344                    22070223.367
 112411792.315 8  87593658.972 7  21391259.750                    21391269.020
 110165822.695 8  85843553.87646  20963863.406                    20963870.789
 128196656.725 6  99893531.82443  24395021.000                    24395031.992
 124013081.512 6  96633661.79143  23598911.438                    23598922.695
 124628600.034 6  97113189.61343  23716016.469                    23716027.086
 126434730.502 6  98520725.69543  24059762.445                    24059773.074
 129227701.011 6 100697039.71143  24591244.031                    24591254.066
 121326027.129 7  94539847.54544  23087578.563                    23087589.664
 106646243.519 8  83100819.01946  20294064.125                    20294072.531
 11  8 23 16 37 30.0000000  0 11G23G03G07G19G10G11G28G06G16G08G13
 112782069.174 8  87882192.98946  21461722.914                    21461731.281
 116063427.621 7  90439076.98644  22086140.453                    22086150.680
 112361088.075 8  87554149.202 7  21381611.000                    21381620.000
 110183864.418 8  85857612.37146  20967296.391                    20967304.195
 128240603.614 6  99927776.11343  24403383.414                    24403395.598
 123935428.825 6  96573153.29044  23584134.156                    23584146.438
 124573135.376 7  97069970.46943  23705461.969                    23705472.527
 126528150.072 6  98593520.11743  24077538.961                    24077550.504
 129313847.792 6 100764167.00043  24607636.883                    24607647.781
 121254799.864 7  94484345.83944  23074023.977                    23074035.277
 106687126.057 8  83132675.51446  20301843.641                    20301852.375
 11  8 23 16 38  0.0000000  0 11G23G03G07G19G10G11G28G06G16G08G13
 112870490.495 7  87951092.65945  21478548.961                    21478557.125
 116147522.464 7  90504605.38645  22102143.133                    22102153.219
 112310495.381 8  87514726.355 7  21371983.813                    21371992.539
 110202518.582 8  85872148.08146  20970846.313                    20970853.801
 128284821.543 6  99962231.61543  24411797.813                    24411809.898
 123857824.052 7  96512682.09544  23569366.219                    23569378.969
 124517890.935 7  97026922.89843  23694950.094                    23694959.883
 126621806.874 6  98666499.40843  24095361.031                    24095372.547
 129399904.646 6 100831224.21442  24624012.938                    24624023.563
 121183532.321 7  94428812.75144  23060462.703                    23060473.082
 106728581.369 8  83164978.32746  20309732.367                    20309740.719
 11  8 23 16 38 30.0000000  0 11G23G03G07G19G10G11G28G06G16G08G13
 112959292.969 8  88020289.33545  21495448.086                    21495455.945
 116232010.606 7  90570440.26344  22118221.211                    22118231.445
 112260015.733 8  87475391.600 7  21362377.430                    21362386.137
 110221784.727 8  85887160.67646  20974512.742                    20974519.914
 128329307.812 6  99996896.20143  24420263.508                    24420274.980
 123780270.152 7  96452250.55144  23554608.523                    23554621.004
 124462866.208 7  96984046.53243  23684478.578                    23684488.719
 126715698.414 6  98739661.51743  24113228.813                    24113239.082
 129485870.555 6 100898210.59743  24640372.352                    24640381.477
 121112225.446 7  94373249.00344  23046892.930                    23046902.820
 106770608.567 8  83197726.78046  20317729.820                    20317738.523
 11  8 23 16 39  0.0000000  0 11G23G03G07G19G10G11G28G06G16G08G13
 113048474.493 8  88089781.35645  21512418.469                    21512426.148
 116316888.967 7  90636579.21845  22134373.156                    22134383.133
 112209650.415 8  87436145.930 7  21352793.484                    21352802.188
 110241662.223 8  85902649.65146  20978295.070                    20978302.688
 128374060.190 6 100031768.13643  24428779.211                    24428791.730
 123702770.138 7  96391860.97944  23539860.391                    23539872.332
 124408060.942 7  96941341.19443  23674049.492                    23674059.680
 126809822.191 6  98813004.67343  24131139.352                    24131149.848
 129571744.602 6 100965125.36043  24656712.773                    24656723.172
 121040879.666 7  94317654.95744  23033316.203                    23033327.086
 106813206.877 8  83230920.24146  20325836.055                    20325844.359
 11  8 23 16 39 30.0000000  0 11G23G03G07G19G10G11G28G06G16G08G13
 113138031.768 8  88159566.16345  21529460.859                    21529468.320
 116402154.927 7  90703020.18345  22150598.281                    22150608.777
 112159400.959 8  87396990.552 7  21343231.102                    21343240.023
 110262149.798 8  85918614.02346  20982194.016                    20982201.105
 128419075.574 6 100066845.02443  24437345.344                    24437357.316
 123625326.565 7  96331515.42843  23525123.203                    23525135.344
 124353475.028 7  96898806.77043  23663662.102                    23663672.121
 126904175.617 6  98886526.78143  24149093.633                    24149104.938
 129657526.116 6 101031967.96543  24673036.906                    24673047.641
 120969495.793 7  94262031.19644  23019732.750                    23019742.887
 106856374.667 8  83264557.45846  20334050.656                    20334059.297
 11  8 23 16 40  0.0000000  0 11G23G03G07G19G10G11G28G06G16G08G13
 113227962.633 8  88229642.07145  21546573.969                    21546582.242
 116487805.241 7  90769760.66745  22166896.797                    22166907.652
 112109268.958 8  87357926.669 7  21333691.570                    21333700.086
 110283246.865 8  85935053.31346  20986208.664                    20986215.934
 128464351.873 5 100102125.19343  24445961.523                    24445973.820
 123547942.557 7  96271216.24344  23510397.836                    23510409.547
 124299107.911 7  96856442.83443  23653316.031                    23653326.336
 126998756.207 6  98960225.91043  24167092.805                    24167103.410
 129743214.277 6 101098737.85843  24689342.648                    24689353.895
 120898074.730 7  94206378.47044  23006141.258                    23006151.910
 106900111.105 8  83298637.79146  20342373.117                    20342382.078
 11  8 23 16 40 30.0000000  0 11G23G03G07G19G10G11G28G06G16G08G13
 113318264.307 8  88300006.93845  21563758.000                    21563765.934
 116573837.428 7  90836798.69444  22183268.461                    22183278.684
 112059255.893 8  87318955.463 7  21324174.078                    21324182.891
 110304952.892 8  85951967.11946  20990339.227                    20990345.809
 128509886.029 6 100137606.29043  24454625.359                    24454638.504
 123470620.992 7  96210965.75444  23495684.313                    23495694.723
 124244959.186 7  96814249.07743  23643012.180                    23643021.387
 127093561.283 6  99034099.93943  24185133.586                    24185143.914
 129828808.359 6 101165434.47843  24705630.961                    24705641.766
 120826617.039 7  94150697.20144  22992543.766                    22992552.883
 106944414.653 8  83333160.01646  20350804.242                    20350813.066
 11  8 23 16 41  0.0000000  0 11G23G03G07G19G10G11G28G06G16G08G13
 113408933.975 8  88370658.56745  21581011.461                    21581019.980
 116660248.678 7  90904132.09844  22199711.977                    22199722.012
 112009363.104 8  87280077.971 7  21314679.992                    21314688.637
 110327266.894 8  85969354.67246  20994585.313                    20994592.461
 128555675.771 6 100173286.55143  24463339.570                    24463351.680
 123393364.797 7  96150766.19044  23480982.719                    23480993.406
 124191028.421 7  96772225.14744  23632749.000                    23632759.148
 127188588.304 6  99108146.88543  24203216.359                    24203227.813
 129914307.321 6 101232056.94242  24721900.906                    24721911.391
 120755123.917 7  94094988.32144  22978938.797                    22978948.148
 106989284.332 8  83368123.37446  20359342.867                    20359351.113
 11  8 23 16 41 30.0000000  0 11G23G03G07G19G10G11G28G06G16G08G13
 113499969.100 8  88441594.97245  21598335.203                    21598343.223
 116747036.230 7  90971758.73644  22216226.914                    22216237.098
 111959592.241 8  87241295.504 7  21305208.992                    21305218.004
 110350188.325 8  85987215.54746  20998947.164                    20998954.402
 128601718.181 6 100209163.69443  24472101.219                    24472113.262
 123316176.937 6  96090619.88443  23466293.711                    23466305.148
 124137315.505 7  96730370.97943  23622528.141                    23622538.207
 127283834.917 6  99182365.01743  24221341.383                    24221352.695
 129999710.645 6 101298604.86843  24738152.219                    24738163.277
 120683595.891 7  94039252.24044  22965327.664                    22965337.371
 107034718.838 8  83403526.86846  20367988.430                    20367996.980
 11  8 23 16 42  0.0000000  0 11G23G03G07G19G10G11G28G06G16G08G13
 113591367.043 8  88512814.09245  21615727.648                    21615735.695
 116834196.482 7  91039675.77544  22232813.438                    22232823.586
 111909944.468 8  87202608.944 7  21295761.320                    21295770.336
 110373715.829 8  86005548.67746  21003423.781                    21003431.539
 128648010.546 6 100245235.63243  24480910.750                    24480922.387
 123239060.380 6  96030529.10344  23451619.484                    23451629.418
 124083819.763 7  96688686.06144  23612347.617                    23612358.723
 127379298.222 6  99256751.96943  24239507.914                    24239518.195
 130085017.434 6 101365077.57443  24754385.773                    24754396.855
 120612033.973 7  93983489.74444  22951709.563                    22951719.672
 107080716.472 8  83439369.16046  20376741.953                    20376750.398
 11  8 23 16 42 30.0000000  0 11G23G03G07G19G10G11G28G06G16G08G13
 113683125.522 8  88584314.12045  21633188.914                    21633197.199
 116921727.525 7  91107881.76844  22249469.977                    22249480.133
 111860421.882 8  87164019.942 7  21286337.367                    21286346.063
 110397848.927 8  86024353.69946  21008016.477                    21008023.742
 128694550.499 6 100281500.49843  24489766.711                    24489778.355
 123162017.869 7  95970496.03043  23436958.453                    23436968.672
 124030540.927 7  96647170.13944  23602209.422                    23602219.723
 127474975.938 6  99331305.94242  24257712.984                    24257725.691
 130170226.911 6 101431474.51943  24770601.625                    24770612.078
 120540439.484 7  93927701.86644  22938085.797                    22938095.645
 107127276.507 8  83475649.68746  20385601.641                    20385610.281
 11  8 23 16 43  0.0000000  0 11G23G03G07G19G10G11G28G06G16G08G13
 113775241.657 8  88656092.84045  21650718.219                    21650726.250
 117009626.137 7  91176374.14544  22266196.195                    22266206.668
 111811025.644 8  87125529.394 7  21276937.602                    21276946.215
 110422586.206 7  86043629.51046  21012723.672                    21012731.258
 128741335.129 6 100317955.99643  24498670.367                    24498681.641
 123085051.981 6  95910522.67143  23422312.117                    23422322.883
 123977478.501 7  96605822.84844  23592112.203                    23592122.070
 127570865.426 6  99406024.93342  24275961.398                    24275973.109
 130255338.511 6 101497795.17543  24786797.414                    24786808.457
 120468812.843 7  93871888.92744  22924455.633                    22924465.844
 107174397.392 8  83512367.23846  20394568.273                    20394576.973
 11  8 23 16 43 30.0000000  0 11G23G03G07G19G10G11G28G06G16G08G13
 113867712.526 8  88728147.98345  21668314.727                    21668322.293
 117097889.219 7  91245150.54144  22282992.203                    22283002.344
 111761757.091 8  87087138.336 7  21267562.164                    21267570.668
 110447926.830 8  86063375.45346  21017545.898                    21017553.230
 128788361.774 6 100354600.07843  24507618.820                    24507630.547
 123008166.345 7  95850611.83843  23407681.445                    23407692.457
 123924632.195 7  96564643.96944  23582055.641                    23582066.313
 127666963.917 6  99480906.79343  24294248.211                    24294259.605
 130340351.228 6 101564038.76243  24802975.289                    24802985.570
 120397154.762 7  93816051.50644  22910819.703                    22910829.602
 107222077.617 8  83549520.63146  20403641.805                    20403650.652
 11  8 23 16 44  0.0000000  0 11G23G03G07G19G10G11G28G06G16G08G13
 113960535.656 8  88800477.60545  21685978.523                    21685986.371
 117186514.288 7  91314208.98944  22299856.984                    22299867.531
 111712618.152 8  87048848.283 7  21258210.961                    21258219.527
 110473870.195 8  86083591.07246  21022482.711                    21022490.109
 128835628.037 6 100391430.87143  24516612.992                    24516625.340
 122931363.788 6  95790765.77643  23393065.547                    23393078.414
 123872001.611 7  96523633.17644  23572040.086                    23572050.410
 127763269.046 6  99555949.68442  24312574.641                    24312586.074
 130425264.294 6 101630204.72443  24819133.570                    24819144.133
 120325466.273 7  93760190.37544  22897177.727                    22897188.441
 107270316.119 8  83587109.04246  20412821.281                    20412830.098
 11  8 23 16 44 30.0000000  0 11G23G03G07G19G10G11G28G06G16G08G13
 114053708.072 8  88873079.41345  21703708.516                    21703716.789
 117275498.439 7  91383547.24644  22316790.516                    22316800.371
 111663610.042 8  87010660.164 7  21248885.391                    21248893.813
 110500414.453 8  86104274.90246  21027533.867                    21027541.094
 128883131.011 6 100428446.11943  24525653.211                    24525664.199
 122854646.843 7  95730986.39344  23378466.883                    23378479.316
 123819585.910 7  96482789.84544  23562066.266                    23562075.957
 127859778.167 5  99631151.51642  24330940.195                    24330950.797
 130510077.016 6 101696292.46843  24835272.625                    24835283.645
 120253748.472 7  93704306.41544  22883530.242                    22883540.742
 107319111.225 8  83625131.17246  20422106.773                    20422115.684
 11  8 23 16 45  0.0000000  0 11G23G03G07G19G10G11G28G06G16G08G13
 114147227.403 7  88945951.54745  21721504.477                    21721512.949
 117364838.877 7  91453163.13544  22333791.078                    22333801.727
 111614734.802 8  86972575.590 7  21239584.977                    21239593.094
 110527559.691 7  86125427.04246  21032699.430                    21032706.965
 128930868.161 6 100465643.85243  24534736.758                    24534748.781
 122778018.922 7  95671276.42843  23363885.555                    23363897.297
 123767384.959 7  96442113.82844  23552132.438                    23552142.918
 127956488.989 5  99706510.52442  24349343.719                    24349354.746
 130594789.004 6 101762301.70743  24851392.867                    24851403.688
 120182002.359 7  93648400.41044  22869877.102                    22869887.348
 107368461.694 8  83663586.05446  20431497.797                    20431506.477
 11  8 23 16 45 30.0000000  0 11G23G03G07G19G10G11G28G06G16G08G13
 114241090.873 7  89019091.82945  21739366.391                    21739374.656
 117454532.720 7  91523054.40344  22350859.469                    22350869.355
 111565994.263 8  86934595.974 7  21230309.781                    21230318.313
 110555304.310 8  86147046.22246  21037979.234                    21037986.723
 128978836.700 5 100503021.88443  24543865.430                    24543876.758
 122701482.937 7  95611638.07244  23349320.766                    23349332.660
 123715398.330 7  96401604.82444  23542239.586                    23542249.922
 128053398.951 6  99782024.71743  24367784.859                    24367795.898
 130679399.589 6 101828231.94142  24867493.227                    24867504.609
 120110228.812 7  93592473.01844  22856219.164                    22856228.609
 107418366.219 8  83702472.67246  20440994.586                    20441003.156
 11  8 23 16 46  0.0000000  0 11G23G03G07G19G10G11G28G06G16G08G13
 114335295.846 7  89092498.20945  21757293.094                    21757301.125
 117544576.806 7  91593218.58444  22367994.258                    22368004.484
 111517389.061 8  86896721.813 7  21221060.148                    21221068.809
 110583647.116 8  86169131.51746  21043372.727                    21043380.078
 129027033.588 6 100540577.86943  24553036.570                    24553049.074
 122625041.780 7  95552073.60344  23334775.164                    23334786.484
 123663625.793 7  96361262.63544  23532387.250                    23532397.574
 128150505.413 6  99857692.02442  24386263.133                    24386274.602
 130763907.935 6 101894082.51042  24883575.344                    24883585.680
 120038428.801 7  93536524.99044  22842556.188                    22842565.543
 107468823.217 8  83741789.77846  20450595.797                    20450604.535
 11  8 23 16 46 30.0000000  0 10G23G03G07G19G10G11G28G06G08G13
 114429839.628 8  89166168.60045  21775284.875                    21775292.766
 117634968.522 7  91663653.64344  22385195.391                    22385205.438
 111468921.388 8  86858954.809 7  21211837.063                    21211845.395
 110612587.361 8  86191682.34346  21048879.773                    21048887.203
 129075456.854 6 100578310.22843  24562251.289                    24562263.887
 122548698.398 7  95492585.36544  23320246.992                    23320258.449
 123612066.682 7  96321086.74344  23522576.063                    23522587.098
 128247806.031 6  99933510.62142  24404779.805                    24404790.691
 119966603.322 7  93480557.13444  22828887.555                    22828897.375
 107519831.241 8  83781536.26346  20460302.477                    20460311.332
 11  8 23 16 47  0.0000000  0 10G23G03G07G19G10G11G28G06G08G13
 114524718.709 8  89240100.25745  21793339.266                    21793347.773
 117725704.912 7  91734357.28144  22402461.836                    22402471.906
 111420592.577 8  86821296.005 7  21202640.469                    21202649.316
 110642123.410 8  86214697.43946  21054500.570                    21054507.566
 129124103.371 6 100616216.57243  24571507.836                    24571520.395
 122472455.589 7  95433175.48544  23305738.461                    23305749.852
 123560720.322 6  96281076.64444  23512804.914                    23512815.516
 128345298.027 6 100009478.36942  24423331.852                    24423342.680
 119894753.133 7  93424570.02044  22815214.938                    22815225.465
 107571388.335 8  83821710.59346  20470113.406                    20470122.078
 11  8 23 16 47 30.0000000  0 10G23G03G07G19G10G11G28G06G08G13
 114619931.208 8  89314291.73245  21811457.766                    21811466.012
 117816782.705 7  91805326.92944  22419793.422                    22419803.656
 111372404.520 8  86783746.890 7  21193470.477                    21193479.289
 110672254.417 8  86238176.14046  21060233.953                    21060241.484
 129172970.466 6 100654294.73543  24580808.063                    24580820.301
 122396316.420 7  95373846.38544  23291249.289                    23291261.293
 123509586.368 6  96241232.07244  23503074.336                    23503085.152
 128442978.844 6 100085593.24642  24441919.977                    24441930.691
 119822879.688 7  93368564.77744  22801538.625                    22801548.766
 107623493.303 8  83862311.84146  20480028.641                    20480037.660
 11  8 23 16 48  0.0000000  0 10G23G03G07G19G10G11G28G06G08G13
 114715474.164 7  89388740.71845  21829638.875                    21829647.496
 117908199.431 7  91876560.71144  22437189.547                    22437200.230
 111324358.293 8  86746308.279 7  21184327.570                    21184336.238
 110702979.034 8  86262117.39346  21066080.758                    21066088.230
 129222055.151 6 100692542.47843  24590148.070                    24590160.512
 122320283.932 7  95314600.38644  23276781.063                    23276792.422
 123458664.380 7  96201552.63443  23493384.695                    23493394.410
 128540845.897 5 100161853.18742  24460544.016                    24460554.582
 119750983.640 7  93312541.91244  22787857.422                    22787867.168
 107676144.406 8  83903338.64046  20490048.055                    20490056.766
 11  8 23 16 48 30.0000000  0 10G23G03G07G19G10G11G28G06G08G13
 114811344.605 8  89463444.86545  21847882.570                    21847890.738
 117999952.242 7  91948056.35944  22454649.719                    22454659.984
 111276455.709 8  86708981.622 7  21175211.945                    21175221.004
 110734296.042 8  86286520.25546  21072040.172                    21072047.531
 129271354.679 6 100730957.64742  24599528.969                    24599541.426
 122244360.880 7  95255439.70544  23262333.188                    23262344.172
 123407953.556 7  96162037.75043  23483734.734                    23483744.660
 128638896.749 6 100238256.35942  24479201.914                    24479213.500
 119679065.819 7  93256502.08444  22774171.023                    22774181.430
 107729340.118 8  83944789.81846  20500170.773                    20500179.992
 11  8 23 16 49  0.0000000  0 10G23G03G07G19G10G11G28G06G08G13
 114907540.112 8  89538402.32545  21866188.000                    21866196.355
 118092038.388 7  92019811.77244  22472172.844                    22472183.121
 111228698.366 8  86671768.125 7  21166124.164                    21166132.828
 110766204.310 8  86311383.84546  21078112.250                    21078119.414
 129320866.462 6 100769538.17943  24608951.727                    24608962.906
 122168550.443 7  95196366.72144  23247906.992                    23247917.926
 123357453.566 7  96122687.16543  23474124.672                    23474134.469
 128737128.845 5 100314800.78842  24497894.586                    24497905.660
 119607127.798 7  93200446.50844  22760482.164                    22760491.809
 107783078.910 8  83986664.16646  20510396.852                    20510405.770
 11  8 23 16 49 30.0000000  0 10G23G03G07G19G10G11G28G06G08G13
 115004058.271 8  89613611.18445  21884555.172                    21884563.531
 118184454.806 7  92091824.51244  22489759.430                    22489769.020
 111181088.048 8  86634669.191 7  21157064.016                    21157072.668
 110798702.579 7  86336707.16946  21084296.352                    21084303.570
 129370587.772 6 100808282.00342  24618413.570                    24618425.074
 122092855.650 7  95137383.88844  23233503.109                    23233513.914
 123307164.220 7  96083500.71943  23464554.602                    23464565.375
 128835539.789 6 100391484.59242  24516622.000                    24516633.215
 119535170.404 7  93144375.85644  22746788.688                    22746798.977
 107837359.427 8  84028960.64346  20520726.305                    20520735.004
 11  8 23 16 50  0.0000000  0 10G23G03G07G19G10G11G28G06G08G13
 115100895.221 7  89689068.44545  21902982.031                    21902990.762
 118277198.463 7  92164092.28644  22507407.570                    22507418.008
 111133626.448 8  86597686.144 7  21148032.406                    21148040.898
 110831789.469 7  86362489.15946  21090592.547                    21090599.906
 129420515.917 6 100847186.99242  24627913.875                    24627925.332
 122017279.299 7  95078493.31744  23219120.781                    23219132.102
 123257084.489 6  96044477.61543  23455025.109                    23455035.359
 128934127.014 5 100468305.77742  24535382.055                    24535393.141
 119463194.494 7  93088290.76844  22733092.406                    22733102.398
 107892179.475 8  84071677.52946  20531158.313                    20531166.898
 11  8 23 16 50 30.0000000  0 10G23G03G07G19G10G11G28G06G08G13
 115198048.716 7  89764772.37245  21921470.258                    21921478.164
 118370266.691 7  92236612.94144  22525117.969                    22525128.039
 111086315.519 8  86560820.500 7  21139029.688                    21139038.281
 110865463.932 7  86388728.99846  21097000.406                    21097007.906
 129470648.451 6 100886251.25342  24637454.055                    24637465.523
 121941824.762 7  95019697.66144  23204762.289                    23204773.301
 123207214.510 6  96005617.93443  23445534.563                    23445544.676
 129032888.091 5 100545262.33243  24554176.172                    24554187.762
 119391201.362 7  93032192.26444  22719392.289                    22719402.516
 107947538.019 8  84114814.02646  20541692.727                    20541701.703
 11  8 23 16 51  0.0000000  0 10G23G03G07G19G10G11G28G06G08G13
 115295515.785 7  89840720.65345  21940017.578                    21940025.676
 118463656.216 7  92309383.96544  22542889.406                    22542899.754
 111039156.230 8  86524073.014 7  21130055.461                    21130064.383
 110899724.277 7  86415425.37046  21103520.148                    21103527.480
 129520982.436 6 100925472.50042  24647032.664                    24647044.203
 121866494.678 7  94960998.95644  23190426.813                    23190439.105
 123157553.143 6  95966920.79043  23436084.914                    23436093.293
 129131820.265 6 100622352.26542  24573001.484                    24573014.031
 119319191.735 7  92976080.88744  22705689.547                    22705699.418
 108003432.696 8  84158368.29146  20552329.000                    20552337.844
 11  8 23 16 51 30.0000000  0 10G23G03G07G19G10G11G28G06G08G13
 115393293.714 7  89916911.15545  21958623.688                    21958632.469
 118557364.519 7  92382403.36344  22560721.813                    22560732.313
 110992150.243 8  86487444.994 7  21121110.633                    21121119.145
 110934569.020 7  86442577.11146  21110150.359                    21110158.141
 129571514.672 6 100964848.23243  24656648.570                    24656660.066
 121791291.988 7  94902399.53244  23176116.313                    23176128.297
 123108099.823 7  95928385.77444  23426674.352                    23426683.156
 129230920.911 6 100699573.46943  24591860.648                    24591872.141
 119247166.833 7  92919957.63244  22691983.836                    22691993.250
 108059861.786 8  84202338.97246  20563067.023                    20563076.207
 11  8 23 16 52  0.0000000  0 10G23G03G07G19G10G11G28G06G08G13
 115491379.830 7  89993341.80345  21977289.305                    21977298.121
 118651388.347 7  92455668.65244  22578614.016                    22578624.648
 110945299.704 8  86450938.103 7  21112195.055                    21112203.777
 110969997.188 7  86470183.46646  21116892.727                    21116900.066
 129622243.145 6 101004376.87643  24666301.781                    24666313.223
 121716219.886 7  94843901.83544  23161831.117                    23161842.520
 123058854.168 7  95890012.58444  23417302.703                    23417313.039
 129330187.725 6 100776924.19542  24610750.297                    24610761.273
 119175127.868 7  92863823.40145  22678275.023                    22678285.551
 108116823.650 8  84246724.81146  20573906.578                    20573915.605
 11  8 23 16 52 30.0000000  0 10G23G03G07G19G10G11G28G06G08G13
 115589771.315 7  90070010.39745  21996012.594                    21996021.180
 118745725.083 7  92529177.75644  22596566.117                    22596576.180
 110898605.913 8  86414553.351 7  21103308.852                    21103318.051
 111006007.180 8  86498243.19846  21123745.203                    21123752.430
 129673164.719 6 101044055.94943  24675991.398                    24676004.094
 121641281.065 7  94785508.01244  23147571.063                    23147581.383
 123009815.650 7  95851800.80044  23407971.234                    23407980.848
 129429618.554 5 100854402.68142  24629671.484                    24629682.992
 119103075.869 7  92807679.03345  22664563.805                    22664574.219
 108174316.809 8  84291524.63346  20584847.508                    20584856.016
 11  8 23 16 53  0.0000000  0 10G23G03G07G19G10G11G28G06G08G13
 115688465.512 7  90146914.87845  22014793.805                    22014801.766
 118840371.980 7  92602928.54044  22614576.117                    22614587.203
 110852071.028 8  86378292.417 7  21094454.234                    21094462.691
 111042597.792 8  86526755.35746  21130708.531                    21130715.473
 129724276.583 6 101083883.33943  24685718.273                    24685730.051
 121566479.110 7  94727220.83544  23133336.656                    23133346.441
 122960983.839 7  95813750.08144  23398678.367                    23398688.328
 129529210.475 5 100932006.71442  24648622.445                    24648634.531
 119031012.053 7  92751525.43344  22650850.578                    22650860.566
 108232339.595 8  84336737.16446  20595888.703                    20595897.438
 11  8 23 16 53 30.0000000  0 10G23G03G07G19G10G11G28G06G08G13
 115787459.275 7  90224052.77545  22033631.664                    22033639.910
 118935326.005 7  92676918.64744  22632645.688                    22632656.152
 110805696.616 8  86342156.526 7  21085629.383                    21085638.316
 111079767.467 7  86555718.73746  21137781.508                    21137788.992
 129775576.015 6 101123856.88643  24695479.914                    24695492.172
 121491816.779 7  94669042.46644  23119128.711                    23119139.273
 122912357.972 7  95775859.83744  23389425.758                    23389435.051
 129628961.277 5 101009734.59742  24667604.094                    24667617.090
 118958937.380 7  92695363.37044  22637135.383                    22637145.285
 108290890.163 8  84382360.94346  20607030.461                    20607039.242
 11  8 23 16 54  0.0000000  0 10G23G03G07G19G10G11G28G06G08G13
 115886749.864 7  90301421.96245  22052526.148                    22052534.504
 119030584.366 7  92751145.88044  22650772.555                    22650783.426
 110759484.262 8  86306146.915 7  21076835.844                    21076843.961
 111117514.571 8  86585132.07046  21144964.578                    21144971.430
 129827060.308 6 101163974.41143  24705278.547                    24705289.793
 121417297.154 7  94610975.27044  23104947.438                    23104958.547
 122863937.538 7  95738129.67044  23380212.078                    23380221.301
 129728868.189 6 101087584.10242  24686616.023                    24686629.215
 118886852.988 7  92639193.75344  22623418.266                    22623428.289
 108349966.556 8  84428394.46546  20618272.375                    20618281.309
 11  8 23 16 54 30.0000000  0 10G23G03G07G19G10G11G28G06G08G13
 115986334.340 8  90379020.15945  22071476.750                    22071485.426
 119126143.764 6  92825607.69043  22668956.820                    22668967.695
 110713435.459 8  86270264.736 7  21068073.133                    21068081.430
 111155837.474 8  86614994.06846  21152256.938                    21152264.227
 129878726.628 6 101204233.87243  24715109.102                    24715120.699
 121342923.110 7  94553021.51444  23090794.305                    23090805.645
 122815721.772 7  95700558.98144  23371036.070                    23371046.012
 129828928.838 5 101165553.35642  24705657.656                    24705670.102
 118814760.398 7  92583017.73245  22609699.016                    22609709.215
 108409566.669 8  84474836.07546  20629613.984                    20629622.586
 11  8 23 16 55  0.0000000  0 10G23G03G07G19G10G11G28G06G08G13
 116086209.879 7  90456845.16345  22090481.820                    22090490.652
 119222001.344 7  92900301.85443  22687198.195                    22687208.773
 110667551.861 8  86234511.303 7  21059341.578                    21059350.082
 111194734.395 8  86645303.35446  21159658.852                    21159666.449
 129930572.077 6 101244632.83543  24724974.859                    24724987.043
 121268697.587 7  94495183.46744  23076669.484                    23076680.934
 122767709.960 7  95663147.21844  23361900.063                    23361909.762
 129929140.705 5 101243640.35142  24724727.383                    24724739.461
 118742660.219 7  92526835.81045  22595979.406                    22595988.984
 108469688.591 8  84521684.29346  20641054.859                    20641063.672
 11  8 23 16 55 30.0000000  0 10G23G03G07G19G10G11G28G06G08G13
 116186373.523 7  90534894.66945  22109542.680                    22109551.309
 119318154.189 6  92975226.09544  22705495.453                    22705506.121
 110621835.394 8  86198888.100 7  21050641.336                    21050649.805
 111234204.398 8  86676059.18446  21167169.844                    21167177.043
 129982594.383 6 101285169.64443  24734875.406                    24734886.602
 121194623.397 6  94437463.36044  23062574.016                    23062585.504
 122719901.921 6  95625894.23944  23352802.563                    23352812.309
 130029501.156 5 101321843.23242  24743825.734                    24743837.711
 118670554.018 7  92470649.19545  22582257.516                    22582266.988
 108530330.727 8  84568937.86846  20652594.750                    20652603.445
 11  8 23 16 56  0.0000000  0 10G23G03G07G19G10G11G28G06G08G13
 116286822.831 7  90613166.76445  22128657.836                    22128666.168
 119414599.525 6  93050378.25644  22723848.828                    22723858.887
 110576287.952 8  86163396.599 7  21041974.523                    21041982.953
 111274245.936 8  86707260.37046  21174789.289                    21174796.707
 130034790.530 6 101325841.88743  24744807.594                    24744820.078
 121120704.221 6  94379864.04144  23048507.523                    23048518.813
 122672296.723 7  95588799.32544  23343743.320                    23343753.230
 130130008.071 6 101400160.21942  24762951.500                    24762963.945
 118598443.126 7  92414458.93244  22568535.469                    22568544.727
 108591491.276 8  84616595.39446  20664233.164                    20664242.188
 11  8 23 16 56 30.0000000  0 10G23G03G07G19G10G11G28G06G08G13
 116387554.406 7  90691658.79845  22147826.383                    22147834.895
 119511334.394 7  93125756.03343  22742256.320                    22742266.848
 110530910.729 8  86128037.741 7  21033339.117                    21033347.984
 111314856.857 8  86738905.23746  21182517.297                    21182524.527
 130087157.663 6 101366647.39943  24754772.758                    24754784.469
 121046942.518 7  94322387.44744  23034471.492                    23034482.406
 122624893.687 7  95551861.93144  23334722.883                    23334732.891
 130230658.280 6 101478588.90343  24782104.867                    24782116.344
 118526328.324 7  92358265.61145  22554812.039                    22554821.965
 108653167.860 8  84664655.03646  20675969.805                    20675978.340
 11  8 23 16 57  0.0000000  0 11G23G03G07G19G10G11G28G01G06G08G13
 116488565.665 7  90770368.76245  22167048.688                    22167056.961
 119608356.225 6  93201357.38644  22760719.219                    22760730.168
 110485705.789 8  86092813.130 7  21024736.750                    21024745.871
 111356035.798 8  86770992.71646  21190353.328                    21190360.402
 130139692.618 6 101407583.66943  24764769.992                    24764781.555
 120973341.714 7  94265036.22744  23020466.102                    23020475.594
 122577692.354 7  95515081.69344  23325740.391                    23325750.441
 129664746.90116 101037530.38415  24674392.836                    24674408.672
 130331449.745 6 101557127.67643  24801285.109                    24801296.531
 118454211.095 7  92302070.39744  22541088.820                    22541098.254
 108715358.910 8  84713115.55846  20687803.953                    20687812.766
 11  8 23 16 57 30.0000000  0 11G23G03G07G19G10G11G28G01G06G08G13
 116589853.477 7  90849294.22145  22186322.992                    22186331.578
 119705661.727 6  93277179.76943  22779236.352                    22779246.586
 110440674.666 8  86057723.948 7  21016168.008                    21016176.543
 111397780.897 8  86803521.34346  21198297.117                    21198304.633
 130192392.821 6 101448648.75043  24774797.453                    24774810.703
 120899904.371 7  94207812.36944  23006491.281                    23006500.277
 122530692.073 7  95478458.13444  23316796.719                    23316806.375
 129590344.021 6 100979554.184 5  24660232.797                    24660251.313
 130432379.857 6 101635774.47343  24820491.344                    24820502.941
 118382092.686 7  92245874.25244  22527364.953                    22527375.176
 108778062.041 8  84761975.10246  20699735.922                    20699744.891
 11  8 23 16 58  0.0000000  0 11G23G03G07G19G10G11G28G01G06G08G13
 116691415.380 7  90928433.26845  22205649.633                    22205658.656
 119803248.372 6  93353221.27343  22797805.570                    22797816.750
 110395819.664 7  86022772.003 7  21007632.000                    21007641.047
 111440090.871 7  86836490.14046  21206348.727                    21206355.949
 130245255.864 6 101489840.60443  24784857.867                    24784870.211
 120826634.025 7  94150718.67444  22992548.117                    22992558.297
 122483892.469 6  95441990.94744  23307890.781                    23307901.238
 129515826.816 5 100921488.961 5  24646053.633                    24646071.320
 130533446.467 6 101714527.59342  24839723.953                    24839734.637
 118309974.262 7  92189678.10345  22513641.781                    22513651.672
 108841275.955 8  84811232.65546  20711765.727                    20711774.430
 11  8 23 16 58 30.0000000  0 11G23G03G07G19G10G11G28G01G06G08G13
 116793248.475 7  91007783.63745  22225027.250                    22225036.113
 119901113.076 7  93429479.40443  22816429.602                    22816439.520
 110351142.174 8  85987958.382 7  20999130.516                    20999139.211
 111482963.992 8  86869897.75646  21214507.531                    21214514.656
 130298278.819 6 101531157.11443  24794947.930                    24794960.234
 120753533.466 7  94093757.27344  22978637.750                    22978648.270
 122437292.518 7  95405679.33244  23299023.070                    23299033.008
 129441197.904 6 100863336.675 6  24631851.531                    24631870.664
 130634647.271 6 101793385.28943  24858981.688                    24858993.258
 118237857.168 7  92133482.99444  22499918.188                    22499928.109
 108904998.113 8  84860886.25246  20723891.836                    20723900.590
 11  8 23 16 59  0.0000000  0 11G23G03G07G19G10G11G28G01G06G08G13
 116895350.104 7  91087343.24845  22244457.398                    22244466.461
 119999253.353 6  93505952.28643  22835104.523                    22835114.633
 110306644.289 8  85953284.700 7  20990663.055                    20990671.590
 111526398.865 7  86903743.09046  21222772.555                    21222779.746
 130351459.292 6 101572596.35843  24805067.734                    24805080.855
 120680605.939 7  94036930.66744  22964759.797                    22964770.934
 122390891.960 7  95369523.09444  23290193.305                    23290203.199
 129366459.935 5 100805099.405 6  24617630.422                    24617647.969
 130735979.747 6 101872345.53443  24878263.922                    24878276.262
 118165742.636 7  92077289.87445  22486194.656                    22486204.922
 108969226.858 8  84910934.58346  20736113.883                    20736122.895
 11  8 23 16 59 30.0000000  0 10G23G03G07G19G10G11G28G01G08G13
 116997717.032 7  91167109.57445  22263936.875                    22263945.629
 120097665.730 7  93582637.19743  22853832.063                    22853842.758
 110262327.601 8  85918752.223 7  20982229.633                    20982238.414
 111570393.392 7  86938024.52146  21231144.320                    21231151.906
 130404794.205 6 101614155.97343  24815217.039                    24815229.957
 120607854.393 6  93980241.20744  22950915.742                    22950926.578
 122344689.986 7  95333521.59144  23281401.930                    23281411.082
 129291615.252 6 100746779.006 6  24603386.336                    24603405.398
 118093632.189 7  92021099.94944  22472473.156                    22472482.129
 109033960.079 8  84961376.01546  20748432.328                    20748441.426
 11  8 23 17  0  0.0000000  0 10G23G03G07G19G10G11G28G01G08G13
 117100346.389 7  91247080.39845  22283466.500                    22283475.496
 120196347.634 7  93659532.16543  22872610.492                    22872620.836
 110218193.800 8  85884362.247 7  20973831.656                    20973839.914
 111614945.876 7  86972740.71646  21239622.344                    21239629.988
 130458280.491 6 101655833.50243  24825395.617                    24825407.188
 120535281.883 7  93923691.24544  22937105.000                    22937116.875
 122298685.866 7  95297674.27143  23272647.570                    23272656.449
 129216666.396 5 100688377.421 6  24589123.633                    24589143.629
 118021526.851 7  91964914.01345  22458752.156                    22458760.668
 109099195.668 8  85012208.89446  20760846.234                    20760855.137
 11  8 23 17  0 30.0000000  0 10G23G03G07G19G10G11G28G01G08G13
 117203235.016 7  91327253.24145  22303045.516                    22303054.332
 120295295.851 6  93736634.64243  22891439.898                    22891450.273
 110174244.698 8  85850116.187 7  20965467.930                    20965476.781
 111660054.530 7  87007890.29746  21248206.047                    21248213.965
 130511915.564 6 101697626.95843  24835601.500                    24835614.422
 120462891.483 7  93867283.18544  22923329.570                    22923341.074
 122252878.912 7  95261980.57644  23263930.078                    23263939.719
 129141616.118 6 100629896.789 6  24574842.930                    24574861.926
 117949427.930 7  91908733.06145  22445032.031                    22445041.270
 109164931.339 8  85063431.45246  20773355.195                    20773364.359
 11  8 23 17  1  0.0000000  0 11G23G03G07G19G10G11G28G01G24G08G13
 117306380.231 7  91407626.02845  22322673.438                    22322682.910
 120394507.426 6  93813942.30543  22910319.570                    22910330.008
 110130482.016 7  85816015.398 7  20957140.273                    20957149.121
 111705717.379 7  87043471.72146  21256895.867                    21256903.051
 130565696.403 6 101739534.06743  24845834.898                    24845848.332
 120390685.789 7  93811019.06244  22909590.219                    22909600.570
 122207268.323 7  95226439.89444  23255250.703                    23255260.648
 129066466.259 6 100571338.581 6  24560541.477                    24560560.207
 128113051.90215                  24379115.383
 117877336.381 7  91852557.85545  22431313.039                    22431323.043
 109231164.691 8  85115041.81446  20785959.344                    20785968.500
 11  8 23 17  1 30.0000000  0 11G23G03G07G19G10G11G28G01G24G08G13
 117409778.938 7  91488196.33145  22342350.289                    22342359.816
 120493979.547 6  93891452.98143  22929248.227                    22929258.852
 110086907.085 8  85782060.912 7  20948848.430                    20948856.832
 111751932.409 7  87079483.41846  21265690.227                    21265697.551
 130619620.213 6 101781552.51643  24856096.773                    24856109.223
 120318667.630 7  93754901.07744  22895885.063                    22895895.207
 122161853.080 6  95191051.44644  23246609.102                    23246619.129
 128991219.746 6 100512705.018 7  24546223.586                    24546240.766
 128041649.764 5                  24365527.547
 117805253.566 7  91796389.44845  22417596.133                    22417606.414
 109297893.734 8  85167038.42846  20798657.555                    20798666.555
 11  8 23 17  2  0.0000000  0 11G23G03G07G19G10G11G28G01G24G08G13
 117513428.342 7  91568961.98845  22362074.016                    22362083.664
 120593709.372 6  93969164.47443  22948225.930                    22948236.766
 110043522.067 8  85748254.410 7  20940592.367                    20940601.004
 111798698.166 7  87115924.26046  21274589.289                    21274596.750
 130673684.214 6 101823680.24443  24866384.828                    24866397.695
 120246840.395 7  93698931.90044  22882217.180                    22882226.250
 122116632.844 7  95155814.93744  23238003.922                    23238013.426
 128915879.913 6 100453998.749 6  24531886.117                    24531903.676
 127970170.661 5                  24351925.102
 117733181.063 7  91740229.07045  22403881.281                    22403891.379
 109365116.590 8  85219419.83046  20811449.563                    20811458.512
 11  8 23 17  2 30.0000000  0 11G23G03G07G19G10G11G28G01G24G08G13
 117617325.395 7  91649920.60345  22381845.547                    22381854.063
 120693693.892 6  94047074.41943  22967252.727                    22967263.074
 110000328.683 8  85714597.237 7  20932372.680                    20932381.832
 111846012.562 8  87152792.60746  21283593.273                    21283600.199
 130727885.681 6 101865915.06642  24876699.266                    24876712.340
 120175207.543 7  93643114.16544  22868585.742                    22868595.879
 122071606.849 7  95120729.79244  23229435.977                    23229444.996
 128840448.422 6 100395221.082 7  24517531.914                    24517549.699
 127898617.440 5  99661370.89452  24338309.289                    24338324.906
 117661120.426 7  91684077.93545  22390168.836                    22390178.660
 109432831.106 8  85272184.34546  20824335.359                    20824344.043
 11  8 23 17  3  0.0000000  0 11G23G03G07G19G10G11G28G01G24G08G13
 117721467.236 7  91731069.97445  22401662.563                    22401671.441
 120793930.206 6  94125180.57443  22986327.320                    22986337.293
 109957328.927 8  85681090.939 7  20924190.359                    20924199.016
 111893873.480 7  87190086.80946  21292700.430                    21292707.832
 130782221.843 6 101908254.81442  24887039.461                    24887051.473
 120103771.825 7  93587450.02944  22854991.883                    22855002.379
 122026774.562 7  95085795.58144  23220903.992                    23220913.289
 128764928.368 6 100336374.392 7  24503160.781                    24503178.770
 127826992.550 6  99605559.47343  24324678.992                    24324695.742
 117589072.843 7  91627936.98745  22376458.367                    22376468.176
 109501034.703 8  85325329.95646  20837314.102                    20837323.316
 11  8 23 17  3 30.0000000  0 11G23G03G07G19G10G11G28G01G24G08G13
 117825851.417 7  91812408.17345  22421526.391                    22421535.301
 120894415.960 7  94203481.08443  23005449.172                    23005459.301
 109914524.640 8  85647736.963 7  20916044.930                    20916053.730
 111942279.649 7  87227805.89346  21301912.250                    21301919.277
 130836689.974 6 101950697.49243  24897403.891                    24897417.387
 120032536.170 7  93531941.78444  22841435.602                    22841445.688
 121982135.068 7  95051011.57444  23212409.445                    23212418.680
 128689322.619 6 100277460.953 7  24488773.789                    24488791.199
 127755299.075 6  99549694.48943  24311037.430                    24311053.664
 117517039.568 7  91571807.19045  22362750.922                    22362760.793
 109569725.608 8  85378855.28746  20850385.117                    20850394.434
 11  8 23 17  4  0.0000000  0 11G23G03G07G19G10G11G28G01G24G08G13
 117930474.458 7  91893932.50445  22441435.391                    22441444.480
 120995147.945 6  94281973.49743  23024617.492                    23024628.152
 109871917.587 8  85614536.670 7  20907937.063                    20907945.801
 111991229.017 7  87265948.24546  21311226.773                    21311234.270
 130891287.171 6 101993240.66043  24907793.625                    24907806.844
 119961503.487 7  93476591.70444  22827918.594                    22827928.453
 121937688.277 7  95016377.75344  23203951.672                    23203961.270
 128613633.445 6 100218482.500 6  24474370.000                    24474388.250
 127683539.498 6  99493778.02843  24297381.680                    24297399.043
 117445022.127 7  91515689.74645  22349046.289                    22349056.516
 109638901.620 8  85432758.62246  20863549.172                    20863558.199
 11  8 23 17  4 30.0000000  0 11G23G03G07G19G10G11G28G01G24G08G13
 118035333.679 7  91975640.86645  22461389.570                    22461398.320
 121096123.171 6  94360655.43843  23043832.516                    23043842.746
 109829509.585 7  85581491.491 7  20899866.914                    20899876.043
 112040719.330 7  87304512.10846  21320644.766                    21320652.484
 130946010.650 6 102035882.23842  24918207.563                    24918219.559
 119890677.078 7  93421402.38844  22814439.703                    22814450.883
 121893432.728 7  94981892.95044  23195530.156                    23195540.242
 128537863.566 6 100159441.158 6  24459951.625                    24459968.922
 127611716.482 6  99437812.12844  24283714.445                    24283731.230
 117373021.839 7  91459585.65145  22335345.258                    22335354.789
 109708560.266 8  85487038.03446  20876805.000                    20876813.613
 11  8 23 17  5  0.0000000  0 10G23G03G07G19G11G28G01G24G08G13
 118140426.122 7  92057530.94745  22481388.453                    22481397.172
 121197339.210 6  94439525.01843  23063093.781                    23063104.051
 109787302.597 8  85548602.930 7  20891835.273                    20891843.996
 112090749.211 7  87343496.42646  21330165.016                    21330172.531
 119820060.162 7  93366376.26644  22801002.359                    22801014.141
 121849368.056 7  94947556.86444  23187144.992                    23187154.805
 128462015.821 5 100100339.189 6  24445517.875                    24445535.688
 127539833.155 6  99381799.28444  24270035.477                    24270052.055
 117301040.612 7  91403496.40045  22321647.898                    22321657.781
 109778699.821 8  85541692.18546  20890151.984                    20890161.008
 11  8 23 17  5 30.0000000  0 10G23G03G07G19G11G28G01G24G08G13
 118245749.077 7  92139600.67945  22501430.914                    22501439.629
 121298792.771 6  94518579.70143  23082399.883                    23082409.617
 109745298.260 8  85515872.281 7  20883842.195                    20883851.078
 112141316.197 7  87382899.26446  21339787.664                    21339794.328
 119749655.739 7  93311515.72744  22787605.328                    22787616.512
 121805493.174 7  94913368.68444  23178795.680                    23178804.895
 128386092.879 5 100041178.543 6  24431070.656                    24431088.504
 127467891.976 6  99325741.31644  24256345.172                    24256361.535
 117229079.532 7  91347422.86245  22307953.641                    22307963.781
 109849317.521 8  85596718.91446  20903590.125                    20903599.078
 11  8 23 17  6  0.0000000  0 10G23G03G07G19G11G28G01G24G08G13
 118351299.162 7  92221847.37444  22521516.586                    22521525.156
 121400480.868 6  94597817.11143  23101749.453                    23101760.031
 109703497.983 8  85483300.648 7  20875887.742                    20875896.098
 112192418.041 7  87422718.88446  21349512.227                    21349519.160
 119679466.140 7  93256822.59844  22774249.047                    22774259.375
 121761807.379 7  94879327.82744  23170482.320                    23170492.090
 128310096.701 5  99981960.872 6  24416608.484                    24416626.246
 127395895.383 6  99269640.16043  24242644.070                    24242659.426
 117157139.428 7  91291365.67045  22294263.555                    22294273.996
 109920410.606 8  85652116.08546  20917118.781                    20917128.008
 11  8 23 17  6 30.0000000  0 10G23G03G07G19G11G28G01G24G08G13
 118457073.831 7  92304269.07744  22541644.844                    22541653.879
 121502400.925 6  94677235.25343  23121144.273                    23121154.766
 109661904.510 7  85450890.146 7  20867972.891                    20867981.801
 112244053.398 8  87462954.21246  21359337.758                    21359344.992
 119609495.101 7  93202299.78244  22760933.742                    22760943.871
 121718310.311 6  94845434.04944  23162205.414                    23162215.145
 128234031.568 5  99922689.483 5  24402133.625                    24402151.785
 127323846.616 6  99213498.37043  24228934.125                    24228948.688
 117085222.698 7  91235326.68845  22280578.234                    22280588.629
 109991977.755 8  85707882.63546  20930737.430                    20930746.602
 11  8 23 17  7  0.0000000  0 10G23G03G07G19G11G28G01G24G08G13
 118563069.985 7  92386863.35544  22561814.758                    22561824.516
 121604550.262 6  94756832.05943  23140583.461                    23140594.355
 109620519.540 8  85418642.120 7  20860097.633                    20860105.977
 112296220.278 8  87503603.70746  21369264.555                    21369272.074
 119539745.572 7  93147949.58244  22747660.531                    22747671.535
 121675001.297 7  94811686.81544  23153963.922                    23153973.641
 128157899.383 6  99863365.791 6  24387646.586                    24387664.410
 127251748.483 6  99157318.07943  24215213.977                    24215229.148
 117013330.297 7  91179306.64545  22266897.898                    22266908.227
 110064016.486 8  85764016.67146  20944445.992                    20944454.992
 11  8 23 17  7 30.0000000  0 10G23G03G07G19G11G28G01G24G08G13
 118669284.582 7  92469627.82644  22582027.109                    22582036.879
 121706925.582 6  94836604.98943  23160063.844                    23160075.332
 109579344.242 8  85386557.477 7  20852262.242                    20852271.004
 112348916.040 7  87544665.32646  21379292.875                    21379299.742
 119470220.374 7  93093774.17544  22734430.289                    22734440.797
 121631879.007 7  94778085.07444  23145757.367                    23145767.383
 128081702.597 6  99803991.798 6  24373146.531                    24373165.121
 127179603.439 6  99101101.28643  24201485.719                    24201499.684
 116941463.376 7  91123306.46145  22253222.328                    22253232.008
 110136524.019 8  85820516.00146  20958243.742                    20958252.871
 11  8 23 17  8  0.0000000  0 10G23G03G07G19G11G28G01G24G08G13
 118775715.041 7  92552560.50045  22602280.734                    22602289.520
 121809524.261 6  94916551.91543  23179588.727                    23179599.164
 109538381.141 8  85354638.190 7  20844467.219                    20844475.723
 112402138.808 8  87586137.59246  21389420.578                    21389427.879
 119400922.535 7  93039775.89844  22721243.328                    22721253.625
 121588942.988 7  94744628.47344  23137586.953                    23137597.289
 128005444.272 6  99744569.777 6  24358635.094                    24358652.590
 127107414.364 6  99044850.19943  24187747.641                    24187763.359
 116869623.922 7  91067327.68645  22239551.617                    22239561.230
 110209498.282 8  85877379.01346  20972130.516                    20972139.523
 11  8 23 17  8 30.0000000  0 10G23G03G07G19G11G28G01G24G08G13
 118882358.244 7  92635658.96245  22622574.086                    22622583.094
 121912343.426 6  94996670.69343  23199154.563                    23199164.824
 109497631.987 8  85322885.611 7  20836712.891                    20836721.414
 112455886.681 8  87628019.02946  21399648.570                    21399655.863
 119331855.439 7  92985957.44544  22708100.047                    22708110.664
 121546192.554 7  94711316.46244  23129452.031                    23129462.012
 127929126.895 6  99685101.874 6  24344112.023                    24344129.914
 127035183.938 6  98988566.90142  24174002.336                    24174018.695
 116797813.321 7  91011371.39645  22225886.805                    22225896.219
 110282936.927 8  85934603.87746  20986105.313                    20986114.258
 11  8 23 17  9  0.0000000  0 10G23G03G07G19G11G28G01G24G08G13
 118989210.772 7  92718920.53344  22642907.156                    22642916.676
 122015380.318 6  95076959.08443  23218761.805                    23218772.684
 109457098.276 8  85291300.909 7  20828999.586                    20829007.746
 112510157.391 8  87670307.87646  21409975.688                    21409983.289
 119263021.719 7  92932320.87744  22695001.852                    22695012.332
 121503626.811 7  94678148.37644  23121352.219                    23121361.758
 127852753.108 6  99625589.992 6  24329578.023                    24329596.727
 126962915.022 5  98932253.58442  24160249.305                    24160265.129
 116726033.065 7  90955438.74545  22212227.055                    22212236.684
 110356837.435 8  85992188.62846  21000168.266                    21000177.734
 11  8 23 17  9 30.0000000  0 10G23G03G07G19G11G28G01G24G08G13
 119096270.202 7  92802343.33244  22663279.859                    22663289.566
 122118631.564 6  95157414.50743  23238409.625                    23238420.934
 109416781.647 7  85259885.353 7  20821327.305                    20821336.293
 112564948.690 8  87713002.38146  21420402.469                    21420409.684
 119194424.276 7  92878868.38844  22681947.367                    22681957.887
 121461244.826 6  94645123.49644  23113286.992                    23113296.656
 127776325.536 6  99566036.184 7  24315034.477                    24315053.262
 126890610.236 6  98875912.38042  24146491.344                    24146506.258
 116654284.317 7  90899530.65145  22198573.852                    22198583.613
 110431197.094 8  86050131.17146  21014318.422                    21014328.227
 11  8 23 17 10  0.0000000  0 10G23G03G07G19G11G28G01G24G08G13
 119203533.396 7  92885924.91745  22683692.172                    22683701.227
 122222095.136 6  95238035.42643  23258098.820                    23258109.395
 109376684.556 7  85228640.869 7  20813697.602                    20813706.219
 112620258.535 8  87756100.93846  21430927.141                    21430934.723
 119126066.323 7  92825602.50544  22668939.461                    22668949.840
 121419045.835 7  94612241.18244  23105256.586                    23105266.184
 127699847.109 6  99506442.784 7  24300480.938                    24300499.387
 126818272.532 6  98819545.44643  24132726.852                    24132741.000
 116582568.929 7  90843648.54145  22184926.516                    22184936.047
 110506013.689 8  86108429.77146  21028555.234                    21028564.605
 11  8 23 17 10 30.0000000  0 10G23G03G07G19G11G28G01G24G08G13
 119310997.491 7  92969663.04344  22704141.883                    22704151.367
 122325767.482 6  95318818.97443  23277826.234                    23277837.926
 109336808.838 8  85197568.888 7  20806109.023                    20806117.578
 112676084.830 8  87799601.93046  21441550.547                    21441557.805
 119057951.033 6  92772525.73444  22655977.531                    22655987.668
 121377029.252 7  94579501.01044  23097261.508                    23097270.402
 127623320.930 6  99446812.179 6  24285918.633                    24285936.129
 126745904.866 6  98763155.21743  24118953.813                    24118970.074
 116510888.373 7  90787793.58645  22171286.750                    22171296.219
 110581285.148 8  86167082.79346  21042879.109                    21042888.137
 11  8 23 17 11  0.0000000  0 10G23G03G07G19G11G28G01G24G08G13
 119418659.280 7  93053555.19344  22724629.148                    22724638.102
 122429646.152 6  95399763.30143  23297594.563                    23297605.453
 109297156.207 8  85166670.735 7  20798564.016                    20798571.887
 112732425.314 7  87843503.58046  21452272.070                    21452279.484
 118990081.476 7  92719640.43144  22643062.281                    22643072.500
 121335194.023 7  94546902.14944  23089300.609                    23089309.750
 127546749.135 6  99387146.011 6  24271347.914                    24271365.078
 126673509.911 5  98706743.79043  24105177.648                    24105194.238
 116439244.136 7  90731966.92745  22157653.023                    22157662.684
 110657008.717 8  86226088.11346  21057288.977                    21057298.098
 11  8 23 17 11 30.0000000  0 10G23G03G07G19G11G28G01G24G08G13
 119526515.781 7  93137599.07544  22745153.492                    22745163.016
 122533728.156 6  95480866.09943  23317400.641                    23317411.684
 109257728.432 8  85135947.792 7  20791061.172                    20791069.332
 112789277.783 7  87887804.19146  21463090.555                    21463098.055
 118922460.239 7  92666948.62444  22630194.398                    22630204.789
 121293539.629 7  94514444.18344  23081373.484                    23081382.523
 127470135.097 6  99327446.958 6  24256768.359                    24256784.414
 126601090.220 6  98650313.03343  24091396.266                    24091413.496
 116367638.173 7  90676170.08845  22144026.695                    22144036.199
 110733181.925 8  86285443.80645  21071784.438                    21071793.391
 11  8 23 17 12  0.0000000  0 10G23G03G07G19G11G28G01G24G08G13
 119634564.665 7  93221792.84044  22765714.781                    22765724.141
 122638010.746 6  95562125.19443  23337245.297                    23337255.922
 109218527.678 8  85105401.753 7  20783600.727                    20783609.137
 112846640.121 7  87932502.09046  21474006.406                    21474013.820
 118855090.434 7  92614452.73044  22617374.242                    22617384.875
 121252065.169 7  94482126.45144  23073481.258                    23073491.148
 127393481.072 6  99267716.717 6  24242180.875                    24242197.230
 126528648.880 6  98593865.40143  24077610.797                    24077628.133
 116296071.646 7  90620403.98545  22130407.828                    22130417.750
 110809802.468 8  86345148.06945  21086364.750                    21086374.273
 11  8 23 17 12 30.0000000  0 10G23G03G07G19G11G28G01G24G08G13
 119742802.483 7  93306133.87544  22786311.375                    22786321.570
 122742491.263 6  95643538.50143  23357126.625                    23357137.914
 109179555.660 8  85075033.937 7  20776184.625                    20776193.457
 112904509.994 7  87977595.48846  21485018.508                    21485025.965
 118787975.371 7  92562155.33344  22604602.977                    22604613.863
 121210769.798 7  94449948.24244  23065623.461                    23065632.883
 127316790.168 6  99207957.708 6  24227587.516                    24227604.191
 126456188.949 6  98537403.28543  24063822.320                    24063839.504
 116224546.267 7  90564669.93345  22116797.008                    22116806.691
 110886867.947 8  86405199.03645  21101029.875                    21101039.207
 11  8 23 17 13  0.0000000  0 10G23G03G07G19G11G28G01G24G08G13
 119851226.217 7  93390619.71544  22806944.461                    22806954.777
 122847166.546 6  95725103.57843  23377045.688                    23377057.551
 109140813.959 8  85044845.596 7  20768812.586                    20768821.344
 112962885.034 8  88023082.51346  21496127.172                    21496134.344
 118721117.625 7  92510058.43944  22591879.547                    22591890.422
 121169652.534 7  94417908.83944  23057799.141                    23057808.309
 127240065.138 6  99148172.156 6  24212987.305                    24213004.531
 126383712.952 6  98480928.62743  24050030.305                    24050047.215
 116153063.456 7  90508969.07345  22103194.539                    22103203.844
 110964375.278 8  86465594.30145  21115779.164                    21115788.516
 11  8 23 17 13 30.0000000  0 10G23G03G07G19G11G28G01G24G08G13
 119959833.322 7  93475248.48144  22827611.813                    22827621.141
 122952034.187 6  95806818.54143  23397002.070                    23397013.074
 109102304.962 8  85014838.571 7  20761484.898                    20761493.281
 113021763.712 7  88068961.98046  21507330.891                    21507338.855
 118654520.432 7  92458164.58644  22579206.867                    22579217.836
 121128712.560 7  94386007.60244  23050007.898                    23050017.125
 127163308.880 6  99088362.277 7  24198380.477                    24198398.691
 126311223.934 6  98424443.83743  24036236.563                    24036251.684
 116081625.169 7  90453302.89845  22089600.719                    22089609.660
 111042322.387 8  86526332.25245  21130611.914                    21130621.316
 11  8 23 17 14  0.0000000  0 10G23G03G07G19G11G28G01G24G08G13
 120068620.661 7  93560017.68244  22848313.523                    22848323.605
 123057091.160 6  95888681.00243  23416993.883                    23417005.313
 109064030.454 7  84985014.262 7  20754201.063                    20754210.047
 113081143.013 8  88115231.54346  21518630.695                    21518638.402
 118588186.927 7  92406476.18644  22566583.773                    22566594.598
 121087949.247 7  94354244.00344  23042250.977                    23042260.285
 127086524.003 6  99028530.065 6  24183768.313                    24183787.176
 126238724.741 6  98367951.15243  24022440.656                    24022454.602
 116010232.364 7  90397672.15845  22076014.867                    22076024.691
 111120706.750 8  86587410.90745  21145527.930                    21145537.316
 11  8 23 17 14 30.0000000  0 10G23G03G07G19G11G28G01G24G08G13
 120177585.158 7  93644924.95544  22869048.703                    22869057.977
 123162334.705 6  95970688.87443  23437020.695                    23437031.824
 109025992.281 8  84955374.115 7  20746962.750                    20746971.477
 113141021.027 7  88161889.70946  21530025.430                    21530032.656
 118522119.913 7  92354995.43244  22554011.867                    22554022.082
 121047361.994 7  94322617.60544  23034527.375                    23034537.035
 127009713.013 6  98968677.535 6  24169151.641                    24169169.863
 126166218.085 6  98311452.64643  24008643.156                    24008657.000
 115938887.069 7  90342078.44045  22062438.320                    22062447.578
 111199525.688 8  86648828.19745  21160526.609                    21160536.316
 11  8 23 17 15  0.0000000  0 10G23G03G07G19G11G28G01G24G08G13
 120286723.820 7  93729967.91644  22889816.750                    22889827.074
 123267762.024 6  96052839.97843  23457082.492                    23457094.285
 108988192.584 7  84925919.796 7  20739769.672                    20739778.344
 113201395.188 7  88208934.48946  21541514.281                    21541521.586
 118456322.594 7  92303724.84244  22541491.266                    22541501.563
 121006949.765 7  94291127.59944  23026837.445                    23026846.574
 126932879.391 6  98908807.403 6  24154529.930                    24154547.730
 126093707.092 6  98254950.75543  23994843.828                    23994857.941
 115867591.324 7  90286523.32245  22048871.000                    22048880.645
 111278776.851 8  86710582.30846  21175607.547                    21175617.266
 11  8 23 17 15 30.0000000  0 10G23G03G07G19G11G28G01G24G08G13
 120396033.905 7  93815144.44644  22910618.367                    22910628.078
 123373370.665 6  96135132.35143  23477179.828                    23477191.105
 108950633.298 8  84896652.817 7  20732622.500                    20732631.176
 113262263.540 7  88256364.35546  21553096.898                    21553104.352
 118390797.978 7  92252666.73644  22529022.109                    22529032.316
 120966711.678 7  94259773.26244  23019180.164                    23019189.508
 126856025.661 6  98848921.534 6  24139905.922                    24139922.328
 126021194.492 6  98198447.63343  23981045.195                    23981059.215
 115796346.455 7  90231007.85545  22035313.563                    22035323.027
 111358457.737 7  86772671.24946  21190770.859                    21190780.258
 11  8 23 17 16  0.0000000  0 10G23G03G07G19G11G28G01G24G08G13
 120505512.375 7  93900452.18944  22931451.305                    22931461.504
 123479157.130 6  96217563.27743  23497309.859                    23497321.648
 108913315.992 7  84867574.385 7  20725521.563                    20725529.852
 113323623.766 7  88304177.48046  21564773.711                    21564780.875
 118325548.941 7  92201823.38444  22516605.813                    22516615.738
 120926647.150 7  94228554.19044  23011556.078                    23011565.719
 126779154.773 6  98789022.334 6  24125278.195                    24125293.387
 125948683.060 6  98141945.41743  23967246.203                    23967262.313
 115725154.206 7  90175533.38845  22021765.688                    22021775.281
 111438565.532 8  86835092.83246  21206014.836                    21206024.438
 11  8 23 17 16 30.0000000  0 10G23G03G07G19G11G28G01G24G08G13
 120615156.613 7  93985889.08944  22952316.492                    22952326.410
 123585119.082 6  96300130.95543  23517473.578                    23517484.805
 108876242.606 7  84838686.028 7  20718466.391                    20718474.926
 113385473.063 7  88352371.70746  21576543.180                    21576550.430
 118260578.515 7  92151197.13344  22504242.117                    22504251.820
 120886754.704 7  94197469.18944  23003964.945                    23003974.707
 126702269.394 6  98729111.768 6  24110647.438                    24110662.555
 125876175.726 6  98085446.37643  23953448.195                    23953464.859
 115654016.055 7  90120101.09045  22008228.813                    22008238.355
 111519097.409 7  86897844.88746  21221339.352                    21221349.152
 11  8 23 17 17  0.0000000  0 10G23G03G07G19G11G28G01G24G08G13
 120724963.046 7  94071452.35644  22973211.797                    22973222.008
 123691253.848 6  96382833.31843  23537670.664                    23537681.664
 108839414.913 8  84809989.124 7  20711458.336                    20711466.918
 113447809.193 7  88400945.28946  21588405.281                    21588412.586
 118195889.191 7  92100789.91944  22491932.406                    22491941.973
 120847033.922 7  94166517.95144  22996406.344                    22996415.547
 126625372.090 7  98669191.894 6  24096013.430                    24096030.527
 125803675.361 6  98028952.77743  23939652.063                    23939667.871
 115582933.586 7  90064712.17245  21994702.156                    21994711.781
 111600050.830 7  86960925.41346  21236744.609                    21236754.137
 11  8 23 17 17 30.0000000  0 10G23G03G07G19G11G28G01G24G08G13
 120834929.196 7  94157140.07644  22994138.188                    22994147.738
 123797558.699 6  96465668.15043  23557899.250                    23557911.305
 108802835.275 8  84781485.504 7  20704497.313                    20704505.887
 113510629.844 8  88449896.41746  21600360.078                    21600367.559
 118131484.466 7  92050604.49544  22479676.570                    22479686.059
 120807483.810 7  94135699.71144  22988880.242                    22988889.578
 126548466.785 6  98609265.852 6  24081378.219                    24081395.547
 125731185.120 6  97972467.02443  23925858.016                    23925873.445
 115511908.701 7  90009368.12145  21981186.813                    21981196.285
 111681423.531 7  87024332.65345  21252228.930                    21252238.543
 11  8 23 17 18  0.0000000  0 10G23G03G07G19G11G28G01G24G08G13
 120945051.738 7  94242949.68644  23015093.875                    23015104.121
 123904030.857 6  96548633.38243  23578160.781                    23578172.672
 108766505.345 8  84753176.461 7  20697583.984                    20697592.406
 113573932.642 7  88499223.24846  21612405.969                    21612412.887
 118067367.365 7  92000643.16744  22467475.508                    22467485.613
 120768103.626 7  94105013.85844  22981386.430                    22981395.543
 126471555.385 6  98549334.982 6  24066742.516                    24066759.844
 125658707.651 6  97915991.23643  23912065.563                    23912081.270
 115440942.952 7  89954070.14645  21967682.508                    21967692.465
 111763212.654 7  87088064.37045  21267793.180                    21267802.805
 11  8 23 17 18 30.0000000  0 10G23G03G07G19G11G28G01G24G08G13
 121055327.640 7  94328878.78644  23036078.367                    23036088.727
 124010667.538 6  96631726.84142  23598454.164                    23598465.453
 108730427.039 8  84725063.489 7  20690718.734                    20690727.113
 113637715.345 8  88548924.02946  21624542.992                    21624550.391
 118003540.447 7  91950907.96044  22455329.313                    22455339.660
 120728892.284 7  94074459.58844  22973925.102                    22973933.695
 126394641.048 6  98489401.875 6  24052106.852                    24052124.957
 125586246.021 6  97859527.84543  23898276.203                    23898292.098
 115370038.252 8  89898819.76545  21954189.828                    21954199.699
 111845415.311 8  87152118.31945  21283435.852                    21283445.316
 11  8 23 17 19  0.0000000  0 10G23G03G07G19G11G28G01G24G08G13
 121165754.142 6  94414925.25844  23057092.367                    23057102.141
 124117465.643 6  96714945.98642  23618776.469                    23618788.125
 108694602.181 8  84697148.014 7  20683901.391                    20683910.121
 113701975.221 8  88598996.63346  21636771.414                    21636778.879
 117940006.796 7  91901401.26044  22443238.852                    22443249.832
 120689849.124 7  94044036.36244  22966494.992                    22966504.254
 126317726.490 6  98429468.613 6  24037469.680                    24037487.270
 125513802.930 6  97803078.83343  23884490.430                    23884505.418
 115299196.412 8  89843618.34145  21940709.148                    21940718.316
 111928028.934 7  87216492.50545  21299156.852                    21299165.750
 11  8 23 17 19 30.0000000  0 10G23G03G07G19G11G28G01G24G08G13
 121276328.513 7  94501086.91144  23078133.859                    23078144.309
 124224422.966 6  96798289.33242  23639130.516                    23639141.168
 108659032.877 8  84669431.665 7  20677132.758                    20677141.520
 113766709.909 8  88649439.21046  21649090.070                    21649097.477
 117876769.478 7  91852125.46144  22431205.109                    22431215.723
 120650973.057 7  94013743.33744  22959097.344                    22959106.102
 126240814.859 6  98369537.591 6  24022834.734                    24022850.563
 125441381.633 6  97746646.77043  23870709.227                    23870723.801
 115228418.929 7  89788467.07145  21927239.977                    21927249.777
 112011051.106 7  87281185.04845  21314955.445                    21314964.887
 11  8 23 17 20  0.0000000  0 10G23G03G07G19G11G28G01G24G08G13
 121387047.659 7  94587361.40144  23099203.664                    23099213.445
 124331536.321 6  96881754.15042  23659513.086                    23659524.348
 108623721.003 8  84641915.916 7  20670413.352                    20670421.941
 113831917.027 7  88700249.91546  21661499.063                    21661506.313
 117813831.239 7  91803082.71745  22419228.492                    22419239.117
 120612263.456 7  93983580.03044  22951730.813                    22951739.918
 126163908.578 7  98309610.714 6  24008200.078                    24008215.766
 125368984.873 6  97690233.87743  23856932.805                    23856946.895
 115157707.856 7  89733367.53645  21913784.469                    21913794.215
 112094478.975 7  87346193.71745  21330831.180                    21330840.695
 11  8 23 17 20 30.0000000  0 10G23G03G07G19G11G28G01G24G08G13
 121497908.274 7  94673746.13044  23120299.523                    23120309.645
 124438802.783 6  96965338.34242  23679925.063                    23679936.543
 108588668.048 8  84614601.920 7  20663742.883                    20663751.531
 113897593.887 8  88751426.65846  21673996.695                    21674003.992
 117751195.070 7  91754275.36145  22407309.008                    22407319.832
 120573719.315 7  93953545.65044  22944396.359                    22944405.148
 126087010.959 7  98249690.595 6  23993565.977                    23993582.828
 125296615.415 6  97633842.24443  23843161.109                    23843176.473
 115087064.461 7  89678320.73845  21900341.227                    21900351.250
 112178309.731 8  87411516.31945  21346783.813                    21346793.418
 11  8 23 17 21  0.0000000  0 10G23G03G07G19G11G28G01G24G08G13
 121608907.969 7  94760239.21744  23141421.969                    23141432.691
 124546220.153 6  97049040.09842  23700365.719                    23700377.367
 108553876.734 8  84587491.798 7  20657121.859                    20657130.844
 113963738.740 8  88802968.06446  21686583.945                    21686591.254
 117688864.233 7  91705705.94644  22395448.336                    22395458.313
 120535340.066 7  93923639.76444  22937092.469                    22937102.055
 126010124.762 6  98189779.385 6  23978934.766                    23978951.984
 125224276.634 7  97577474.48543  23829395.219                    23829410.781
 115016490.892 7  89623328.36145  21886911.867                    21886921.352
 112262540.995 8  87477151.00845  21362812.336                    21362822.285
 11  8 23 17 21 30.0000000  0 10G23G03G07G19G11G28G01G24G08G13
 121720043.598 7  94846838.23644  23162571.023                    23162581.211
 124653785.665 6  97132857.32443  23720835.203                    23720845.895
 108519348.879 8  84560586.965 7  20650551.727                    20650560.297
 114030348.674 8  88854871.87846  21699259.055                    21699266.520
 117626841.577 7  91657376.66244  22383645.375                    22383655.832
 120497124.549 7  93893861.47744  22929820.789                    22929830.145
 125933252.770 6  98129879.255 6  23964306.563                    23964323.445
 125151971.417 7  97521132.85943  23815635.781                    23815651.336
 114945988.944 7  89568391.78245  21873496.102                    21873505.625
 112347169.854 8  87543095.51445  21378916.742                    21378926.801
 11  8 23 17 22  0.0000000  0 10G23G03G07G19G11G28G01G24G08G13
 121831312.209 7  94933540.84844  23183744.305                    23183755.449
 124761496.617 6  97216787.84142  23741332.031                    23741343.121
 108485086.401 8  84533888.921 7  20644032.008                    20644040.375
 114097421.362 8  88907136.27346  21712022.867                    21712030.148
 117565129.975 7  91609289.74144  22371902.102                    22371911.746
 120459071.963 7  93864210.12344  22922579.555                    22922588.719
 125856398.466 6  98069992.906 7  23949681.344                    23949699.117
 125079702.880 6  97464819.81143  23801883.992                    23801898.680
 114875560.410 7  89513512.42445  21860093.672                    21860103.250
 112432193.795 8  87609347.86645  21395096.586                    21395106.672
 11  8 23 17 22 30.0000000  0 10G23G03G07G19G11G28G01G24G08G13
 121942710.740 7  95020344.69644  23204943.211                    23204952.914
 124869350.273 6  97300829.52842  23761855.117                    23761867.184
 108451090.743 8  84507398.792 8  20637562.875                    20637571.613
 114164953.870 8  88959758.97445  21724873.445                    21724880.605
 117503732.152 7  91561447.34444  22360218.641                    22360228.547
 120421181.064 7  93834684.76844  22915369.188                    22915378.203
 125779564.273 6  98010122.183 7  23935060.852                    23935077.594
 125007473.634 6  97408537.34943  23788139.078                    23788154.063
 114805207.010 8  89458691.60845  21846705.922                    21846715.238
 112517609.530 8  87675905.51445  21411350.203                    21411360.051
 11  8 23 17 23  0.0000000  0 10G23G03G07G19G11G28G01G24G08G13
 122054236.582 7  95107247.75644  23226165.727                    23226175.559
 124977344.079 6  97384980.48443  23782406.992                    23782418.297
 108417364.350 8  84481118.474 7  20631145.000                    20631153.480
 114232943.999 8  89012738.26146  21737811.695                    21737819.387
 117442651.294 7  91513851.91945  22348595.336                    22348605.809
 120383451.470 7  93805285.09844  22908189.016                    22908198.563
 125702753.519 6  97950269.748 6  23920444.516                    23920460.773
 124935286.754 6  97352287.91843  23774401.648                    23774417.051
 114734930.615 7  89403930.79145  21833332.695                    21833342.207
 112603415.042 8  87742766.88545  21427678.875                    21427688.820
 11  8 23 17 23 30.0000000  0 10G23G03G07G19G11G28G01G24G08G13
 122165886.872 7  95194247.80244  23247411.992                    23247422.191
 125085475.139 6  97469238.34942  23802982.945                    23802994.672
 108383909.161 8  84455049.496 7  20624778.500                    20624787.379
 114301389.423 8  89066072.31346  21750836.414                    21750843.734
 117381890.105 7  91466505.58245  22337032.891                    22337042.766
 120345882.118 7  93776010.30544  22901039.766                    22901049.449
 125625968.864 6  97890437.663 7  23905832.570                    23905848.805
 124863145.380 6  97296073.96443  23760674.047                    23760688.734
 114664733.179 7  89349231.51745  21819975.000                    21819984.391
 112689607.259 7  87809929.59145  21444080.859                    21444090.445
 11  8 23 17 24  0.0000000  0 10G23G03G07G19G11G28G01G24G08G13
 122277657.711 7  95281341.76244  23268682.344                    23268692.605
 125193740.770 6  97553601.03442  23823585.867                    23823597.438
 108350726.269 8  84429192.684 7  20618463.844                    20618472.543
 114370286.860 8  89119758.58746  21763947.078                    21763954.816
 117321451.179 7  91419410.36545  22325531.766                    22325541.906
 120308471.829 7  93746859.44744  22893920.258                    22893930.098
 125549212.485 6  97830627.636 7  23891225.680                    23891243.434
 124791051.684 7  97239897.17843  23746955.703                    23746969.652
 114594616.222 8  89294594.94545  21806631.766                    21806641.371
 112776182.643 8  87877390.84545  21460555.484                    21460565.074
 11  8 23 17 24 30.0000000  0 10G23G03G07G19G11G28G01G24G08G13
 122389546.651 7  95368527.75744  23289973.523                    23289984.938
 125302137.903 6  97638066.26742  23844212.469                    23844224.543
 108317817.661 8  84403549.607 8  20612201.563                    20612210.371
 114439633.971 8  89173795.25745  21777143.688                    21777151.281
 117261337.352 7  91372568.47245  22314092.070                    22314102.313
 120271219.685 7  93717831.80544  22886832.156                    22886841.211
 125472487.805 6  97770842.312 7  23876626.141                    23876643.230
 124719008.999 6  97183760.12843  23733245.734                    23733259.922
 114524581.439 8  89240022.40245  21793304.289                    21793313.781
 112863138.503 8  87945148.57845  21477103.266                    21477112.566
 11  8 23 17 25  0.0000000  0 10G23G03G07G19G11G28G01G24G08G13
 122501551.132 7  95455803.78444  23311287.938                    23311298.715
 125410664.495 6  97722632.36243  23864865.008                    23864876.617
 108285185.926 8  84378122.261 7  20605992.141                    20606000.941
 114509428.323 8  89228180.41146  21790424.742                    21790432.449
 117201551.810 7  91325982.37845  22302715.680                    22302725.613
 120234124.946 7  93688926.82644  22879773.773                    22879782.738
 125395798.242 7  97711084.339 7  23862032.234                    23862049.328
 124647020.769 6  97127665.51543  23719546.422                    23719561.207
 114454630.926 7  89185515.52145  21779993.211                    21780002.926
 112950472.826 8  88013201.22245  21493721.695                    21493731.496
 11  8 23 17 25 30.0000000  0 10G23G03G07G19G11G28G01G24G08G13
 122613667.869 7  95543167.26444  23332623.203                    23332633.766
 125519317.587 6  97807296.98142  23885541.281                    23885552.563
 108252832.751 8  84352911.986 7  20599835.336                    20599844.176
 114579667.440 7  89282912.15945  21803791.359                    21803798.930
 117142097.529 7  91279654.40944  22291401.445                    22291411.379
 120197186.736 7  93660143.82744  22872743.984                    22872754.285
 125319146.226 7  97651355.609 6  23847445.445                    23847461.875
 124575089.654 6  97071615.41543  23705858.781                    23705873.227
 114384766.580 7  89131075.78145  21766698.523                    21766708.223
 113038182.349 8  88081546.23145  21510412.758                    21510422.512
 11  8 23 17 26  0.0000000  0 10G23G03G07G19G11G28G01G24G08G13
 122725894.561 7  95630616.41044  23353978.852                    23353989.688
 125628094.692 6  97892058.35843  23906240.781                    23906251.875
 108220760.766 8  84327920.826 8  20593732.727                    20593740.953
 114650349.238 8  89337988.84246  21817241.797                    21817249.285
 117082977.605 7  91233586.96744  22280151.078                    22280161.039
 120160404.394 7  93631482.28944  22865744.836                    22865754.781
 125242535.481 6  97591659.008 6  23832867.289                    23832883.105
 124503219.206 6  97015612.58043  23692181.758                    23692196.895
 114314990.633 7  89076704.93345  21753420.711                    21753430.367
 113126264.882 8  88150181.90045  21527174.320                    21527184.180
 11  8 23 17 26 30.0000000  0 10G23G03G07G19G11G28G01G24G08G13
 122838227.919 7  95718148.66244  23375355.570                    23375366.410
 125736993.603 6  97976914.53042  23926964.422                    23926975.340
 108188971.765 8  84303150.162 8  20587683.359                    20587692.246
 114721471.078 8  89393408.41845  21830775.422                    21830783.293
 117024195.067 7  91187782.40844  22268965.391                    22268975.563
 120123776.785 7  93602941.33145  22858774.680                    22858784.535
 125165968.952 6  97531996.899 6  23818296.320                    23818313.629
 124431412.545 6  96959659.41843  23678516.898                    23678532.699
 114245305.047 8  89022404.49345  21740159.836                    21740169.777
 113214717.608 7  88219106.03245  21544006.328                    21544016.418
 11  8 23 17 27  0.0000000  0 10G23G03G07G19G11G28G01G24G08G13
 122950664.953 7  95805761.73643  23396751.680                    23396762.059
 125846011.132 6  98061863.18242  23947708.445                    23947720.074
 108157467.208 8  84278601.148 8  20581688.000                    20581696.945
 114793029.672 8  89449168.32546  21844392.969                    21844400.137
 116965752.143 7  91142242.51645  22257844.117                    22257854.180
 120087303.241 7  93574520.40445  22851834.063                    22851844.000
 125089448.958 6  97472371.042 6  23803735.594                    23803751.578
 124359672.003 6  96903757.83143  23664865.203                    23664881.117
 114175711.159 8  88968175.49345  21726916.484                    21726926.367
 113303537.014 7  88288315.89445  21560908.219                    21560918.422
 11  8 23 17 27 30.0000000  0 10G23G03G07G19G11G28G01G24G08G13
 123063202.579 7  95893453.17143  23418166.344                    23418177.918
 125955144.667 6  98146902.27942  23968476.867                    23968487.543
 108126248.746 8  84254275.065 7  20575747.344                    20575756.238
 114865022.599 8  89505266.66145  21858092.484                    21858100.129
 116907651.825 7  91096969.60545  22246788.336                    22246798.648
 120050982.512 7  93546218.55245  22844922.273                    22844932.109
 125012978.609 6  97412783.928 6  23789183.773                    23789199.641
 124288000.478 6  96847910.02543  23651226.359                    23651241.699
 114106210.777 8  88914019.36145  21713690.961                    21713701.246
 113392720.346 7  88357809.34245  21577879.656                    21577889.012
 11  8 23 17 28  0.0000000  0 10G23G03G07G19G11G28G01G24G08G13
 123175837.866 7  95981220.70144  23439601.063                    23439611.914
 126064391.570 6  98232029.64842  23989265.219                    23989277.172
 108095318.562 8  84230173.617 8  20569861.773                    20569870.633
 114937447.428 8  89561701.55346  21871874.508                    21871882.422
 116849896.730 7  91051965.68245  22235797.539                    22235808.055
 120014813.760 7  93518035.13045  22838039.484                    22838049.398
 124936560.795 7  97353237.713 6  23774642.336                    23774657.652
 124216401.274 6  96792118.57443  23637601.844                    23637616.180
 114036806.156 8  88859937.85545  21700483.555                    21700493.305
 113482264.955 7  88427584.29445  21594919.078                    21594929.164
 11  8 23 17 28 30.0000000  0 10G23G03G07G19G11G28G01G24G08G13
 123288567.971 7  96069062.09944  23461052.938                    23461064.383
 126173749.503 5  98317243.55742  24010075.039                    24010087.395
 108064678.510 8  84206298.249 8  20564030.875                    20564039.707
 115010301.293 8  89618470.75045  21885738.344                    21885746.125
 116792490.002 7  91007233.21045  22224873.336                    22224883.758
 119978795.945 7  93489969.30345  22831185.664                    22831195.961
 124860198.475 7  97293734.715 6  23760111.148                    23760126.535
 124144877.432 7  96736385.83443  23623991.680                    23624005.164
 113967499.069 8  88805932.33545  21687295.227                    21687304.969
 113572167.698 7  88497638.29445  21612027.180                    21612036.836
 11  8 23 17 29  0.0000000  0 10G23G03G07G19G11G28G01G24G08G13
 123401390.145 7  96156975.29844  23482523.133                    23482533.934
 126283215.844 6  98402541.84142  24030905.297                    24030918.207
 108034330.819 8  84182650.688 8  20558256.063                    20558265.082
 115083581.567 7  89675572.21945  21899682.789                    21899690.539
 116735434.211 7  90962774.18145  22214015.906                    22214025.629
 119942927.954 7  93462020.24045  22824359.930                    22824370.410
 124783894.802 6  97234277.434 6  23745590.250                    23745605.262
 124073432.014 7  96680714.21243  23610395.875                    23610409.832
 113898291.663 8  88752004.50845  21674125.414                    21674134.711
 113662425.874 7  88567969.26245  21629202.375                    21629212.410
 11  8 23 17 29 30.0000000  0 10G23G03G07G19G11G28G01G24G08G13
 123514301.102 7  96244957.66644  23504009.047                    23504020.180
 126392787.837 6  98487922.52543  24051757.102                    24051769.551
 108004277.020 8  84159232.134 8  20552537.297                    20552546.031
 115157285.509 8  89733003.81345  21913708.797                    21913715.715
 116678732.318 7  90918590.92144  22203225.648                    22203235.340
 119907209.216 7  93434187.49244  22817563.313                    22817573.012
 124707652.479 6  97174868.005 6  23731081.898                    23731096.621
 124002067.869 6  96625105.89743  23596814.516                    23596829.977
 113829185.716 7  88698155.73945  21660974.625                    21660984.594
 113753036.544 8  88638574.89945  21646445.258                    21646454.852
 11  8 23 17 30  0.0000000  0 10G23G03G07G19G11G28G01G24G08G13
 123627298.455 7  96333007.33044  23525512.344                    23525523.207
 126502462.969 6  98573383.57543  24072628.273                    24072639.434
 107974519.649 8  84136044.568 8  20546874.492                    20546883.105
 115231410.869 8  89790763.80045  21927814.164                    21927821.707
 116622387.290 7  90874685.74745  22192503.719                    22192513.504
 119871638.908 7  93406470.38045  22810793.766                    22810803.871
 124631474.983 7  97115509.065 6  23716585.148                    23716601.723
 123930788.116 7  96569563.34143  23583251.227                    23583265.695
 113760183.356 7  88644387.67345  21647844.063                    21647853.676
 113843996.935 7  88709453.03545  21663754.797                    21663764.520
 11  8 23 17 30 30.0000000  0 10G23G03G07G19G11G28G01G24G08G13
 123740379.138 7  96421121.86144  23547030.453                    23547041.445
 126612238.583 6  98658922.95243  24093517.672                    24093529.160
 107945060.481 8  84113089.356 8  20541268.305                    20541276.754
 115305954.858 8  89848849.98745  21941999.477                    21942006.633
 116566401.823 7  90831060.76945  22181850.039                    22181860.199
 119836216.074 7  93378868.18444  22804053.586                    22804063.582
 124555365.983 7  97056203.465 7  23702102.547                    23702118.805
 123859595.862 7  96514089.01344  23569703.938                    23569717.965
 113691286.628 8  88590701.91945  21634733.703                    21634743.398
 113935304.231 7  88780601.49545  21681130.148                    21681139.641
 11  8 23 17 31  0.0000000  0 10G23G03G07G19G11G28G01G24G08G13
 123853539.851 6  96509298.79344  23568564.555                    23568575.496
 126722112.147 6  98744538.64442  24114425.266                    24114437.324
 107915900.966 8  84090367.650 8  20535719.711                    20535728.418
 115380914.447 8  89907260.01745  21956264.055                    21956271.297
 116510778.383 7  90787717.86744  22171264.867                    22171274.926
 119800939.521 7  93351379.97244  22797340.477                    22797349.949
 124479326.776 6  96996952.292 6  23687631.867                    23687648.531
 123788493.988 6  96458685.12043  23556173.102                    23556187.766
 113622497.053 8  88537099.66045  21621643.242                    21621652.770
 114026955.253 7  88852017.80745  21698570.656                    21698581.082
 11  8 23 17 31 30.0000000  0 10G23G03G07G19G11G28G01G24G08G13
 123966778.137 6  96597536.09043  23590113.227                    23590124.840
 126832081.212 6  98830228.74442  24135352.023                    24135363.754
 107887043.320 8  84067881.169 8  20530228.227                    20530236.875
 115456287.081 7  89965991.89245  21970606.719                    21970614.496
 116455520.061 7  90744659.47844  22160749.570                    22160759.664
 119765808.182 7  93324004.92145  22790655.672                    22790664.605
 124403361.058 6  96937758.386 6  23673175.531                    23673191.973
 123717485.941 7  96403354.27043  23542661.172                    23542674.586
 113553817.136 8  88483582.85646  21608573.977                    21608583.773
 114118947.107 7  88923699.69745  21716075.750                    21716086.445
 11  8 23 17 32  0.0000000  0 10G23G03G07G19G11G28G01G24G08G13
 124080090.984 6  96685831.53044  23611676.531                    23611687.582
 126942143.050 6  98915991.12942  24156296.180                    24156307.754
 107858489.428 8  84045631.376 8  20524794.531                    20524803.250
 115532070.340 8  90025043.73745  21985027.930                    21985035.461
 116400629.591 7  90701887.72945  22150304.570                    22150313.836
 119730821.329 7  93296742.45745  22783997.813                    22784007.520
 124327472.064 6  96878624.227 7  23658734.086                    23658751.004
 123646574.497 7  96348098.71343  23529167.281                    23529180.910
 113485248.755 8  88430152.96645  21595525.656                    21595535.352
 114211277.497 7  88995645.36645  21733646.156                    21733656.438
 11  8 23 17 32 30.0000000  0  9G23G07G19G11G28G01G24G08G13
 124193475.728 7  96774182.99344  23633253.016                    23633264.414
 107830241.590 8  84023620.073 8  20519418.961                    20519427.852
 115608261.845 8  90084413.69545  21999526.750                    21999533.957
 116346110.001 7  90659404.97345  22139929.688                    22139939.402
 119695978.140 7  93269591.93844  22777367.305                    22777376.848
 124251662.692 6  96819552.097 7  23644308.797                    23644325.402
 123575762.841 6  96292920.95643  23515691.266                    23515706.320
 113416794.003 7  88376811.60445  21582499.469                    21582508.883
 114303942.635 7  89067851.88145  21751279.609                    21751289.641
 11  8 23 17 33  0.0000000  0  9G23G07G19G11G28G01G24G08G13
 124306929.383 6  96862588.21243  23654842.352                    23654854.328
 107802301.677 8  84001848.706 8  20514102.781                    20514111.570
 115684858.506 7  90144099.36445  22014102.633                    22014110.027
 116291963.806 7  90617213.18945  22129626.094                    22129636.020
 119661277.737 7  93242552.67845  22770763.844                    22770773.254
 124175936.270 7  96760544.642 7  23629898.656                    23629914.797
 123505054.099 7  96237823.35544  23502236.328                    23502250.801
 113348454.840 8  88323560.32345  21569494.492                    21569504.066
 114396940.192 7  89140317.42945  21768976.523                    21768986.250
 11  8 23 17 33 30.0000000  0  9G23G07G19G11G28G01G24G08G13
 124420448.971 6  96951044.76243  23676444.320                    23676456.641
 107774671.386 8  83980318.606 8  20508844.719                    20508853.469
 115761857.418 7  90204098.47045  22028755.320                    22028762.777
 116238193.816 7  90575314.53345  22119393.766                    22119403.961
 119626719.130 7  93215623.91945  22764187.164                    22764197.039
 124100295.719 7  96701604.114 6  23615504.055                    23615519.797
 123434451.183 7  96182808.22843  23488800.867                    23488814.512
 113280233.563 8  88270400.89545  21556512.563                    21556522.234
 114490267.039 7  89213039.56145  21786736.164                    21786746.004
 11  8 23 17 34  0.0000000  0  9G23G07G19G11G28G01G24G08G13
 124534031.440 7  97039550.37743  23698059.086                    23698069.961
 107747352.150 8  83959030.877 8  20503645.711                    20503654.770
 115839255.648 7  90264408.73545  22043483.445                    22043491.008
 116184802.077 7  90533710.61245  22109233.523                    22109243.934
 119592300.971 7  93188804.57345  22757638.391                    22757647.855
 124024743.370 7  96642732.312 7  23601127.438                    23601143.035
 123363956.769 6  96127877.61943  23475385.453                    23475399.254
 113212131.779 8  88217334.58645  21543553.008                    21543562.512
 114583919.667 7  89286015.55345  21804558.141                    21804568.340
 11  8 23 17 34 30.0000000  0  9G23G07G19G11G28G01G24G08G13
 124647673.899 7  97128102.72843  23719684.156                    23719696.258
 107720346.242 8  83937987.307 8  20498506.664                    20498515.531
 115917050.731 7  90325028.24245  22058287.234                    22058295.066
 116131791.758 7  90492403.89645  22099146.234                    22099155.813
 119558022.705 7  93162094.25745  22751115.313                    22751124.582
 123949282.732 7  96583931.910 7  23586767.242                    23586783.434
 123293574.021 6  96073034.03143  23461991.828                    23462005.438
 113144151.741 7  88164363.13745  21530616.883                    21530626.359
 114677895.486 7  89359243.37445  21822440.867                    21822451.113
 11  8 23 17 35  0.0000000  0  9G23G07G19G11G28G01G24G08G13
 124761373.894 7  97216699.86843  23741321.602                    23741332.176
 107693655.768 7  83917189.527 8  20493427.617                    20493436.219
 115995240.151 7  90385955.02345  22073166.680                    22073173.840
 116079165.798 7  90451396.68545  22089131.961                    22089141.766
 119523883.337 7  93135492.15945  22744618.523                    22744627.652
 123873916.907 7  96525205.399 7  23572425.539                    23572441.297
 123223306.456 6  96018280.21543  23448621.180                    23448634.031
 113076295.417 8  88111488.09145  21517704.547                    21517713.625
 114772191.966 7  89432721.03445  21840384.930                    21840395.090
 11  8 23 17 35 30.0000000  0  9G23G07G19G11G28G01G24G08G13
 124875128.418 6  97305339.51043  23762967.914                    23762979.688
 107667282.962 8  83896639.280 7  20488409.414                    20488417.809
 116073821.401 7  90447187.12245  22088120.398                    22088127.586
 116026927.038 7  90410691.20845  22079191.086                    22079201.609
 119489882.119 7  93108997.70444  22738148.047                    22738157.738
 123798649.161 7  96466555.292 6  23558102.453                    23558117.852
 123153157.100 6  95963618.51443  23435271.688                    23435285.586
 113008565.244 8  88058711.33746  21504815.883                    21504825.320
 114866806.209 7  89506446.32245  21858389.359                    21858398.895
 11  8 23 17 36  0.0000000  0  9G23G07G19G11G28G01G24G08G13
 124988934.543 6  97394019.28743  23784625.016                    23784637.313
 107641229.257 8  83876337.677 7  20483451.648                    20483460.113
 116152791.424 7  90508722.15445  22103147.359                    22103155.180
 115975077.561 7  90370289.04145  22069324.547                    22069334.625
 119456017.697 7  93082609.85244  22731704.211                    22731713.266
 123723482.091 7  96407983.692 6  23543798.906                    23543814.000
 123083128.966 6  95909051.28343  23421944.992                    23421959.754
 112940962.975 8  88006034.25945  21491951.906                    21491961.047
 114961734.914 7  89580416.64545  21876453.836                    21876463.730
 11  8 23 17 36 30.0000000  0 10G23G17G07G19G11G28G01G24G08G13
 125102789.235 6  97482736.89843  23806291.609                    23806303.629
 129516574.57716 100922055.60516  24646191.656                    24646205.641
 107615496.270 8  83856285.980 8  20478554.563                    20478563.430
 116232147.098 7  90570557.70445  22118248.438                    22118256.102
 115923620.037 7  90330192.30745  22059532.078                    22059542.418
 119422289.110 7  93056327.85044  22725286.234                    22725295.035
 123648418.833 7  96349492.939 6  23529514.594                    23529529.578
 123013224.713 6  95854580.52043  23408642.164                    23408656.742
 112873490.592 8  87953458.38845  21479112.102                    21479121.652
 115056974.623 7  89654629.30645  21894577.516                    21894588.090
 11  8 23 17 37  0.0000000  0 10G23G17G07G19G11G28G01G24G08G13
 125216689.858 6  97571490.32343  23827966.047                    23827978.344
 129412052.191 6 100840609.744 6  24626301.422                    24626315.934
 107590085.969 8  83836485.724 8  20473719.539                    20473728.422
 116311885.807 7  90632691.71445  22133422.203                    22133430.035
 115872557.320 7  90290403.19245  22049815.516                    22049824.652
 119388695.631 7  93030151.11544  22718893.008                    22718902.238
 123573462.380 7  96291085.413 7  23515250.180                    23515266.199
 122943447.709 6  95800208.90343  23395365.273                    23395378.762
 112806150.312 8  87900985.45545  21466297.602                    21466307.160
 115152522.710 7  89729082.25845  21912759.750                    21912770.008
 11  8 23 17 37 30.0000000  0 10G23G17G07G19G11G28G01G24G08G13
 125330634.271 6  97660277.87543  23849648.867                    23849661.156
 129307631.015 6 100759242.737 6  24606430.383                    24606445.332
 107565001.432 8  83816939.320 8  20468945.391                    20468954.793
 116392005.591 7  90695122.66945  22148668.750                    22148676.871
 115821892.853 7  90250924.42045  22040174.320                    22040183.465
 119355236.970 7  93004079.45045  22712526.109                    22712535.379
 123498616.647 7  96232764.140 7  23501007.906                    23501023.898
 122873801.672 7  95745939.40244  23382112.219                    23382125.883
 112738944.833 8  87848617.56146  21453508.477                    21453518.254
 115248377.300 7  89803774.03545  21931000.336                    21931010.938
 11  8 23 17 38  0.0000000  0 10G23G17G07G19G11G28G01G24G08G13
 125444618.820 6  97749096.70044  23871339.242                    23871351.145
 129203313.035 6 100677956.183 6  24586579.570                    24586593.930
 107540243.944 8  83797647.764 8  20464234.438                    20464243.281
 116472503.055 7  90757847.91945  22163986.875                    22163994.551
 115771628.616 7  90211757.53445  22030609.445                    22030618.656
 119321911.551 7  92978111.60345  22706184.719                    22706193.734
 123423883.761 7  96174530.803 7  23486786.891                    23486802.551
 122804289.082 7  95691773.91144  23368883.914                    23368898.438
 112671875.818 8  87796356.00145  21440746.148                    21440755.582
 115344534.291 7  89878701.46245  21949298.367                    21949308.383
 11  8 23 17 38 30.0000000  0 10G23G17G07G19G11G28G01G24G08G13
 125558640.729 6  97837944.62644  23893037.844                    23893050.027
 129099099.518 6 100596751.048 6  24566748.719                    24566763.383
 107515815.025 8  83778612.225 8  20459585.883                    20459594.828
 116553375.417 7  90820865.30345  22179376.164                    22179383.988
 115721767.123 7  90172904.44845  22021121.492                    22021130.715
 119288718.322 7  92952246.75945  22699868.172                    22699877.512
 123349267.235 7  96116388.136 7  23472587.797                    23472603.668
 122734913.047 7  95637714.76244  23355681.875                    23355696.668
 112604945.421 8  87744202.44945  21428009.453                    21428018.945
 115440990.713 7  89953862.20745  21967653.641                    21967663.992
 11  8 23 17 39  0.0000000  0 10G23G17G07G19G11G28G01G24G08G13
 125672697.073 7  97926819.38643  23914741.852                    23914755.078
 128994992.867 6 100515629.181 6  24546937.570                    24546951.820
 107491716.492 8  83759834.139 8  20454999.891                    20455008.891
 116634619.854 7  90884172.61045  22194836.297                    22194844.543
 115672310.552 7  90134366.86145  22011709.805                    22011719.922
 119255655.916 7  92926483.86445  22693576.664                    22693586.066
 123274769.510 6  96058338.043 6  23458410.703                    23458426.840
 122665676.448 7  95583764.22144  23342506.758                    23342520.594
 112538155.216 8  87692158.14046  21415299.992                    21415309.500
 115537743.132 7  90029253.59645  21986064.953                    21986076.012
 11  8 23 17 39 30.0000000  0 10G23G17G07G19G11G28G01G24G08G13
 125786785.061 6  98015718.81943  23936452.680                    23936464.898
 128890994.802 6 100434591.920 6  24527147.039                    24527161.105
 107467950.106 8  83741314.865 8  20450477.602                    20450486.250
 116716233.456 7  90947767.57545  22210366.789                    22210375.367
 115623261.945 8  90096147.19045  22002376.102                    22002386.305
 119222723.626 7  92900822.35445  22687310.078                    22687319.473
 123200393.963 7  96000383.174 6  23444257.844                    23444272.906
 122596582.240 7  95529924.68144  23329358.461                    23329372.828
 112471507.811 8  87640225.10746  21402617.188                    21402626.832
 115634788.712 7  90104873.42945  22004532.289                    22004542.418
 11  8 23 17 40  0.0000000  0 10G23G17G07G19G11G28G01G24G08G13
 125900901.987 6  98104640.82443  23958168.586                    23958181.016
 128787108.066 7 100353641.422 6  24507378.094                    24507392.273
 107444517.935 8  83723056.021 8  20446018.805                    20446027.637
 116798213.608 7  91011648.15945  22225967.477                    22225975.535
 115574623.883 8  90058247.43245  21993120.766                    21993130.840
 119189920.749 7  92875261.68845  22681068.008                    22681077.145
 123126143.592 7  95942525.830 6  23430128.188                    23430143.160
 122527633.599 6  95476198.59844  23316238.203                    23316252.809
 112405005.144 7  87588404.86145  21389961.789                    21389971.438
 115732124.978 7  90180719.76045  22023054.789                    22023064.660
 11  8 23 17 40 30.0000000  0 10G23G17G07G19G11G28G01G24G08G13
 126015044.455 6  98193582.70043  23979889.281                    23979900.398
 128683334.382 7 100272778.999 6  24487630.109                    24487644.414
 107421421.784 8  83705059.012 7  20441623.227                    20441632.398
 116880557.295 7  91075812.02845  22241636.750                    22241644.465
 115526398.669 8  90020669.38245  21983943.469                    21983953.293
 119157246.057 7  92849800.90345  22674849.992                    22674859.145
 123052021.480 7  95884768.458 6  23416022.984                    23416038.582
 122458833.560 6  95422588.29244  23303145.914                    23303159.879
 112338649.798 7  87536699.40245  21377335.234                    21377344.711
 115829748.318 7  90256789.77745  22041632.234                    22041641.773
 11  8 23 17 41  0.0000000  0 10G23G17G07G19G11G28G01G24G08G13
 126129210.295 6  98282542.77043  24001615.047                    24001626.504
 128579676.148 6 100192006.528 6  24467904.422                    24467918.621
 107398663.811 8  83687325.516 8  20437292.563                    20437301.887
 116963261.728 7  91140256.97945  22257375.578                    22257382.715
 115478589.373 7  89983415.41145  21974845.391                    21974855.254
 119124699.027 7  92824439.59145  22668656.195                    22668665.684
 122978030.690 7  95827113.417 6  23401943.383                    23401958.656
 122390185.513 7  95369096.40943  23290082.164                    23290095.488
 112272443.919 8  87485110.41646  21364736.508                    21364746.008
 115927655.943 7  90333081.32545  22060263.289                    22060273.664
 11  8 23 17 41 30.0000000  0 10G23G17G07G19G11G28G01G24G08G13
 126243396.535 6  98371518.72043  24023344.094                    24023355.309
 128476135.153 6 100111325.418 6  24448200.953                    24448215.371
 107376245.888 8  83669856.988 8  20433026.938                    20433035.652
 117046324.511 7  91204981.17945  22273181.453                    22273189.695
 115431198.212 7  89946487.27645  21965827.078                    21965836.598
 119092278.408 7  92799176.78145  22662486.555                    22662496.410
 122904174.005 7  95769562.830 7  23387889.117                    23387904.645
 122321692.622 7  95315725.47343  23277048.008                    23277060.879
 112206389.695 8  87433639.59345  21352167.039                    21352176.426
 116025844.992 7  90409592.16645  22078947.633                    22078958.531
 11  8 23 17 42  0.0000000  0 10G23G17G07G19G11G28G01G24G08G13
 126357600.529 6  98460508.53343  24045076.594                    24045088.465
 128372713.749 7 100030737.499 6  24428521.266                    24428535.203
 107354169.819 8  83652654.842 8  20428826.109                    20428834.961
 117129742.723 7  91269982.33645  22289055.680                    22289063.246
 115384227.984 7  89909887.14445  21956889.008                    21956898.898
 119059983.229 7  92774011.73045  22656341.531                    22656350.410
 122830455.152 6  95712119.658 7  23373860.578                    23373876.805
 122253358.095 6  95262477.92144  23264044.852                    23264058.609
 112140488.976 8  87382288.40446  21339626.398                    21339636.008
 116124312.593 7  90486320.04945  22097685.914                    22097696.523
 11  8 23 17 42 30.0000000  0 10G23G17G07G19G11G28G01G24G08G13
 126471819.309 6  98549509.86143  24066811.469                    24066824.211
 128269413.710 6  99950244.108 6  24408863.156                    24408877.508
 107332437.227 8  83635720.338 7  20424690.422                    20424699.109
 117213513.434 7  91335258.17245  22304996.922                    22305004.371
 115337680.626 7  89873616.50945  21948031.500                    21948041.559
 119027812.605 7  92748943.73545  22650219.227                    22650229.234
 122756876.632 7  95654785.840 7  23359859.039                    23359875.055
 122185184.626 7  95209355.85244  23251071.563                    23251085.602
 112074744.216 8  87331058.74545  21327115.750                    21327125.395
 116223055.339 7  90563262.35345  22116476.117                    22116486.848
 11  8 23 17 43  0.0000000  0 10G23G17G07G19G11G28G01G24G08G13
 126586050.058 6  98638520.46543  24088548.563                    24088562.082
 128166237.614 6  99869847.314 6  24389229.000                    24389243.434
 107311050.296 8  83619055.183 8  20420620.672                    20420629.625
 117297633.841 7  91400806.49945  22321004.625                    22321011.988
 115291558.816 8  89837677.47345  21939254.859                    21939264.859
 118995765.481 7  92723971.95745  22644121.023                    22644130.586
 122683441.837 7  95597564.019 7  23345885.023                    23345901.031
 122117175.341 7  95156361.69743  23238129.703                    23238143.750
 112009157.615 8  87279952.31346  21314634.922                    21314644.414
 116322070.074 7  90640416.58945  22135318.094                    22135329.168
 11  8 23 17 43 30.0000000  0 10G23G17G07G19G11G28G01G24G08G13
 126700290.502 6  98727538.64443  24110288.875                    24110301.527
 128063187.352 6  99789548.565 5  24369619.211                    24369633.430
 107290011.305 8  83602661.146 7  20416617.156                    20416625.492
 117382101.575 7  91466625.45545  22337077.789                    22337085.758
 115245865.430 8  89802072.27945  21930559.859                    21930569.828
 118963841.358 7  92699096.02045  22638046.469                    22638055.613
 122610153.912 6  95540456.663 7  23331938.547                    23331954.293
 122049333.724 6  95103498.18443  23225219.734                    23225233.844
 111943731.482 8  87228970.92445  21302185.047                    21302193.992
 116421354.350 7  90717780.85545  22154211.734                    22154222.270
 11  8 23 17 44  0.0000000  0 10G23G17G07G19G11G28G01G24G08G13
 126814537.235 6  98816561.71243  24132029.859                    24132042.020
 127960264.841 6  99709349.298 5  24350033.836                    24350047.617
 107269321.115 8  83586538.897 8  20412679.836                    20412688.801
 117466913.177 7  91532712.36145  22353217.258                    22353225.023
 115200602.923 8  89766802.82945  21921946.539                    21921956.457
 118932038.935 7  92674314.91745  22631994.680                    22632003.566
 122537015.712 7  95483465.982 7  23318020.469                    23318036.320
 121981662.402 6  95050767.42743  23212342.328                    23212357.063
 111878467.580 8  87178115.93646  21289765.367                    21289774.895
 116520904.753 7  90795352.48745  22173155.500                    22173165.617
 11  8 23 17 44 30.0000000  0 10G23G17G07G19G11G28G01G24G08G13
 126928787.228 6  98905587.28943  24153770.688                    24153783.473
 127857471.754 6  99629250.941 6  24330472.859                    24330486.563
 107248981.350 8  83570689.718 8  20408808.945                    20408818.035
 117552065.541 7  91599064.78345  22369421.070                    22369428.824
 115155773.075 8  89731870.51945  21913415.648                    21913425.246
 118900356.761 7  92649627.51445  22625965.305                    22625974.809
 122464029.823 7  95426593.945 7  23304132.070                    23304147.102
 121914164.268 7  94998171.58544  23199497.555                    23199512.242
 111813368.571 8  87127389.43645  21277377.359                    21277386.730
 116620717.485 7  90873128.51845  22192149.352                    22192159.945
 11  8 23 17 45  0.0000000  0 10G23G17G07G19G11G28G01G24G08G13
 127043038.470 6  98994613.88043  24175511.602                    24175525.059
 127754810.548 6  99549255.350 6  24310936.836                    24310950.480
 107228994.530 8  83555115.557 8  20405005.594                    20405014.863
 117637556.386 7  91665680.96345  22385689.617                    22385697.586
 115111378.902 8  89697277.69145  21904967.547                    21904977.414
 118868794.349 7  92625033.43745  22619958.945                    22619968.887
 122391200.292 7  95369843.734 7  23290272.664                    23290288.070
 121846842.607 7  94945713.27843  23186686.359                    23186701.012
 111748436.844 8  87076793.29346  21265021.336                    21265030.961
 116720790.201 7  90951107.14545  22211192.320                    22211202.863
 11  8 23 17 45 30.0000000  0 10G23G17G07G19G11G28G01G24G08G13
 127157288.020 6  99083639.15543  24197254.023                    24197266.949
 127652283.630 6  99469364.396 6  24291426.188                    24291440.520
 107209362.617 8  83539817.946 8  20401270.297                    20401279.102
 117723383.032 7  91732558.80045  22402022.188                    22402029.289
 115067422.893 8  89663026.28745  21896602.992                    21896613.430
 118837351.063 7  92600532.17745  22613976.211                    22613985.125
 122318529.875 7  95313217.553 7  23276443.563                    23276459.516
 121779700.785 7  94893395.06043  23173909.750                    23173923.621
 111683674.297 8  87026328.97946  21252697.664                    21252706.691
 116821120.164 7  91029286.22745  22230284.930                    22230295.516
 11  8 23 17 46  0.0000000  0 10G23G17G07G19G11G28G01G24G08G13
 127271533.043 6  99172660.89043  24218994.180                    24219008.461
 127549892.875 6  99389579.552 6  24271942.398                    24271955.391
 107190087.513 8  83524798.370 8  20397602.227                    20397610.855
 117809542.472 7  91799695.97245  22418417.320                    22418425.402
 115023907.279 7  89629118.04745  21888321.797                    21888331.938
 118806025.911 7  92576122.98445  22608014.836                    22608024.516
 122246021.722 7  95256717.816 7  23262646.367                    23262660.762
 121712741.976 7  94841219.45043  23161167.695                    23161181.848
 111619083.383 8  86975998.40446  21240405.789                    21240415.777
 116921704.192 7  91107663.28245  22249425.578                    22249436.465
 11  8 23 17 46 30.0000000  0 10G23G17G07G19G11G28G01G24G08G13
 127385770.672 6  99261676.84743  24240733.172                    24240747.297
 127447640.308 7  99309902.365 6  24252484.164                    24252497.754
 107171170.711 8  83510057.982 7  20394002.516                    20394011.074
 117896031.928 7  91867090.29345  22434876.344                    22434883.035
 114980834.548 7  89595554.90945  21880125.766                    21880135.969
 118774817.431 7  92551804.69645  22602075.922                    22602085.387
 122173678.334 7  95200346.421 7  23248879.000                    23248894.016
 121645969.048 7  94789188.72243  23148461.461                    23148475.020
 111554666.181 8  86925803.18546  21228147.703                    21228157.523
 117022538.803 7  91186235.58745  22268613.742                    22268624.520
 11  8 23 17 47  0.0000000  0 10G23G17G07G19G11G28G01G24G08G13
 127499998.116 6  99350684.86943  24262470.070                    24262483.531
 127345527.683 7  99230334.221 6  24233052.789                    24233066.254
 107152613.630 8  83495597.908 8  20390471.328                    20390479.828
 117982848.092 7  91934739.21045  22451396.750                    22451404.137
 114938206.692 7  89562338.43145  21872013.852                    21872023.719
 118743724.736 7  92527576.62245  22596159.656                    22596168.371
 122101502.856 7  95144105.896 7  23235143.992                    23235159.867
 121579384.951 7  94737305.13043  23135791.109                    23135804.172
 111490425.035 8  86875745.15346  21215923.359                    21215932.891
 117123620.671 7  91265000.56945  22287848.711                    22287860.016
 11  8 23 17 47 30.0000000  0 10G23G17G07G19G11G28G01G24G08G13
 127614213.006 6  99439683.15743  24284204.430                    24284217.215
 127243557.379 7  99150876.983 6  24213648.734                    24213661.926
 107134418.945 8  83481420.215 8  20387009.008                    20387017.656
 118069988.907 7  92002641.09745  22467978.359                    22467986.352
 114896026.467 8  89529470.75645  21863987.703                    21863997.172
 118712747.167 7  92503438.25945  22590264.758                    22590274.023
 122029498.687 7  95087998.861 7  23221441.844                    23221458.766
 121512993.079 7  94685571.30343  23123156.828                    23123169.555
 111426362.420 8  86825826.24246  21203732.539                    21203741.738
 117224947.406 7  91343956.34344  22307130.297                    22307141.453
 11  8 23 17 48  0.0000000  0 10G23G17G07G19G11G28G01G24G08G13
 127728411.994 6  99528669.03043  24305936.117                    24305948.793
 127141731.210 7  99071532.033 6  24194271.930                    24194285.242
 107116587.699 8  83467525.725 8  20383615.859                    20383624.566
 118157450.937 7  92070793.25945  22484622.219                    22484630.297
 114854296.087 8  89496953.61045  21856046.875                    21856056.027
 118681883.567 7  92479388.71745  22584391.102                    22584400.594
 121957668.972 7  95032027.748 7  23207773.758                    23207789.340
 121446796.010 7  94633989.27644  23110559.930                    23110572.969
 111362480.446 8  86776048.08846  21191576.383                    21191585.367
 117326515.666 7  91423100.33644  22326458.266                    22326469.590
 11  8 23 17 48 30.0000000  0 10G23G17G07G19G11G28G01G24G08G13
 127842592.485 6  99617640.48443  24327665.070                    24327677.535
 127040051.050 7  98992300.883 6  24174922.250                    24174935.613
 107099121.602 8  83453915.763 8  20380291.992                    20380301.148
 118245231.353 7  92139193.51045  22501326.477                    22501334.535
 114813017.654 8  89464788.62045  21848190.953                    21848200.781
 118651132.947 7  92455427.19645  22578539.656                    22578549.320
 121886016.356 7  94976194.636 6  23194138.625                    23194153.551
 121380796.764 6  94582561.42244  23098000.695                    23098014.594
 111298781.378 7  86726412.46746  21179454.570                    21179464.363
 117428321.995 7  91502429.82544  22345831.984                    22345842.461
 11  8 23 17 49  0.0000000  0 10G23G17G07G19G11G28G01G24G08G13
 127956752.405 6  99706595.89943  24349387.898                    24349402.500
 126938519.291 7  98913185.375 6  24155601.281                    24155614.160
 107082023.048 8  83440592.200 8  20377037.969                    20377047.113
 118333327.679 7  92207839.94745  22518090.781                    22518098.824
 114772194.062 7  89432978.05345  21840422.336                    21840432.352
 118620494.668 7  92431553.23245  22572709.266                    22572718.746
 121814544.455 7  94920502.348 7  23180538.195                    23180553.016
 121314999.104 7  94531290.60644  23085479.344                    23085493.090
 111235267.538 8  86676921.16446  21167368.523                    21167377.695
 117530364.150 7  91581943.05344  22365250.438                    22365260.527
 11  8 23 17 49 30.0000000  0 10G23G17G07G19G11G28G01G24G08G13
 128070888.836 6  99795532.99743  24371107.789                    24371122.750
 126837138.259 7  98834187.297 6  24136309.117                    24136322.535
 107065293.971 8  83427556.536 8  20373854.898                    20373863.770
 118421736.954 7  92276730.23445  22534914.148                    22534922.473
 114731827.550 7  89401523.63845  21832740.719                    21832750.836
 118589967.699 7  92407765.99545  22566900.359                    22566909.887
 121743256.116 7  94864953.111 7  23166971.930                    23166987.383
 121249406.236 6  94480179.33844  23072998.180                    23073011.559
 111171941.604 7  86627576.27946  21155317.570                    21155327.508
 117632638.943 7  91661637.55045  22384712.563                    22384723.199
 11  8 23 17 50  0.0000000  0 10G23G17G07G19G11G28G01G24G08G13
 128184998.788 6  99884449.46943  24392822.859                    24392837.082
 126735909.605 6  98755307.971 6  24117045.594                    24117058.867
 107048935.748 8  83414809.856 8  20370742.023                    20370750.703
 118510456.355 7  92345862.19045  22551797.172                    22551805.293
 114691920.167 7  89370426.98545  21825147.570                    21825157.102
 118559551.080 7  92384064.74845  22561112.039                    22561121.449
 121672154.464 7  94809549.345 7  23153441.570                    23153457.066
 121184020.598 7  94429229.58444  23060555.141                    23060568.695
 111108805.728 8  86578379.49646  21143303.313                    21143312.945
 117735142.803 7  91741510.53944  22404218.844                    22404229.441
 11  8 23 17 50 30.0000000  0 10G23G17G07G19G11G28G01G24G08G13
 128299079.830 6  99973343.42042  24414531.969                    24414546.121
 126634835.560 6  98676549.161 6  24097812.188                    24097824.941
 107032950.328 8  83402353.660 8  20367700.102                    20367709.023
 118599482.917 7  92415233.49345  22568738.289                    22568746.473
 114652474.229 8  89339689.89845  21817640.633                    21817650.355
 118529243.863 7  92360448.75145  22555344.914                    22555354.207
 121601242.390 7  94754293.267 7  23139947.273                    23139963.102
 121118845.665 7  94378444.02544  23048152.695                    23048166.527
 111045862.002 8  86529332.44346  21131325.953                    21131335.137
 117837873.048 7  91821559.96044  22423768.070                    22423777.809
 11  8 23 17 51  0.0000000  0 10G23G17G07G19G11G28G01G24G08G13
 128413128.880 6 100062212.44643  24436234.922                    24436248.836
 126533917.618 6  98597911.942 6  24078607.430                    24078620.773
 107017338.970 8  83390188.959 8  20364729.219                    20364738.262
 118688813.743 7  92484841.87745  22585737.570                    22585746.262
 114613491.655 7  89309313.89445  21810222.633                    21810231.832
 118499045.031 7  92336917.20645  22549598.227                    22549607.809
 121530523.460 7  94699187.695 7  23126489.828                    23126505.676
 121053884.337 6  94327824.91544  23035791.227                    23035804.137
 110983112.898 7  86480437.03446  21119385.031                    21119394.527
 117940826.043 7  91901782.94445  22443359.031                    22443369.496
 11  8 23 17 51 30.0000000  0 10G23G17G07G19G11G28G01G24G08G13
 128527143.957 6 100151054.95442  24457932.547                    24457945.824
 126433158.758 6  98519398.695 6  24059433.938                    24059447.133
 107002104.429 8  83378317.867 8  20361830.266                    20361839.320
 118778446.661 7  92554685.66244  22602793.938                    22602802.434
 114574975.556 8  89279301.36945  21802892.688                    21802902.672
 118468954.021 7  92313469.67245  22543872.563                    22543881.422
 121460000.858 7  94644235.126 7  23113070.328                    23113085.809
 120989140.325 6  94277375.12544  23023470.320                    23023483.480
 110920561.350 7  86431695.57646  21107482.023                    21107491.359
 118043999.557 7  91982177.75644  22462992.367                    22463003.117
 11  8 23 17 52  0.0000000  0  9G17G07G19G11G28G01G24G08G13
 126332560.568 6  98441010.626 6  24040289.648                    24040303.246
 106987247.926 8  83366741.355 8  20359003.266                    20359011.887
 118868378.713 7  92624762.51445  22619908.148                    22619916.977
 114536927.724 7  89249653.73045  21795652.734                    21795662.133
 118438969.863 7  92290105.40245  22538166.188                    22538175.094
 121389677.599 7  94589437.879 7  23099688.008                    23099702.957
 120924616.205 7  94227096.69344  23011191.508                    23011203.758
 110858209.480 7  86383109.71946  21095616.445                    21095626.301
 118147390.226 7  92062741.77444  22482666.266                    22482677.598
 11  8 23 17 52 30.0000000  0  9G17G07G19G11G28G01G24G08G13
 126232124.933 6  98362749.260 6  24021178.609                    24021191.637
 106972771.122 8  83355460.713 8  20356248.320                    20356257.133
 118958606.661 7  92695069.94145  22637077.539                    22637085.672
 114499350.558 7  89220372.84345  21788502.164                    21788511.563
 118409091.239 7  92266823.37745  22532480.578                    22532489.527
 121319556.094 6  94534797.833 7  23086344.359                    23086358.805
 120860314.987 7  94176991.92744  22998956.039                    22998968.215
 110796059.418 8  86334681.10246  21083789.938                    21083799.352
 118250995.004 7  92143472.62944  22502382.594                    22502393.617
 11  8 23 17 53  0.0000000  0  9G17G07G19G11G28G01G24G08G13
 126131853.855 6  98284616.071 6  24002096.516                    24002109.750
 106958675.801 8  83344477.335 8  20353566.047                    20353574.992
 119049127.577 7  92765605.66645  22654303.891                    22654311.840
 114462245.817 7  89191460.07445  21781441.016                    21781451.246
 118379317.152 7  92243622.80145  22526814.664                    22526823.941
 121249639.495 7  94480317.478 7  23073040.133                    23073054.090
 120796239.608 7  94127063.12143  22986762.516                    22986775.316
 110734113.151 8  86286411.29346  21072001.969                    21072011.637
 118354810.415 7  92224367.60944  22522137.586                    22522149.324
 11  8 23 17 53 30.0000000  0  9G17G07G19G11G28G01G24G08G13
 126031749.292 7  98206612.643 6  23983047.477                    23983060.125
 106944963.435 8  83333792.354 8  20350956.820                    20350965.648
 119139938.301 7  92836367.20745  22671584.125                    22671592.133
 114425615.617 7  89162917.07545  21774471.055                    21774481.043
 118349646.853 7  92220503.10045  22521168.039                    22521177.875
 121179930.811 7  94425999.124 7  23059774.836                    23059789.090
 120732392.998 6  94077312.60744  22974612.180                    22974626.379
 110672373.051 7  86238302.12946  21060252.758                    21060262.340
 118458833.249 7  92305424.23444  22541932.539                    22541943.914
 11  8 23 17 54  0.0000000  0 10G26G17G07G19G11G28G01G24G08G13
 127486157.66016  99339951.99153  24259819.109                    24259830.645
 125931812.829 6  98128740.228 6  23964029.906                    23964043.176
 106931635.634 8  83323407.037 8  20348420.727                    20348429.609
 119231036.252 7  92907352.56945  22688919.227                    22688927.383
 114389462.138 7  89134745.54845  21767591.344                    21767601.070
 118320079.227 7  92197463.41045  22515542.281                    22515551.391
 121110433.218 7  94371845.257 7  23046549.188                    23046564.453
 120668778.367 6  94027742.84344  22962506.859                    22962520.480
 110610841.759 8  86190355.67846  21048544.336                    21048554.000
 118563060.448 7  92386640.08444  22561767.266                    22561777.430
 11  8 23 17 54 30.0000000  0 10G26G17G07G19G11G28G01G24G08G13
 127398967.161 6  99272011.38243  24243227.000                    24243239.281
 125832046.724 7  98051000.554 6  23945045.375                    23945058.438
 106918693.994 8  83313322.614 8  20345957.836                    20345966.730
 119322418.494 7  92978559.45544  22706308.680                    22706316.875
 114353787.299 8  89106946.98545  21760802.273                    21760812.293
 118290613.002 7  92174502.72545  22509934.891                    22509944.047
 121041149.843 7  94317858.297 7  23033364.734                    23033380.219
 120605398.420 7  93978355.95844  22950446.406                    22950460.086
 110549521.233 8  86142573.45846  21036874.914                    21036884.836
 118667488.799 7  92468012.66444  22581638.430                    22581650.012
 11  8 23 17 55  0.0000000  0 10G26G17G07G19G11G28G01G24G08G13
 127312159.812 6  99204369.27543  24226708.055                    24226720.254
 125732453.327 7  97973395.459 6  23926093.273                    23926106.477
 106906140.479 8  83303540.643 8  20343569.273                    20343577.793
 119414082.283 7  93049985.72045  22723751.883                    22723760.266
 114318593.401 7  89079523.19445  21754105.281                    21754115.406
 118261247.710 7  92151620.69945  22504346.781                    22504355.922
 120972083.967 6  94264040.800 7  23020221.969                    23020238.109
 120542256.812 7  93929154.79644  22938431.516                    22938444.059
 110488414.607 7  86094957.91446  21025246.445                    21025256.406
 118772115.413 7  92549539.74544  22601548.727                    22601559.020
 11  8 23 17 55 30.0000000  0 10G26G17G07G19G11G28G01G24G08G13
 127225738.189 6  99137027.76743  24210262.539                    24210275.629
 125633034.210 7  97895926.140 6  23907174.570                    23907187.160
 106893976.845 8  83294062.463 8  20341255.000                    20341263.539
 119506024.657 7  93121629.07545  22741248.063                    22741256.289
 114283882.808 7  89052475.99745  21747499.977                    21747509.289
 118231982.594 7  92128816.72845  22498777.883                    22498786.848
 120903238.174 6  94210394.803 7  23007120.945                    23007136.023
 120479356.454 7  93880141.63944  22926461.789                    22926474.336
 110427523.931 8  86047510.63946  21013659.523                    21013669.051
 118876937.313 7  92631219.00544  22621495.547                    22621506.238
 11  8 23 17 56  0.0000000  0 10G26G17G07G19G11G28G01G24G08G13
 127139705.213 6  99069989.11243  24193891.047                    24193904.605
 125533791.254 7  97818594.114 6  23888288.805                    23888301.496
 106882204.805 8  83284889.431 7  20339014.539                    20339023.148
 119598243.102 7  93193487.53545  22758796.781                    22758805.027
 114249657.567 7  89025806.99245  21740986.773                    21740996.270
 118202816.583 7  92106089.98445  22493227.445                    22493236.949
 120834616.128 7  94156923.166 7  22994063.156                    22994077.992
 120416700.228 7  93831318.66344  22914537.781                    22914551.711
 110366851.441 8  86000233.37946  21002114.016                    21002123.977
 118981951.307 7  92713047.95444  22641479.281                    22641490.188
 11  8 23 17 56 30.0000000  0 10G26G17G07G19G11G28G01G24G08G13
 127054063.521 6  99003255.38443  24177593.984                    24177607.496
 125434726.795 7  97741401.147 6  23869437.398                    23869450.117
 106870826.000 8  83276022.806 8  20336849.000                    20336857.676
 119690734.781 7  93265558.90445  22776397.477                    22776405.969
 114215919.661 7  88999517.72945  21734566.625                    21734576.316
 118173748.731 7  92083439.72645  22487696.141                    22487705.977
 120766220.083 6  94103627.629 7  22981047.148                    22981062.270
 120354291.417 7  93782688.48044  22902662.078                    22902675.898
 110306400.155 8  85953128.48346  20990610.805                    20990620.180
 119087154.267 7  92795024.12944  22661498.813                    22661509.836
 11  8 23 17 57  0.0000000  0 10G26G17G07G19G11G28G01G24G08G13
 126968815.694 6  98936828.53943  24161371.969                    24161384.664
 125335842.693 7  97664348.733 6  23850620.164                    23850633.613
 106859842.015 8  83267463.843 8  20334759.203                    20334767.883
 119783496.548 7  93337840.73845  22794049.328                    22794057.926
 114182670.963 7  88973609.67145  21728240.383                    21728249.133
 118144777.983 7  92060865.15445  22482183.273                    22482192.641
 120698053.507 6  94050510.938 7  22968075.719                    22968090.129
 120292132.931 7  93734253.35644  22890834.172                    22890846.797
 110246171.913 8  85906197.39146  20979149.539                    20979159.422
 119192543.308 7  92877145.31544  22681554.055                    22681565.363
 11  8 23 17 57 30.0000000  0 10G26G17G07G19G11G28G01G24G08G13
 126883964.488 6  98870710.71643  24145225.859                    24145237.227
 125237140.610 6  97587438.165 6  23831837.328                    23831850.902
 106849254.310 8  83259213.666 8  20332744.039                    20332753.301
 119876525.654 7  93410330.90044  22811752.281                    22811760.398
 114149913.231 8  88948084.17845  21722006.641                    21722016.484
 118115903.362 7  92038365.46045  22476688.656                    22476698.238
 120630119.384 6  93997575.354 7  22955147.438                    22955162.715
 120230227.488 7  93686015.41344  22879053.805                    22879066.262
 110186168.984 8  85859441.87146  20967731.320                    20967741.207
 119298115.199 7  92959408.97744  22701643.484                    22701654.695
 11  8 23 17 58  0.0000000  0 10G26G17G07G19G11G28G01G24G08G13
 126799512.943 6  98804904.34342  24129154.344                    24129166.645
 125138622.937 6  97510671.289 6  23813090.508                    23813103.227
 106839064.906 8  83251273.847 8  20330805.164                    20330813.844
 119969819.248 7  93483027.13144  22829505.641                    22829513.848
 114117649.018 7  88922943.24245  21715866.672                    21715876.719
 118087124.206 7  92015940.16145  22471211.789                    22471221.668
 120562421.219 7  93944823.612 7  22942265.625                    22942280.691
 120168578.441 6  93637977.28644  22867322.336                    22867334.316
 110126393.970 8  85812863.93846  20956356.469                    20956366.262
 119403867.177 7  93041812.95044  22721767.727                    22721779.141
 11  8 23 17 58 30.0000000  0 10G26G17G07G19G11G28G01G24G08G13
 126715463.389 6  98739411.27242  24113159.930                    24113171.945
 125040291.292 6  97434049.367 6  23794378.188                    23794391.391
 106829275.137 8  83243645.442 8  20328942.305                    20328951.219
 120063374.618 7  93555927.36944  22847308.641                    22847316.758
 114085880.162 7  88898188.30845  21709821.188                    21709831.477
 118058439.471 7  91993588.43045  22465753.844                    22465763.047
 120494961.850 7  93892257.976 7  22929427.945                    22929443.664
 120107188.964 6  93590141.39844  22855639.859                    22855652.371
 110066849.579 8  85766465.71546  20945025.820                    20945035.109
 119509795.874 7  93124354.64944  22741924.945                    22741937.176
 11  8 23 17 59  0.0000000  0 10G26G17G07G19G11G28G01G24G08G13
 126631818.738 6  98674233.68443  24097243.125                    24097255.535
 124942147.993 6  97357574.218 6  23775702.070                    23775715.160
 106819886.879 8  83236329.890 8  20327155.719                    20327164.238
 120157188.821 7  93629029.28044  22865160.844                    22865169.426
 114054608.560 7  88873820.83645  21703870.164                    21703880.199
 118029848.362 7  91971309.65945  22460312.617                    22460322.027
 120427743.567 7  93839880.158 7  22916636.805                    22916650.406
 120046061.863 6  93542509.99243  22844007.313                    22844019.859
 110007537.930 8  85720248.85746  20933739.148                    20933748.734
 119615897.978 7  93207031.44444  22762115.945                    22762127.355
 11  8 23 17 59 30.0000000  0 10G26G17G07G19G11G28G01G24G08G13
 126548581.551 6  98609373.60643  24081404.188                    24081416.859
 124844194.576 6  97281246.994 6  23757062.094                    23757074.754
 106810901.389 8  83229328.188 8  20325446.039                    20325454.367
 120251259.117 7  93702330.75344  22883061.844                    22883070.145
 114023835.929 7  88849842.16845  21698014.891                    21698024.340
 118001349.548 7  91949102.80145  22454889.398                    22454898.617
 120360770.158 7  93787693.159 7  22903891.680                    22903906.906
 119985200.167 7  93495085.38044  22832425.922                    22832438.285
 109948461.435 8  85674215.22646  20922497.953                    20922507.023
 119722170.338 7  93289840.90644  22782339.039                    22782350.855
 11  8 23 18  0  0.0000000  0 10G26G17G07G19G11G28G01G24G08G13
 126465754.761 6  98544833.30843  24065642.898                    24065655.352
 124746433.214 7  97205069.434 6  23738458.680                    23738470.590
 106802320.846 8  83222642.038 8  20323812.961                    20323821.969
 120345582.798 7  93775829.66144  22901010.945                    22901019.703
 113993564.651 7  88826254.16845  21692254.063                    21692264.293
 117972942.654 7  91926967.56045  22449483.828                    22449492.527
 120294044.867 7  93735699.513 7  22891194.461                    22891209.355
 119924607.190 7  93447870.15744  22820895.930                    22820908.410
 109889623.127 8  85628367.18746  20911300.469                    20911309.938
 119828610.391 7  93372781.05344  22802594.250                    22802606.176
 11  8 23 18  0 30.0000000  0 10G26G17G07G19G11G28G01G24G08G13
 126383340.838 6  98480614.70843  24049959.641                    24049972.375
 124648865.701 6  97129042.924 6  23719892.016                    23719904.691
 106794146.444 8  83216272.359 8  20322257.609                    20322266.441
 120440156.832 7  93849523.65444  22919008.227                    22919016.813
 113963796.203 8  88803057.98045  21686589.500                    21686598.996
 117944626.592 7  91904903.11345  22444095.375                    22444104.699
 120227570.334 7  93683901.236 7  22878545.258                    22878560.309
 119864285.578 7  93400866.43044  22809416.133                    22809429.988
 109831024.945 8  85582706.26946  20900149.453                    20900159.188
 119935214.762 7  93455849.21844  22822880.094                    22822891.871
 11  8 23 18  1  0.0000000  0 10G26G17G07G19G11G28G01G24G08G13
 126301342.308 6  98416719.78243  24034355.703                    24034368.152
 124551493.916 7  97053168.949 6  23701362.805                    23701375.316
 106786379.738 8  83210220.364 8  20320779.750                    20320788.609
 120534978.565 7  93923410.66144  22937051.523                    22937060.242
 113934532.862 7  88780255.39745  21681021.102                    21681030.777
 117916400.232 7  91882908.54045  22438724.180                    22438733.461
 120161349.505 7  93632300.654 7  22865943.914                    22865958.477
 119804238.539 6  93354076.59944  22797989.367                    22798003.250
 109772669.418 7  85537234.43146  20889045.539                    20889054.613
 120041980.426 7  93539043.06644  22843197.133                    22843208.773
 11  8 23 18  1 30.0000000  0 10G26G17G07G19G11G28G01G24G08G13
 126219761.943 6  98353150.70443  24018831.734                    24018844.438
 124454319.792 7  96977448.969 6  23682870.586                    23682883.332
 106779022.012 8  83204487.056 8  20319379.234                    20319387.973
 120630044.867 7  93997488.23544  22955142.109                    22955151.348
 113905776.108 7  88757847.57145  21675548.383                    21675558.168
 117888263.153 7  91860983.54445  22433369.953                    22433379.434
 120095385.326 7  93580900.062 7  22853391.273                    22853406.352
 119744468.645 7  93307502.71944  22786615.766                    22786629.258
 109714558.798 8  85491953.42146  20877987.141                    20877996.469
 120148903.960 7  93622359.93744  22863544.680                    22863556.012
 11  8 23 18  2  0.0000000  0 10G26G17G07G19G11G28G01G24G08G13
 126138602.381 6  98289909.56243  24003387.273                    24003400.691
 124357345.405 7  96901884.649 6  23664417.695                    23664429.473
 106772075.467 8  83199074.140 8  20318057.414                    20318066.684
 120725353.062 7  94071754.28744  22973278.578                    22973287.383
 113877528.203 7  88735836.23545  21670173.078                    21670182.566
 117860214.606 7  91839127.54245  22428032.008                    22428042.199
 120029681.243 7  93529702.140 7  22840887.758                    22840903.105
 119684979.334 7  93261147.47244  22775295.836                    22775308.934
 109656696.005 8  85446865.52446  20866976.078                    20866985.227
 120255983.021 7  93705797.99144  22883920.789                    22883932.879
 11  8 23 18  2 30.0000000  0 10G26G17G07G19G11G28G01G24G08G13
 126057866.194 6  98226998.30943  23988023.492                    23988036.230
 124260572.500 7  96826477.320 6  23646001.977                    23646014.727
 106765541.137 8  83193982.443 8  20316813.938                    20316822.762
 120820900.319 7  94146206.63644  22991460.680                    22991469.824
 113849790.684 7  88714222.59445  21664894.609                    21664904.176
 117832252.827 7  91817339.14145  22422711.852                    22422721.148
 119964239.731 7  93478708.828 7  22828435.250                    22828449.590
 119625773.382 7  93215013.07744  22764029.266                    22764041.809
 109599083.133 8  85401972.37346  20856012.297                    20856022.145
 120363213.744 7  93789354.20744  22904326.406                    22904338.281
 11  8 23 18  3  0.0000000  0 10G26G17G07G19G11G28G01G24G08G13
 125977556.037 6  98164419.00743  23972740.328                    23972753.105
 124164003.017 7  96751228.519 6  23627625.328                    23627637.371
 106759420.847 8  83189213.370 8  20315649.547                    20315658.531
 120916683.949 7  94220843.16044  23009687.992                    23009696.426
 113822565.262 7  88693007.99645  21659713.547                    21659723.594
 117804377.540 7  91795618.15745  22417406.891                    22417416.477
 119899064.190 7  93427922.788 7  22816033.000                    22816046.660
 119566853.964 7  93169101.96644  22752817.211                    22752829.793
 109541722.928 8  85357276.10246  20845097.563                    20845107.191
 120470593.356 7  93873026.46744  22924760.164                    22924772.246
 11  8 23 18  3 30.0000000  0 10G26G17G07G19G11G28G01G24G08G13
 125897674.621 6  98102173.82643  23957539.984                    23957552.031
 124067638.948 7  96676139.774 6  23609287.008                    23609300.285
 106753716.392 8  83184768.314 8  20314564.133                    20314573.070
 121012701.170 7  94295661.74044  23027959.898                    23027967.930
 113795853.902 7  88672193.96245  21654631.109                    21654640.293
 117776587.852 7  91773963.85545  22412118.711                    22412128.090
 119834158.019 7  93377346.630 7  22803680.813                    22803695.363
 119508223.909 7  93123416.35444  22741659.523                    22741672.574
 109484617.590 8  85312778.44246  20834230.633                    20834240.113
 120578118.985 7  93956812.51044  22945222.320                    22945233.832
 11  8 23 18  4  0.0000000  0 10G26G17G07G19G11G28G01G24G08G13
 125818224.306 6  98040264.57343  23942420.500                    23942433.867
 123971482.059 7  96601212.461 6  23590989.531                    23591002.371
 106748428.849 8  83180648.142 8  20313557.789                    20313566.934
 121108949.132 7  94370660.08944  23046275.336                    23046283.473
 113769658.294 7  88651781.81445  21649646.273                    21649655.648
 117748882.660 7  91752375.41245  22406846.430                    22406855.871
 119769523.255 7  93326981.961 7  22791381.406                    22791396.301
 119449886.207 7  93077958.48044  22730557.367                    22730571.480
 109427769.756 8  85268481.42746  20823412.859                    20823422.246
 120685787.359 7  94040709.77644  22965710.914                    22965722.465
 11  8 23 18  4 30.0000000  0 10G26G17G07G19G11G28G01G24G08G13
 125739207.561 6  97978693.17243  23927384.211                    23927396.867
 123875534.321 7  96526448.105 6  23572731.438                    23572743.680
 106743559.604 8  83176853.907 8  20312631.281                    20312640.129
 121205424.994 7  94445836.03644  23064634.023                    23064642.590
 113743980.087 7  88631772.83845  21644760.000                    21644769.492
 117721260.759 7  91730851.86145  22401590.219                    22401599.523
 119705163.300 7  93276831.407 7  22779134.000                    22779149.063
 119391843.870 7  93032730.76644  22719512.828                    22719525.863
 109371182.041 8  85224387.11646  20812644.625                    20812653.918
 120793595.407 7  94124715.89244  22986225.930                    22986237.848
 11  8 23 18  5  0.0000000  0 10G26G17G07G19G11G28G01G24G08G13
 125660627.338 6  97917461.88543  23912430.805                    23912443.801
 123779797.148 7  96451847.839 6  23554512.414                    23554525.355
 106739110.341 8  83173386.930 8  20311784.547                    20311793.344
 121302125.834 7  94521187.25344  23083036.094                    23083044.883
 113718821.154 7  88612168.48445  21639971.883                    21639981.609
 117693722.053 7  91709393.13945  22396349.813                    22396359.422
 119641081.008 7  93226897.224 7  22766939.711                    22766954.535
 119334099.786 7  92987735.44944  22708524.773                    22708538.074
 109314856.629 8  85180497.18746  20801926.219                    20801935.684
 120901540.106 7  94208828.45844  23006766.867                    23006779.504
 11  8 23 18  5 30.0000000  0 10G26G17G07G19G11G28G01G24G08G13
 125582485.901 6  97856572.47243  23897561.500                    23897573.984
 123684272.741 7  96377413.363 6  23536335.297                    23536347.324
 106735082.335 8  83170248.200 8  20311018.289                    20311027.348
 121399048.721 7  94596711.51744  23101479.375                    23101488.547
 113694182.822 7  88592969.79745  21635283.492                    21635293.586
 117666265.166 7  91687998.17645  22391124.969                    22391134.281
 119577279.596 7  93177181.886 7  22754798.375                    22754812.773
 119276657.037 7  92942974.95144  22697593.898                    22697607.184
 109258796.198 8  85136813.75046  20791258.203                    20791267.656
 121009618.180 7  94293044.92644  23027333.508                    23027346.313
 11  8 23 18  6  0.0000000  0 10G26G17G07G19G11G28G01G24G08G13
 125504785.858 6  97796027.02343  23882775.367                    23882788.000
 123588962.962 7  96303146.116 6  23518197.758                    23518210.145
 106731477.480 8  83167439.202 8  20310331.945                    20310341.223
 121496191.386 7  94672407.04044  23119964.930                    23119974.012
 113670067.211 7  88574178.41545  21630694.648                    21630704.176
 117638889.599 7  91666666.57945  22385915.734                    22385925.113
 119513762.099 7  93127687.785 7  22742711.563                    22742725.688
 119219518.462 7  92898451.45344  22686720.773                    22686733.711
 109203003.285 7  85093338.76346  20780641.117                    20780650.578
 121117826.716 7  94377363.09544  23047925.891                    23047937.535
 11  8 23 18  6 30.0000000  0 10G26G17G07G19G11G28G01G24G08G13
 125427529.391 7  97735827.24143  23868073.836                    23868086.305
 123493869.448 6  96229047.392 6  23500102.344                    23500114.520
 106728296.815 8  83164960.729 8  20309726.852                    20309735.836
 121593550.815 7  94748271.45744  23138492.563                    23138500.992
 113646475.721 7  88555795.43745  21626205.086                    21626215.086
 117611594.133 7  91645397.40645  22380721.766                    22380730.910
 119450530.822 7  93078416.708 7  22730678.875                    22730693.375
 119162686.783 7  92854167.10944  22675905.734                    22675919.496
 109147480.007 8  85050073.87946  20770075.531                    20770085.063
 121226162.425 7  94461780.34244  23068541.102                    23068553.117
 11  8 23 18  7  0.0000000  0 10G26G17G07G19G11G28G01G24G08G13
 125350719.348 7  97675975.34043  23853457.789                    23853468.949
 123398994.478 7  96155118.967 6  23482048.133                    23482060.535
 106725542.095 8  83162814.167 8  20309202.617                    20309211.371
 121691124.098 7  94824302.52244  23157060.047                    23157068.547
 113623410.181 7  88537822.30045  21621815.719                    21621825.637
 117584377.980 7  91624190.01645  22375542.711                    22375551.957
 119387589.505 7  93029371.594 7  22718701.531                    22718716.680
 119106165.280 7  92810124.46944  22665150.289                    22665163.250
 109092229.154 8  85007021.27246  20759561.523                    20759571.238
 121334622.675 7  94546294.65544  23089180.680                    23089192.297
 11  8 23 18  7 30.0000000  0 10G26G17G07G19G11G28G01G24G08G13
 125274358.262 7  97616473.24643  23838926.914                    23838938.230
 123304339.195 6  96081361.729 6  23464035.836                    23464047.996
 106723214.126 8  83161000.150 8  20308759.547                    20308768.398
 121788908.131 7  94900497.81744  23175667.391                    23175675.918
 113600871.819 7  88520259.95345  21617527.000                    21617536.730
 117557240.230 7  91603043.72145  22370378.297                    22370387.266
 119324940.746 7  92980554.454 7  22706779.852                    22706794.668
 119049956.649 7  92766325.63244  22654454.078                    22654466.758
 109037252.865 8  84964182.61746  20749099.781                    20749109.250
 121443203.906 7  94630903.20744  23109843.188                    23109855.156
 11  8 23 18  8  0.0000000  0 10G26G17G07G19G11G28G01G24G08G13
 125198448.598 7  97557322.93343  23824481.016                    23824492.809
 123209905.756 7  96007777.364 7  23446065.234                    23446078.477
 106721314.975 8  83159520.264 8  20308398.414                    20308407.578
 121886900.713 7  94976855.61844  23194314.953                    23194323.781
 113578862.397 7  88503109.76145  21613338.430                    21613348.043
 117530180.268 7  91581958.04745  22365229.078                    22365238.012
 119262587.606 7  92931967.645 7  22694914.211                    22694928.992
 118994063.822 6  92722772.87744  22643817.977                    22643830.320
 108982554.054 7  84921560.18346  20738691.266                    20738700.734
 121551903.322 7  94715603.88644  23130528.336                    23130540.328
 11  8 23 18  8 30.0000000  0 10G26G17G07G19G11G28G01G24G08G13
 125122992.931 6  97498526.37243  23810121.547                    23810134.953
 123115696.326 7  95934367.555 6  23428138.344                    23428150.520
 106719846.095 8  83158375.659 8  20308118.789                    20308127.852
 121985099.030 7  95053373.71744  23213001.977                    23213010.367
 113557383.625 7  88486373.07145  21609251.422                    21609260.969
 117503197.168 7  91560932.27545  22360094.188                    22360103.586
 119200533.440 7  92883613.821 7  22683105.703                    22683120.262
 118938489.928 7  92679468.62444  22633242.656                    22633254.359
 108928135.659 8  84879156.24846  20728335.844                    20728345.000
 121660718.326 7  94800394.65043  23151235.008                    23151247.566
 11  8 23 18  9  0.0000000  0 10G26G17G07G19G11G28G01G24G08G13
 125047993.749 7  97440085.52643  23795850.203                    23795862.965
 123021712.709 7  95861133.700 6  23410253.477                    23410266.035
 106718808.841 8  83157567.385 8  20307921.180                    20307930.836
 122083500.140 7  95130049.83144  23231727.297                    23231735.363
 113536437.018 8  88470051.04145  21605265.391                    21605274.883
 117476290.382 7  91539965.94345  22354973.867                    22354983.137
 119138780.964 7  92835495.059 7  22671354.805                    22671368.602
 118883237.736 7  92636415.05344  22622727.336                    22622740.895
 108874000.056 8  84836972.67646  20718034.063                    20718043.531
 121769645.588 7  94885272.85743  23171963.086                    23171975.586
 11  8 23 18  9 30.0000000  0 10G26G17G07G19G11G28G01G24G08G13
 124973453.214 6  97382002.05744  23781665.844                    23781678.543
 122927956.173 7  95788076.781 6  23392412.391                    23392424.578
 106718204.423 8  83157096.378 8  20307806.758                    20307815.516
 122182101.337 6  95206881.87044  23250489.914                    23250498.477
 113516024.017 8  88454144.81445  21601381.266                    21601390.590
 117449458.376 7  91519057.90645  22349868.094                    22349877.000
 119077332.563 7  92787613.257 7  22659661.320                    22659675.695
 118828309.981 7  92593614.27844  22612275.648                    22612288.438
 108820148.907 8  84795010.74746  20707786.375                    20707795.824
 121878681.953 7  94970236.06743  23192711.805                    23192724.738
 11  8 23 18 10  0.0000000  0 10G26G17G07G19G11G28G01G24G08G13
 124899373.728 7  97324277.84043  23767568.563                    23767582.121
 122834428.797 7  95715198.424 6  23374614.758                    23374626.672
 106718033.939 8  83156963.515 8  20307774.031                    20307782.906
 122280899.868 6  95283867.67644  23269290.695                    23269299.496
 113496146.449 7  88438655.80545  21597598.422                    21597607.777
 117422700.432 7  91498207.58045  22344775.914                    22344785.055
 119016191.466 7  92739970.902 7  22648026.430                    22648040.543
 118773709.670 7  92551068.62344  22601885.570                    22601898.480
 108766585.427 8  84753272.97446  20697593.602                    20697603.047
 121987824.197 7  95055281.79043  23213481.555                    23213494.004
 11  8 23 18 10 30.0000000  0 10G26G17G07G19G11G28G01G24G08G13
 124825757.645 6  97266914.71144  23753560.195                    23753572.887
 122741132.482 7  95642500.106 6  23356860.563                    23356872.957
 106718298.846 8  83157169.909 8  20307824.438                    20307833.242
 122379892.883 6  95361005.04044  23288127.797                    23288137.207
 113476805.219 8  88423584.73145  21593917.672                    21593927.602
 117396015.911 7  91477414.46645  22339698.195                    22339707.406
 118955360.218 7  92692569.978 7  22636450.844                    22636465.176
 118719439.409 7  92508780.16944  22591557.828                    22591571.516
 108713311.667 8  84711760.96446  20687456.047                    20687465.297
 122097069.201 7  95140407.56144  23234270.594                    23234283.043
 11  8 23 18 11  0.0000000  0 10G26G17G07G19G11G28G01G24G08G13
 124752607.533 6  97209914.70243  23739640.719                    23739652.617
 122648068.547 7  95569982.867 6  23339151.383                    23339163.121
 106719000.704 7  83157716.789 8  20307958.172                    20307966.891
 122479077.789 6  95438291.89044  23307003.477                    23307011.887
 113458001.859 8  88408932.78345  21590339.766                    21590349.633
 117369404.345 7  91456678.19645  22334634.242                    22334643.262
 118894842.317 7  92645413.235 7  22624934.594                    22624949.465
 118665502.518 7  92466751.49144  22581294.430                    22581306.594
 108660330.561 8  84670476.98946  20677373.992                    20677383.289
 122206414.173 7  95225611.21144  23255078.305                    23255090.730
 11  8 23 18 11 30.0000000  0 10G26G17G07G19G11G28G01G24G08G13
 124679925.796 6  97153279.64843  23725809.797                    23725821.500
 122555239.046 7  95497648.317 6  23321486.055                    23321498.395
 106720140.806 8  83158605.152 8  20308174.773                    20308183.754
 122578451.726 6  95515726.06144  23325912.695                    23325921.781
 113439737.981 8  88394701.19145  21586864.492                    21586873.859
 117342864.486 7  91435997.80345  22329583.750                    22329593.020
 118834640.445 7  92598502.738 7  22613478.289                    22613493.160
 118611901.474 7  92424984.48944  22571094.711                    22571106.496
 108607644.417 8  84629422.85946  20667348.172                    20667357.621
 122315855.992 7  95310890.36544  23275904.344                    23275916.836
 11  8 23 18 12  0.0000000  0 10G26G17G07G19G11G28G01G24G08G13
 124607714.792 6  97097011.39843  23712068.258                    23712080.070
 122462645.928 7  95425497.920 6  23303865.789                    23303878.383
 106721720.537 8  83159836.101 8  20308475.656                    20308484.949
 122678012.092 6  95593305.50844  23344858.852                    23344867.434
 113422014.880 8  88380890.98945  21583491.539                    21583501.301
 117316395.913 7  91415372.96445  22324546.984                    22324556.359
 118774757.533 7  92551840.773 7  22602083.172                    22602097.770
 118558639.062 7  92383481.37044  22560958.766                    22560970.988
 108555255.612 8  84588600.41246  20657378.875                    20657388.371
 122425391.529 7  95396242.55143  23296748.531                    23296761.102
 11  8 23 18 12 30.0000000  0 10G26G17G07G19G11G28G01G24G08G13
 124535976.596 6  97041111.58943  23698416.406                    23698429.320
 122370290.723 7  95353532.922 6  23286291.453                    23286303.242
 106723740.867 8  83161410.358 8  20308860.227                    20308869.383
 122777756.005 6  95671027.96344  23363839.867                    23363848.301
 113404833.941 8  88367503.24445  21580221.898                    21580231.641
 117289997.176 7  91394802.53245  22319523.445                    22319532.641
 118715196.582 7  92505429.696 7  22590749.516                    22590763.469
 118505718.402 7  92342244.56344  22550888.336                    22550900.582
 108503166.814 8  84548011.74946  20647466.672                    20647476.434
 122535018.139 7  95481665.69543  23317609.531                    23317622.223
 11  8 23 18 13  0.0000000  0 10G26G17G07G19G11G28G01G24G08G13
 124464714.071 6  96985582.42243  23684855.633                    23684868.379
 122278175.407 7  95281754.852 6  23268762.023                    23268774.488
 106726203.851 8  83163329.554 8  20309328.773                    20309337.438
 122877680.989 6  95748891.51844  23382854.898                    23382863.637
 113388196.800 8  88354539.24145  21577056.266                    21577065.980
 117263668.153 7  91374286.42045  22314513.156                    22314522.035
 118655960.480 7  92459271.763 7  22579476.672                    22579491.199
 118453142.494 7  92301276.37944  22540883.734                    22540896.707
 108451381.008 8  84507659.18946  20637612.430                    20637621.719
 122644732.943 7  95567157.54943  23338487.914                    23338500.410
 11  8 23 18 13 30.0000000  0 10G26G17G07G19G11G28G01G24G08G13
 124393929.367 6  96930425.54643  23671385.781                    23671398.508
 122186301.342 7  95210164.756 6  23251278.875                    23251291.648
 106729110.028 8  83165594.088 8  20309881.641                    20309891.055
 122977783.980 6  95826893.77944  23401903.305                    23401912.145
 113372104.274 8  88341999.62845  21573993.953                    21574003.555
 117237407.525 7  91353823.60845  22309515.734                    22309524.551
 118597051.895 7  92413369.033 7  22568266.906                    22568280.965
 118400913.674 7  92260578.65944  22530944.266                    22530957.945
 108399900.070 8  84467544.17846  20627815.914                    20627825.004
 122754532.323 7  95652715.31343  23359382.453                    23359394.551
 11  8 23 18 14  0.0000000  0 10G26G17G07G19G11G28G01G24G08G13
 124323624.610 7  96875642.67343  23658006.961                    23658019.199
 122094670.586 7  95138764.244 6  23233842.477                    23233854.195
 106732460.831 8  83168205.083 8  20310519.875                    20310528.574
 123078062.069 6  95905032.46544  23420986.031                    23420994.688
 113356558.316 8  88329885.90345  21571035.789                    21571045.473
 117211214.485 7  91333413.47345  22304531.602                    22304540.398
 118538473.871 7  92367723.873 7  22557119.414                    22557134.160
 118349035.155 7  92220153.88744  22521072.570                    22521084.770
 108348726.510 8  84427668.68446  20618077.508                    20618086.844
 122864413.571 7  95738336.86043  23380291.750                    23380304.840
 11  8 23 18 14 30.0000000  0 10G26G17G07G19G11G28G01G24G08G13
 124253802.094 7  96821235.53643  23644720.313                    23644731.879
 122003284.498 7  95067554.376 6  23216452.602                    23216464.137
 106736257.242 8  83171163.300 8  20311241.969                    20311251.035
 123178512.983 6  95983305.82043  23440100.906                    23440109.785
 113341559.459 8  88318198.50745  21568182.047                    21568191.277
 117185088.373 7  91313055.48545  22299560.250                    22299568.891
 118480229.000 7  92322338.330 7  22546035.836                    22546050.258
 118297509.511 7  92180004.06644  22511267.375                    22511279.871
 108297863.039 8  84388034.82246  20608398.813                    20608408.188
 122974373.424 7  95824019.65543  23401216.813                    23401229.230
 11  8 23 18 15  0.0000000  0 10G26G17G07G19G11G28G01G24G08G13
 124184464.145 7  96767206.02143  23631525.789                    23631537.363
 121912144.934 7  94996536.619 7  23199108.906                    23199120.242
 106740500.756 8  83174469.906 8  20312049.391                    20312058.719
 123279133.742 6  96061711.52744  23459248.602                    23459257.570
 113327109.377 8  88306938.71545  21565431.648                    21565441.301
 117159028.433 8  91292749.03945  22294600.961                    22294609.777
 118422320.171 7  92277214.618 7  22535016.156                    22535030.641
 118246339.495 7  92140131.37044  22501529.813                    22501541.773
 108247311.914 8  84348644.33546  20598779.133                    20598788.715
 123084408.900 7  95909761.40643  23422156.109                    23422168.461
 11  8 23 18 15 30.0000000  0 10G26G17G07G19G11G28G01G24G08G13
 124115612.974 6  96713555.74043  23618423.367                    23618434.969
 121821253.566 7  94925712.251 6  23181813.227                    23181825.008
 106745192.409 8  83178125.721 8  20312942.578                    20312951.738
 123379921.600 7  96140247.44744  23478428.742                    23478436.727
 113313209.178 8  88296107.41145  21562786.492                    21562795.773
 117133033.722 7  91272493.43445  22289654.508                    22289663.152
 118364750.597 7  92232355.282 7  22524061.125                    22524075.254
 118195527.909 7  92100537.97644  22491860.891                    22491872.855
 108197075.838 8  84309499.34346  20589219.805                    20589229.242
 123194517.053 7  95995559.72344  23443109.289                    23443122.406
 11  8 23 18 16  0.0000000  0 10G26G17G07G19G11G28G01G24G08G13
 124047250.675 7  96660286.43443  23605414.977                    23605426.500
 121730612.181 7  94855082.688 7  23164564.031                    23164576.266
 106750333.501 8  83182131.750 8  20313920.500                    20313929.895
 123480874.128 7  96218911.70644  23497639.406                    23497646.953
 113299860.000 8  88285705.46245  21560245.688                    21560256.180
 117107103.464 7  91252288.06145  22284720.297                    22284728.914
 118307522.353 7  92187761.916 7  22513171.070                    22513185.016
 118145077.328 7  92061225.87744  22482260.148                    22482272.594
 108147157.089 8  84270601.62246  20579720.445                    20579729.469
 123304694.882 7  96081412.34344  23464076.070                    23464088.547
 11  8 23 18 16 30.0000000  0 10G26G17G07G19G11G28G01G24G08G13
 123979379.447 7  96607399.75443  23592499.648                    23592511.512
 121640222.353 7  94784649.146 7  23147363.625                    23147375.902
 106755925.049 8  83186488.781 8  20314984.539                    20314993.723
 123581988.648 7  96297702.20544  23516880.703                    23516888.844
 113287062.936 8  88275733.74645  21557811.195                    21557820.898
 117081236.951 7  91232132.34745  22279797.922                    22279807.102
 118250638.530 7  92143436.917 7  22502346.211                    22502360.320
 118094990.461 7  92022197.21244  22472728.914                    22472741.926
 108097558.544 8  84231953.41046  20570281.906                    20570291.477
 123414939.216 6  96167316.82044  23485054.898                    23485068.031
 11  8 23 18 17  0.0000000  0 10G26G17G07G19G11G28G01G24G08G13
 123912001.798 7  96554897.74843  23579678.391                    23579690.180
 121550085.850 7  94714412.983 7  23130211.102                    23130223.148
 106761968.450 8  83191197.907 8  20316134.688                    20316143.664
 123683262.272 7  96376616.66244  23536152.117                    23536160.738
 113274819.474 8  88266193.40345  21555481.070                    21555490.633
 117055433.532 8  91212025.80745  22274887.320                    22274896.969
 118194102.236 7  92099382.733 7  22491587.703                    22491601.855
 118045270.333 7  91983454.29944  22463267.484                    22463280.363
 108048282.474 8  84193556.47346  20560904.922                    20560914.254
 123525247.206 6  96253270.87343  23506045.000                    23506059.098
 11  8 23 18 17 30.0000000  0 10G26G17G07G19G11G28G01G24G08G13
 123845119.936 7  96502782.04943  23566951.180                    23566963.215
 121460204.444 7  94644375.607 6  23113106.586                    23113119.016
 106768465.052 8  83196260.181 8  20317371.203                    20317380.449
 123784692.567 7  96455653.20544  23555453.641                    23555462.289
 113263130.843 8  88257085.39745  21553256.984                    21553266.406
 117029692.491 8  91191967.85545  22269989.320                    22269998.227
 118137916.205 7  92055601.451 7  22480895.344                    22480909.742
 117995919.580 7  91944999.20344  22453876.109                    22453889.023
 107999331.917 8  84155413.18946  20551590.102                    20551600.199
 123635616.246 6  96339272.49043  23527048.188                    23527061.996
 11  8 23 18 18  0.0000000  0 10G26G17G07G19G11G28G01G24G08G13
 123778735.991 7  96451054.35543  23554318.438                    23554330.227
 121370579.882 7  94574538.370 7  23096051.609                    23096063.836
 106775416.127 8  83201676.573 8  20318693.531                    20318702.527
 123886277.185 6  96534809.95044  23574784.984                    23574793.441
 113251998.168 8  88248410.60545  21551138.563                    21551148.082
 117004013.103 7  91171957.95045  22265102.281                    22265111.234
 118082083.431 7  92012095.447 7  22470271.547                    22470285.309
 117946941.250 7  91906834.31444  22444556.211                    22444568.309
 107950709.613 8  84117525.67846  20542337.336                    20542347.254
 123746043.224 6  96425319.24843  23548061.953                    23548075.844
 11  8 23 18 18 30.0000000  0 10G26G17G07G19G11G28G01G24G08G13
 123712852.095 7  96399716.31643  23541780.031                    23541792.262
 121281213.534 7  94504902.336 6  23079045.898                    23079057.680
 106782822.145 8  83207447.472 8  20320103.305                    20320111.973
 123988012.658 7  96614084.26444  23594145.078                    23594153.156
 113241422.112 8  88240169.54045  21549126.016                    21549135.418
 116978394.386 7  91151995.32545  22260227.438                    22260236.426
 118026606.507 7  91968866.721 7  22459714.711                    22459728.301
 117898337.551 7  91868961.36744  22435306.977                    22435319.719
 107902417.128 8  84079895.16746  20533147.445                    20533156.906
 123856524.978 6  96511408.69643  23569086.055                    23569099.457
 11  8 23 18 19  0.0000000  0 10G26G17G07G19G11G28G01G24G08G13
 123647469.993 6  96348769.26743  23529338.711                    23529351.230
 121192106.916 7  94435468.688 6  23062089.750                    23062101.754
 106790684.350 8  83213573.851 8  20321599.188                    20321608.199
 124089896.918 6  96693474.48944  23613532.500                    23613541.133
 113231403.782 8  88232363.05145  21547219.547                    21547229.066
 116952835.409 7  91132079.24445  22255363.484                    22255372.793
 117971487.843 7  91925917.161 7  22449225.055                    22449239.105
 117850111.419 7  91831382.63344  22426129.734                    22426142.023
 107854457.344 8  84042523.90446  20524021.539                    20524030.801
 123967058.409 7  96597538.44843  23590120.469                    23590133.578
 11  8 23 18 19 30.0000000  0 10G26G17G07G19G11G28G01G24G08G13
 123582592.286 6  96298215.30443  23516992.398                    23517005.430
 121103262.237 7  94366239.148 6  23045183.102                    23045194.336
 106799004.084 8  83220056.733 8  20323182.328                    20323191.574
 124191927.008 7  96772978.39044  23632947.664                    23632956.668
 113221944.457 8  88224992.16045  21545419.344                    21545429.023
 116927335.785 8  91112209.43045  22250511.633                    22250519.848
 117916730.761 7  91883249.360 7  22438805.242                    22438818.961
 117802265.763 7  91794100.36544  22417025.023                    22417037.512
 107806832.967 8  84005414.00846  20514958.750                    20514968.059
 124077640.812 7  96683706.33643  23611164.047                    23611176.137
 11  8 23 18 20  0.0000000  0 10G26G17G07G19G11G28G01G24G08G13
 123518220.682 6  96248055.65043  23504743.172                    23504755.270
 121014680.508 7  94297214.487 6  23028326.234                    23028338.387
 106807782.222 8  83226896.818 8  20324853.078                    20324862.344
 124294100.216 6  96852593.80544  23652390.531                    23652399.879
 113213045.039 8  88218057.55445  21543725.594                    21543735.426
 116901894.516 7  91092385.07545  22245669.789                    22245678.715
 117862337.444 7  91840865.017 7  22428454.875                    22428468.152
 117754802.716 7  91757116.23444  22407992.922                    22408005.352
 107759546.288 8  83968567.25246  20505960.500                    20505969.699
 124188269.026 7  96769909.92043  23632216.008                    23632228.457
 11  8 23 18 20 30.0000000  0 10G26G17G07G19G11G28G01G24G08G13
 123454357.660 6  96198292.31844  23492591.383                    23492602.945
 120926363.734 7  94228396.299 6  23011520.164                    23011531.645
 106817019.997 8  83234095.055 8  20326610.758                    20326620.391
 124396414.237 6  96932318.95244  23671860.688                    23671869.418
 113204706.683 8  88211560.14745  21542139.039                    21542148.824
 116876511.211 7  91072605.88345  22240839.500                    22240848.852
 117808311.334 7  91798766.814 7  22418173.961                    22418187.984
 117707725.249 7  91720432.54144  22399034.711                    22399047.148
 107712600.134 8  83931985.84446  20497027.063                    20497036.699
 124298940.197 7  96856146.98943  23653275.594                    23653289.234
 11  8 23 18 21  0.0000000  0 10G26G17G07G19G11G28G01G24G08G13
 123391005.089 6  96148926.76443  23480534.961                    23480547.324
 120838313.236 7  94159785.603 6  22994764.891                    22994776.570
 106826718.204 8  83241652.070 8  20328456.148                    20328465.477
 124498866.134 6  97012151.53344  23691356.836                    23691365.781
 113196929.959 8  88205500.37145  21540659.008                    21540668.996
 116851185.050 7  91052871.22245  22236020.023                    22236029.387
 117754654.338 7  91756956.221 7  22407963.406                    22407977.340
 117661035.949 7  91684051.32344  22390149.594                    22390161.930
 107665996.775 8  83895671.54246  20488158.391                    20488167.977
 124409651.261 6  96942415.11243  23674343.688                    23674357.598
 11  8 23 18 21 30.0000000  0 10G26G17G07G19G11G28G01G24G08G13
 123328164.884 6  96099960.43843  23468576.813                    23468588.602
 120750530.895 7  94091383.863 6  22978059.766                    22978071.695
 106836877.846 8  83249568.647 8  20330389.656                    20330398.984
 124601453.502 6  97092089.68343  23710878.578                    23710887.441
 113189715.980 8  88199879.09445  21539286.313                    21539295.836
 116825914.995 7  91033180.28545  22231211.406                    22231220.355
 117701369.802 7  91715435.852 7  22397823.203                    22397837.480
 117614737.442 7  91647974.60844  22381339.109                    22381351.891
 107619738.794 8  83859626.36946  20479356.086                    20479365.703
 124520399.323 6  97028712.04743  23695418.711                    23695432.355
 11  8 23 18 22  0.0000000  0 10G26G17G07G19G11G28G01G24G08G13
 123265839.404 6  96051395.17744  23456717.258                    23456728.750
 120663018.113 7  94023192.168 6  22961407.656                    22961419.223
 106847500.688 8  83257846.155 8  20332410.953                    20332420.504
 124704173.737 6  97172131.36843  23730424.781                    23730434.383
 113183065.969 8  88194697.27945  21538021.289                    21538030.930
 116800700.744 7  91013532.82145  22226413.523                    22226422.719
 117648459.792 7  91674207.319 7  22387754.906                    22387768.945
 117568832.424 7  91612204.53044  22372604.305                    22372616.734
 107573828.521 8  83823852.13046  20470619.727                    20470629.066
 124631181.512 6  97115035.55743  23716499.797                    23716513.543
 11  8 23 18 22 30.0000000  0 10G26G17G07G19G11G28G01G24G08G13
 123204030.508 6  96003232.47243  23444954.914                    23444966.789
 120575776.525 7  93955211.776 7  22944805.477                    22944817.102
 106858587.376 8  83266485.106 8  20334520.953                    20334530.129
 124807024.466 6  97252274.71243  23749997.336                    23750006.313
 113176980.838 8  88189955.63745  21536862.930                    21536872.473
 116775541.318 7  90993928.06645  22221625.391                    22221634.742
 117595927.942 7  91633273.444 7  22377758.414                    22377772.441
 117523323.661 7  91576743.21444  22363943.977                    22363956.574
 107528269.101 8  83788351.28446  20461949.680                    20461958.879
 124741995.238 6  97201383.62943  23737587.141                    23737600.195
 11  8 23 18 23  0.0000000  0 10G26G17G07G19G11G28G01G24G08G13
 123142739.929 6  95955473.61644  23433291.836                    23433303.340
 120488807.658 7  93887443.919 7  22928255.750                    22928267.676
 106870138.229 8  83275485.741 8  20336718.781                    20336727.988
 124910002.309 6  97332517.10844  23769593.805                    23769602.859
 113171460.893 8  88185654.39245  21535812.445                    21535821.941
 116750436.141 8  90974365.59945  22216848.211                    22216857.301
 117543776.445 7  91592635.946 7  22367834.109                    22367847.988
 117478213.393 7  91541592.41044  22355359.703                    22355372.273
 107483062.012 8  83753124.98046  20453346.984                    20453356.801
 124852837.141 6  97287753.68543  23758679.484                    23758692.809
 11  8 23 18 23 30.0000000  0 10G26G17G07G19G11G28G01G24G08G13
 123081969.569 7  95908120.12944  23421727.406                    23421739.211
 120402112.905 7  93819889.652 7  22911758.523                    22911770.164
 106882154.300 8  83284848.879 7  20339005.539                    20339014.629
 125013105.089 6  97412856.84944  23789213.695                    23789222.367
 113166506.851 8  88181794.10745  21534870.102                    21534879.148
 116725384.031 8  90954844.49745  22212080.945                    22212090.215
 117492007.309 7  91552296.429 7  22357983.000                    22357996.852
 117433504.086 7  91506754.04744  22346851.906                    22346864.254
 107438209.835 8  83718175.23046  20444811.875                    20444821.262
 124963704.141 6  97374143.28543  23779777.352                    23779790.766
 11  8 23 18 24  0.0000000  0 10G26G17G07G19G11G28G01G24G08G13
 123021721.525 7  95861173.65243  23410262.977                    23410273.742
 120315693.979 7  93752550.313 6  22895313.375                    22895324.773
 106894636.919 8  83294575.560 8  20341380.836                    20341390.016
 125116330.465 6  97493292.13044  23808856.813                    23808865.887
 113162119.999 8  88178375.79645  21534035.070                    21534044.570
 116700384.576 7  90935364.42045  22207324.031                    22207332.922
 117440623.833 7  91512257.412 7  22348204.984                    22348218.582
 117389198.419 7  91472230.21444  22338420.523                    22338433.133
 107393715.541 8  83683504.34846  20436345.133                    20436354.582
 125074593.354 7  97460550.19243  23800879.336                    23800892.266
 11  8 23 18 24 30.0000000  0 10G26G17G07G19G11G28G01G24G08G13
 122961998.140 7  95814635.97243  23398898.039                    23398907.809
 120229552.870 7  93685427.444 6  22878921.094                    22878932.773
 106907587.517 8  83304666.874 7  20343845.000                    20343854.520
 125219675.793 6  97573820.87344  23828522.695                    23828532.500
 113158301.346 8  88175400.22345  21533308.617                    21533318.102
 116675437.722 8  90915925.32445  22202576.617                    22202585.621
 117389628.968 7  91472521.197 7  22338501.063                    22338515.188
 117345299.432 7  91438023.25945  22330066.703                    22330079.301
 107349582.101 8  83649114.65946  20427946.789                    20427956.535
 125185502.267 7  97546972.46243  23821984.492                    23821997.918
 11  8 23 18 25  0.0000000  0 10G26G17G07G19G11G28G01G24G08G13
 122902801.034 6  95768508.39743  23387632.594                    23387642.867
 120143690.527 7  93618521.800 6  22862581.641                    22862593.465
 106921006.357 8  83315123.077 8  20346399.289                    20346408.063
 125323138.370 6  97654440.99343  23848211.422                    23848219.883
 113155051.316 7  88172867.73245  21532690.055                    21532699.594
 116650542.218 7  90896526.25545  22197839.125                    22197848.117
 117339024.907 7  91433089.499 7  22328870.750                    22328885.516
 117301809.022 7  91404134.67844  22321790.633                    22321803.266
 107305811.450 8  83615007.65846  20419617.305                    20419627.051
 125296427.831 6  97633407.72843  23843093.047                    23843106.465
 11  8 23 18 25 30.0000000  0 10G26G17G07G19G11G28G01G24G08G13
 122844131.984 7  95722792.26643  23376468.883                    23376479.168
 120058108.511 7  93551834.601 6  22846296.203                    22846307.902
 106934894.407 8  83325944.896 8  20349041.930                    20349051.137
 125426715.677 6  97735150.49343  23867920.789                    23867930.223
 113152370.452 7  88170778.74545  21532179.922                    21532189.223
 116625697.391 7  90877166.66345  22193111.359                    22193120.109
 117288814.230 7  91393964.322 7  22319316.445                    22319330.836
 117258729.955 7  91370566.61844  22313593.297                    22313606.004
 107262405.760 8  83581185.04046  20411357.797                    20411367.195
 125407366.945 6  97719853.55643  23864204.250                    23864217.305
 11  8 23 18 26  0.0000000  0 10G26G17G07G19G11G28G01G24G08G13
 122785992.772 7  95677489.03843  23365405.070                    23365416.320
 119972808.333 7  93485367.000 6  22830064.313                    22830075.512
 106949252.417 8  83337132.924 8  20351774.188                    20351783.406
 125530405.039 6  97815947.33843  23887652.711                    23887662.016
 113150259.687 8  88169134.00045  21531777.844                    21531788.078
 116600902.477 8  90857845.95745  22188393.016                    22188401.910
 117238999.695 7  91355147.831 7  22309836.875                    22309851.383
 117216064.559 7  91337320.89744  22305474.500                    22305486.488
 107219367.377 8  83547648.64246  20403167.820                    20403177.578
 125518316.583 6  97806307.56143  23885317.922                    23885330.242
 11  8 23 18 26 30.0000000  0 10G26G17G07G19G11G28G01G24G08G13
 122728385.282 6  95632600.10543  23354442.297                    23354452.586
 119887791.170 7  93419119.923 6  22813885.234                    22813896.531
 106964081.104 8  83348687.713 8  20354596.172                    20354605.137
 125634203.878 6  97896829.46143  23907404.555                    23907414.285
 113148719.477 8  88167933.83545  21531485.203                    21531494.617
 116576156.763 7  90838563.60045  22183684.078                    22183693.188
 117189583.578 7  91316641.830 7  22300433.891                    22300447.102
 117173815.487 7  91304399.58944  22297434.609                    22297446.527
 107176698.989 8  83514400.54346  20395048.234                    20395057.750
 125629273.867 6  97892767.48543  23906433.148                    23906445.934
 11  8 23 18 27  0.0000000  0 10G26G17G07G19G11G28G01G24G08G13
 122671311.581 6  95588127.12143  23343581.734                    23343592.914
 119803058.914 7  93353094.868 7  22797761.797                    22797773.004
 106979381.851 8  83360610.338 8  20357507.438                    20357517.082
 125738109.969 6  97977795.15843  23927176.797                    23927187.090
 113147750.856 8  88167179.06145  21531300.570                    21531310.488
 116551459.897 8  90819319.29545  22178984.391                    22178993.465
 117140568.602 7  91278448.392 7  22291105.914                    22291119.473
 117131985.434 7  91271804.78645  22289474.602                    22289486.277
 107134403.668 8  83481443.13646  20386999.977                    20387008.918
 125740236.354 6  97979231.46643  23927548.094                    23927561.992
 11  8 23 18 27 30.0000000  0 10G26G17G07G19G11G28G01G24G08G13
 122614773.159 6  95544071.21943  23332822.883                    23332834.965
 119718613.264 7  93287293.119 6  22781692.273                    22781703.324
 106995155.255 8  83372901.291 8  20360509.234                    20360518.633
 125842120.635 6  98058842.36943  23946970.125                    23946979.539
 113147354.248 8  88166870.02345  21531225.289                    21531235.211
 116526811.167 8  90800112.50645  22174293.883                    22174302.977
 117091957.639 7  91240569.769 7  22281856.086                    22281869.746
 117090576.547 7  91239538.19144  22281594.578                    22281606.984
 107092483.409 8  83448778.00446  20379022.281                    20379032.137
 125851200.895 6  98065697.07543  23948664.031                    23948678.352
 11  8 23 18 28  0.0000000  0 10G26G17G07G19G11G28G01G24G08G13
 122558771.822 6  95500433.86343  23322165.680                    23322178.031
 119634455.427 7  93221715.678 6  22765677.273                    22765688.719
 107011401.956 8  83385561.028 8  20363600.859                    20363610.324
 125946233.142 6  98139968.92443  23966782.219                    23966791.516
 113147530.153 8  88167007.09245  21531259.031                    21531268.281
 116502209.439 8  90780942.34945  22169612.242                    22169621.320
 117043753.114 7  91203007.837 7  22272682.539                    22272696.996
 117049591.418 7  91207601.77145  22273795.367                    22273808.008
 107050940.492 8  83416406.89646  20371116.906                    20371126.738
 125962164.662 6  98152162.03143  23969780.102                    23969794.742
 11  8 23 18 28 30.0000000  0 10G26G17G07G19G11G28G01G24G08G13
 122503309.559 6  95457216.52644  23311611.734                    23311623.703
 119550586.805 7  93156363.579 6  22749717.258                    22749729.094
 107028122.848 8  83398590.264 8  20366782.609                    20366792.102
 126050444.963 6  98221172.86743  23986613.188                    23986623.035
 113148279.193 8  88167590.75545  21531401.211                    21531410.945
 116477654.651 8  90761808.75245  22164939.508                    22164949.090
 116995957.414 7  91165764.480 7  22263587.711                    22263601.266
 117009032.499 7  91175997.45544  22266077.086                    22266090.004
 107009777.724 8  83384332.00446  20363284.164                    20363293.414
 126073124.887 6  98238624.21543  23990894.484                    23990910.070
 11  8 23 18 29  0.0000000  0 10G26G17G07G19G11G28G01G24G08G13
 122448388.020 6  95414420.51343  23301159.758                    23301172.133
 119467009.154 7  93091238.200 6  22733813.727                    22733824.359
 107045318.891 7  83411989.745 8  20370055.039                    20370064.098
 126154754.108 6  98302452.63143  24006462.484                    24006472.355
 113149602.140 8  88168621.61845  21531652.828                    21531662.449
 116453145.786 8  90742710.95445  22160275.648                    22160284.496
 116948573.639 7  91128842.107 7  22254570.484                    22254584.133
 116968902.428 7  91144727.33645  22258440.813                    22258453.051
 106968997.878 8  83352555.49046  20355524.031                    20355533.598
 126184078.617 6  98325081.35943  24012008.898                    24012023.332
 11  8 23 18 29 30.0000000  0 10G26G17G07G19G11G28G01G24G08G13
 122394008.962 6  95372047.26443  23290811.719                    23290823.941
 119383723.469 7  93026340.328 7  22717964.484                    22717976.215
 107062990.772 8  83425760.010 8  20373417.953                    20373427.375
 126259158.055 6  98383806.27243  24026330.547                    24026340.121
 113151499.506 8  88170100.09545  21532013.711                    21532023.930
 116428682.869 8  90723648.94345  22155621.039                    22155629.418
 116901603.841 7  91092242.301 7  22245632.031                    22245646.645
 116929203.273 7  91113792.96945  22250885.703                    22250898.648
 106928603.174 8  83321079.08946  20347837.180                    20347846.566
 126295023.065 6  98411531.25443  24033121.008                    24033136.148
 11  8 23 18 30  0.0000000  0 10G26G17G07G19G11G28G01G24G08G13
 122340174.093 6  95330098.10043  23280567.641                    23280580.699
 119300731.435 7  92961671.287 6  22702171.836                    22702182.281
 107081139.322 8  83439901.706 8  20376871.594                    20376880.574
 126363654.137 6  98465231.71643  24046215.656                    24046224.422
 113153971.639 7  88172026.44445  21532484.430                    21532494.141
 116404264.920 7  90704621.98445  22150973.844                    22150983.082
 116855050.867 7  91055967.310 7  22236773.609                    22236787.145
 116889937.430 7  91083196.27444  22243414.094                    22243426.176
 106888596.085 8  83289904.72746  20340224.227                    20340233.160
 126405955.530 6  98497971.82043  24054231.758                    24054246.883
 11  8 23 18 30 30.0000000  0 10G26G17G07G19G11G28G01G24G08G13
 122286884.952 6  95288574.13344  23270427.406                    23270439.598
 119218034.331 7  92897232.054 6  22686434.758                    22686446.234
 107099764.947 8  83454415.146 8  20380415.875                    20380425.172
 126468239.490 6  98546726.72143  24066116.477                    24066126.227
 113157018.958 8  88174400.99045  21533064.336                    21533074.262
 116379891.106 8  90685629.41245  22146335.891                    22146344.695
 116808916.357 7  91020018.398 7  22227994.688                    22228007.809
 116851107.228 7  91052939.06045  22236024.875                    22236036.313
 106848978.868 8  83259034.16046  20332685.031                    20332694.613
 126516872.840 6  98584400.58943  24075337.789                    24075353.266
 11  8 23 18 31  0.0000000  0 10G26G17G07G19G11G28G01G24G08G13
 122234143.123 6  95247476.63644  23260390.297                    23260402.879
 119135633.459 7  92833023.656 6  22670754.195                    22670764.875
 107118868.375 8  83469300.908 8  20384051.156                    20384060.844
 126572911.960 6  98628289.60643  24086035.148                    24086045.387
 113160641.914 7  88177224.08445  21533753.961                    21533763.211
 116355560.971 7  90666670.86945  22141705.883                    22141714.871
 116763203.099 7  90984397.744 7  22219295.578                    22219309.121
 116812715.146 7  91023023.21244  22228718.805                    22228731.078
 106809753.542 8  83228468.96546  20325221.094                    20325230.160
 126627772.341 6  98670815.43443  24096442.930                    24096457.117
 11  8 23 18 31 30.0000000  0 10G26G17G07G19G11G28G01G24G08G13
 122181950.322 7  95206806.94344  23250459.406                    23250471.023
 119053530.357 7  92769047.270 6  22655130.984                    22655141.809
 107138450.688 8  83484559.821 7  20387777.664                    20387786.656
 126677669.093 6  98709918.45943  24105970.039                    24105979.801
 113164840.971 7  88180496.09445  21534552.586                    21534562.465
 116331273.936 8  90647745.92945  22137084.016                    22137092.910
 116717913.602 7  90949107.291 7  22210676.867                    22210690.879
 116774763.435 7  90993450.49744  22221497.039                    22221508.754
 106770922.642 8  83198211.11746  20317831.469                    20317841.066
 126738650.863 6  98757213.95743  24117541.898                    24117556.738
 11  8 23 18 32  0.0000000  0 10G26G17G07G19G11G28G01G24G08G13
 122130308.289 7  95166566.45444  23240632.188                    23240643.691
 118971726.648 7  92705304.194 7  22639563.734                    22639574.813
 107158512.183 8  83500192.123 7  20391595.242                    20391604.270
 126782508.219 6  98791611.22743  24125920.297                    24125929.957
 113169616.781 8  88184217.51945  21535461.461                    21535471.234
 116307029.490 7  90628854.16045  22132470.773                    22132479.711
 116673050.765 7  90914149.284 7  22202139.844                    22202154.051
 116737254.588 7  90964222.88344  22214359.188                    22214371.734
 106732489.230 8  83168263.00046  20310517.586                    20310527.582
 126849506.164 6  98843594.39543  24138638.422                    24138652.477
 11  8 23 18 32 30.0000000  0 10G26G17G07G19G11G28G01G24G08G13
 122079218.488 7  95126756.23144  23230910.469                    23230921.914
 118890223.253 7  92641795.122 7  22624054.141                    22624065.551
 107179053.497 8  83516198.319 7  20395504.070                    20395513.234
 126887427.084 6  98873366.12643  24145886.203                    24145895.926
 113174969.395 8  88188388.39445  21536480.086                    21536489.309
 116282826.700 8  90609994.85245  22127864.953                    22127873.730
 116628616.389 7  90879525.145 7  22193684.578                    22193698.281
 116700190.639 7  90935341.91244  22207306.336                    22207318.438
 106694455.365 8  83138626.21746  20303280.313                    20303289.723
 126960334.818 6  98929954.09343  24159727.805                    24159742.672
 11  8 23 18 33  0.0000000  0 10G26G17G07G19G11G28G01G24G08G13
 122028682.417 7  95087377.50344  23221293.453                    23221304.898
 118809021.733 7  92578521.275 7  22608602.102                    22608613.328
 107200075.314 8  83532578.921 8  20399504.398                    20399513.215
 126992423.382 6  98955181.35943  24165866.492                    24165875.664
 113180899.057 7  88193008.92645  21537608.195                    21537617.836
 116258665.313 8  90591167.80545  22123267.188                    22123275.918
 116584613.063 7  90845236.899 7  22185310.914                    22185324.559
 116663574.054 7  90906809.54445  22200338.359                    22200350.383
 106656823.503 8  83109302.68646  20296119.086                    20296128.809
 127071134.629 6  99016291.31343  24180811.703                    24180827.438
 11  8 23 18 33 30.0000000  0 10G26G17G07G19G11G28G01G24G08G13
 121978701.665 7  95048431.50944  23211782.609                    23211793.613
 118728123.411 7  92515483.717 6  22593207.352                    22593218.699
 107221578.315 8  83549334.485 7  20403596.313                    20403605.824
 127097494.507 6  99037054.86743  24185860.750                    24185870.324
 113187406.322 8  88198079.53045  21538846.766                    21538856.133
 116234544.587 8  90572372.44745  22118677.461                    22118686.035
 116541043.616 7  90811286.722 7  22177019.555                    22177033.625
 116627407.114 7  90878627.56244  22193455.648                    22193468.188
 106619596.204 8  83080294.39946  20289034.898                    20289044.402
 127181902.414 6  99102603.52743  24201891.375                    24201905.672
 11  8 23 18 34  0.0000000  0 10G26G17G07G19G11G28G01G24G08G13
 121929277.663 7  95009919.33844  23202377.047                    23202389.027
 118647529.433 7  92452683.286 7  22577870.805                    22577881.867
 107243562.765 8  83566465.195 8  20407779.781                    20407789.262
 127202637.965 6  99118984.76243  24205868.195                    24205878.703
 113194491.244 7  88203600.26245  21540195.328                    21540204.570
 116210463.906 8  90553608.29545  22114094.797                    22114103.637
 116497909.441 7  90777675.724 7  22168811.539                    22168825.551
 116591691.823 7  90850797.49744  22186659.188                    22186671.348
 106582775.291 8  83051602.77946  20282028.508                    20282037.965
 127292635.343 6  99188888.54443  24222963.414                    24222977.418
 11  8 23 18 34 30.0000000  0 10G26G17G07G19G11G28G01G24G08G13
 121880411.877 7  94971842.15044  23193078.016                    23193090.520
 118567241.277 7  92390121.161 7  22562592.688                    22562603.609
 107266029.488 8  83583971.705 8  20412054.984                    20412064.059
 127307851.393 6  99200969.19343  24225890.203                    24225900.039
 113202154.089 7  88209571.32345  21541653.023                    21541662.715
 116186422.765 8  90534874.95245  22109519.945                    22109528.918
 116455213.346 7  90744406.080 7  22160686.828                    22160700.730
 116556430.609 7  90823321.27244  22179949.234                    22179961.324
 106546363.247 8  83023229.75546  20275098.984                    20275108.887
 127403330.634 6  99275144.28443  24244027.648                    24244042.973
 11  8 23 18 35  0.0000000  0 10G26G17G07G19G11G28G01G24G08G13
 121832106.063 7  94934201.24144  23183886.297                    23183897.586
 118487260.327 7  92327798.424 7  22547372.820                    22547383.711
 107288979.443 8  83601854.765 7  20416422.289                    20416431.746
 127413132.595 6  99283006.38743  24245924.586                    24245934.434
 113210395.201 7  88215992.97145  21543221.547                    21543231.281
 116162420.741 8  90516172.08045  22104952.516                    22104961.535
 116412958.540 7  90711480.299 7  22152645.680                    22152659.727
 116521625.759 7  90796200.63045  22173326.398                    22173338.141
 106510362.695 8  82995177.37346  20268248.891                    20268258.035
 127513985.856 6  99361368.81743  24265084.250                    24265100.539
 11  8 23 18 35 30.0000000  0 10G26G17G07G19G11G28G01G24G08G13
 121784361.436 7  94896997.67444  23174800.734                    23174811.785
 118407587.870 7  92265716.049 7  22532212.047                    22532222.406
 107312412.477 8  83620114.250 8  20420881.688                    20420891.137
 127518478.915 6  99365094.34043  24265972.422                    24265981.535
 113219214.965 7  88222865.51945  21544899.492                    21544909.301
 116138457.168 8  90497499.18045  22100392.188                    22100401.680
 116371146.182 7  90678899.263 7  22144689.047                    22144702.730
 116487279.072 7  90769437.03444  22166789.930                    22166801.973
 106474775.911 8  82967447.40046  20261476.492                    20261485.695
 127624597.756 6  99447559.56743  24286134.789                    24286149.926
 11  8 23 18 36  0.0000000  0 10G26G17G07G19G11G28G01G24G08G13
 121737179.299 7  94860232.40144  23165821.664                    23165832.922
 118328225.161 7  92203875.038 7  22517109.563                    22517120.129
 107336329.456 8  83638750.826 7  20425433.281                    20425442.094
 127623888.042 6  99447231.27443  24286030.063                    24286039.828
 113228613.515 7  88230189.07645  21546688.289                    21546697.809
 116114531.559 8  90478855.85945  22095839.578                    22095848.648
 116329778.830 7  90646664.983 7  22136817.305                    22136831.074
 116453393.242 7  90743032.51644  22160341.680                    22160353.898
 106439605.421 8  82940041.81346  20254783.867                    20254793.059
 127735163.634 6  99533714.43342  24307173.422                    24307189.457
 11  8 23 18 36 30.0000000  0 10G26G17G07G19G11G28G01G24G08G13
 121690561.258 7  94823906.72643  23156950.531                    23156961.414
 118249173.355 7  92142276.297 7  22502066.281                    22502077.152
 107360730.789 8  83657764.828 7  20430076.234                    20430085.855
 127729357.631 6  99529415.27443  24306101.023                    24306110.617
 113238590.846 8  88237963.61645  21548586.969                    21548596.551
 116090643.326 8  90460241.65845  22091293.203                    22091302.895
 116288859.478 7  90614779.806 7  22129030.516                    22129044.137
 116419970.687 7  90716989.01844  22153981.617                    22153993.828
 106404853.467 8  82912962.36046  20248171.047                    20248180.207
 127845681.232 6  99619831.65042  24328204.727                    24328220.617
 11  8 23 18 37  0.0000000  0 10G26G17G07G19G11G28G01G24G08G13
 121644508.669 7  94788021.59743  23148186.992                    23148198.191
 118170433.782 7  92080920.851 6  22487082.047                    22487093.551
 107385617.015 8  83677156.664 8  20434812.156                    20434821.164
 127834885.468 6  99611644.69643  24326181.656                    24326191.430
 113249147.246 8  88246189.38745  21550595.836                    21550604.926
 116066792.185 8  90441656.36945  22086755.008                    22086764.004
 116248389.793 7  90583245.017 7  22121329.578                    22121343.395
 116387013.080 7  90691307.79745  22147710.117                    22147722.047
 106370522.628 8  82886211.04846  20241638.305                    20241647.648
 127956147.599 6  99705909.02042  24349226.664                    24349242.020
 11  8 23 18 37 30.0000000  0 10G26G17G07G19G11G28G01G24G08G13
 121599022.652 7  94752577.97843  23139531.547                    23139542.570
 118092007.621 7  92019809.617 7  22472158.391                    22472169.539
 107410988.424 8  83696926.561 8  20439640.055                    20439649.191
 127940468.943 6  99693917.48043  24346273.914                    24346283.504
 113260282.684 8  88254866.35645  21552714.664                    21552723.965
 116042977.172 8  90423099.23245  22082223.031                    22082232.258
 116208371.918 7  90552062.279 7  22113714.141                    22113728.141
 116354522.263 7  90665990.32345  22141527.219                    22141539.426
 106336614.687 8  82859789.26646  20235185.188                    20235195.289
 128066559.622 6  99791943.99342  24370236.891                    24370253.180
 11  8 23 18 38  0.0000000  0 10G26G17G07G19G11G28G01G24G08G13
 121554104.992 6  94717577.22843  23130983.523                    23130994.879
 118013896.467 7  91958943.843 7  22457294.742                    22457305.195
 107436845.968 8  83717075.258 8  20444560.805                    20444570.379
 128046106.185 6  99776232.14543  24366376.367                    24366385.641
 113271997.513 8  88263994.80145  21554943.898                    21554953.430
 116019198.058 8  90404570.06745  22077697.984                    22077706.992
 116168808.543 7  90521233.692 7  22106185.430                    22106199.617
 116322500.918 7  90641038.65345  22135433.477                    22135446.121
 106303132.854 8  82833699.52246  20228814.227                    20228823.199
 128176915.299 6  99877935.03142  24391237.609                    24391253.750
 11  8 23 18 38 30.0000000  0 10G26G17G07G19G11G28G01G24G08G13
 121509756.547 7  94683020.04243  23122544.328                    23122555.332
 117936101.562 7  91898324.501 7  22442490.031                    22442501.098
 107463189.436 8  83737602.611 7  20449573.773                    20449582.559
 128151793.975 6  99858586.20843  24386488.492                    24386497.246
 113284291.335 8  88273574.40845  21557283.367                    21557292.906
 115995454.360 7  90386068.49145  22073179.563                    22073188.746
 116129701.547 7  90490760.735 7  22098743.828                    22098757.660
 116290950.673 7  90616454.08745  22129430.219                    22129441.961
 106270078.770 8  82807943.08646  20222524.102                    20222533.762
 128287211.444 6  99963879.72842  24412227.563                    24412242.141
 11  8 23 18 39  0.0000000  0 10G26G17G07G19G11G28G01G24G08G13
 121465978.677 7  94648907.45543  23114213.906                    23114224.938
 117858623.491 7  91837952.041 7  22427746.406                    22427757.531
 107490019.540 8  83758509.146 7  20454679.258                    20454688.598
 128257530.863 6  99940978.49543  24406609.344                    24406618.266
 113297164.202 8  88283605.22245  21559732.625                    21559742.535
 115971745.610 8  90367594.14645  22068667.836                    22068676.918
 116091053.239 7  90460645.212 7  22091389.023                    22091402.898
 116259873.793 7  90592238.37245  22123516.656                    22123528.727
 106237455.183 8  82782522.10346  20216315.750                    20216325.488
 128397445.480 6 100049776.05243  24433203.539                    24433220.211
